<?xml version="1.0" encoding="UTF-8" standalone="no" ?>
<gpx xmlns="http://www.topografix.com/GPX/1/1" xmlns:xsi="http://www.w3.org/2001/XMLSchema-instance" xsi:schemaLocation="http://www.topografix.com/GPX/1/1 http://www.topografix.com/GPX/1/1/gpx.xsd" version="1.1" creator="VisuGPX - https://www.visugpx.com">
  <metadata>
    <name>Joyeux Randonneurs à Saint Méard de Dronne</name>
    <desc><![CDATA[Randonnée accessible à tous. Il existe pratiquement toujours des possibilités  pour raccourcir le circuit à environ  6km. ]]></desc>
  </metadata>
  <trk>
    <name><![CDATA[Tracé 17 nov. 2015 14:01:05 St Meard de Dronne]]></name>
    <trkseg>
      <trkpt lat="45.24922" lon="0.41976">
        <ele>65</ele>
        <time>2015-11-17T13:01:11Z</time>
      </trkpt>
      <trkpt lat="45.24921" lon="0.4197">
        <ele>66</ele>
        <time>2015-11-17T13:01:26Z</time>
      </trkpt>
      <trkpt lat="45.24921" lon="0.41958">
        <ele>68</ele>
        <time>2015-11-17T13:01:31Z</time>
      </trkpt>
      <trkpt lat="45.24919" lon="0.41949">
        <ele>68</ele>
        <time>2015-11-17T13:01:36Z</time>
      </trkpt>
      <trkpt lat="45.24921" lon="0.41942">
        <ele>68</ele>
        <time>2015-11-17T13:01:40Z</time>
      </trkpt>
      <trkpt lat="45.2492" lon="0.41932">
        <ele>69</ele>
        <time>2015-11-17T13:01:45Z</time>
      </trkpt>
      <trkpt lat="45.24921" lon="0.41925">
        <ele>70</ele>
        <time>2015-11-17T13:01:49Z</time>
      </trkpt>
      <trkpt lat="45.2492" lon="0.4192">
        <ele>70</ele>
        <time>2015-11-17T13:01:53Z</time>
      </trkpt>
      <trkpt lat="45.24922" lon="0.4191">
        <ele>70</ele>
        <time>2015-11-17T13:01:57Z</time>
      </trkpt>
      <trkpt lat="45.24918" lon="0.41906">
        <ele>70</ele>
        <time>2015-11-17T13:02:02Z</time>
      </trkpt>
      <trkpt lat="45.24922" lon="0.41896">
        <ele>70</ele>
        <time>2015-11-17T13:02:06Z</time>
      </trkpt>
      <trkpt lat="45.24919" lon="0.41891">
        <ele>72</ele>
        <time>2015-11-17T13:02:10Z</time>
      </trkpt>
      <trkpt lat="45.24916" lon="0.41885">
        <ele>73</ele>
        <time>2015-11-17T13:02:14Z</time>
      </trkpt>
      <trkpt lat="45.24919" lon="0.41876">
        <ele>74</ele>
        <time>2015-11-17T13:02:19Z</time>
      </trkpt>
      <trkpt lat="45.24918" lon="0.41868">
        <ele>76</ele>
        <time>2015-11-17T13:02:23Z</time>
      </trkpt>
      <trkpt lat="45.24917" lon="0.41861">
        <ele>75</ele>
        <time>2015-11-17T13:02:28Z</time>
      </trkpt>
      <trkpt lat="45.24917" lon="0.41849">
        <ele>73</ele>
        <time>2015-11-17T13:02:33Z</time>
      </trkpt>
      <trkpt lat="45.24917" lon="0.41841">
        <ele>73</ele>
        <time>2015-11-17T13:02:37Z</time>
      </trkpt>
      <trkpt lat="45.24918" lon="0.41832">
        <ele>71</ele>
        <time>2015-11-17T13:02:41Z</time>
      </trkpt>
      <trkpt lat="45.24918" lon="0.41826">
        <ele>71</ele>
        <time>2015-11-17T13:02:45Z</time>
      </trkpt>
      <trkpt lat="45.24919" lon="0.4182">
        <ele>70</ele>
        <time>2015-11-17T13:02:50Z</time>
      </trkpt>
      <trkpt lat="45.24922" lon="0.41816">
        <ele>69</ele>
        <time>2015-11-17T13:02:55Z</time>
      </trkpt>
      <trkpt lat="45.24926" lon="0.41813">
        <ele>70</ele>
        <time>2015-11-17T13:02:59Z</time>
      </trkpt>
      <trkpt lat="45.24932" lon="0.4181">
        <ele>70</ele>
        <time>2015-11-17T13:03:04Z</time>
      </trkpt>
      <trkpt lat="45.24937" lon="0.41808">
        <ele>71</ele>
        <time>2015-11-17T13:03:09Z</time>
      </trkpt>
      <trkpt lat="45.24943" lon="0.41809">
        <ele>69</ele>
        <time>2015-11-17T13:03:14Z</time>
      </trkpt>
      <trkpt lat="45.24947" lon="0.41808">
        <ele>69</ele>
        <time>2015-11-17T13:03:18Z</time>
      </trkpt>
      <trkpt lat="45.24954" lon="0.41807">
        <ele>68</ele>
        <time>2015-11-17T13:03:23Z</time>
      </trkpt>
      <trkpt lat="45.24959" lon="0.41807">
        <ele>68</ele>
        <time>2015-11-17T13:03:28Z</time>
      </trkpt>
      <trkpt lat="45.24964" lon="0.41803">
        <ele>66</ele>
        <time>2015-11-17T13:03:33Z</time>
      </trkpt>
      <trkpt lat="45.24968" lon="0.41803">
        <ele>65</ele>
        <time>2015-11-17T13:03:38Z</time>
      </trkpt>
      <trkpt lat="45.24972" lon="0.41803">
        <ele>65</ele>
        <time>2015-11-17T13:03:42Z</time>
      </trkpt>
      <trkpt lat="45.24977" lon="0.41801">
        <ele>65</ele>
        <time>2015-11-17T13:03:46Z</time>
      </trkpt>
      <trkpt lat="45.24983" lon="0.41801">
        <ele>64</ele>
        <time>2015-11-17T13:03:51Z</time>
      </trkpt>
      <trkpt lat="45.24987" lon="0.41799">
        <ele>64</ele>
        <time>2015-11-17T13:03:55Z</time>
      </trkpt>
      <trkpt lat="45.24992" lon="0.41798">
        <ele>66</ele>
        <time>2015-11-17T13:04:00Z</time>
      </trkpt>
      <trkpt lat="45.24996" lon="0.41795">
        <ele>66</ele>
        <time>2015-11-17T13:04:04Z</time>
      </trkpt>
      <trkpt lat="45.25001" lon="0.41793">
        <ele>65</ele>
        <time>2015-11-17T13:04:09Z</time>
      </trkpt>
      <trkpt lat="45.25005" lon="0.41791">
        <ele>66</ele>
        <time>2015-11-17T13:04:13Z</time>
      </trkpt>
      <trkpt lat="45.25011" lon="0.41791">
        <ele>67</ele>
        <time>2015-11-17T13:04:18Z</time>
      </trkpt>
      <trkpt lat="45.25015" lon="0.41789">
        <ele>67</ele>
        <time>2015-11-17T13:04:22Z</time>
      </trkpt>
      <trkpt lat="45.25019" lon="0.41787">
        <ele>67</ele>
        <time>2015-11-17T13:04:26Z</time>
      </trkpt>
      <trkpt lat="45.25023" lon="0.41785">
        <ele>68</ele>
        <time>2015-11-17T13:04:30Z</time>
      </trkpt>
      <trkpt lat="45.25027" lon="0.41782">
        <ele>68</ele>
        <time>2015-11-17T13:04:34Z</time>
      </trkpt>
      <trkpt lat="45.25031" lon="0.4178">
        <ele>66</ele>
        <time>2015-11-17T13:04:38Z</time>
      </trkpt>
      <trkpt lat="45.25035" lon="0.41777">
        <ele>66</ele>
        <time>2015-11-17T13:04:42Z</time>
      </trkpt>
      <trkpt lat="45.25039" lon="0.41775">
        <ele>67</ele>
        <time>2015-11-17T13:04:46Z</time>
      </trkpt>
      <trkpt lat="45.25045" lon="0.41773">
        <ele>68</ele>
        <time>2015-11-17T13:04:50Z</time>
      </trkpt>
      <trkpt lat="45.25048" lon="0.41771">
        <ele>69</ele>
        <time>2015-11-17T13:04:54Z</time>
      </trkpt>
      <trkpt lat="45.25053" lon="0.4177">
        <ele>68</ele>
        <time>2015-11-17T13:04:58Z</time>
      </trkpt>
      <trkpt lat="45.25057" lon="0.4177">
        <ele>67</ele>
        <time>2015-11-17T13:05:03Z</time>
      </trkpt>
      <trkpt lat="45.2506" lon="0.41771">
        <ele>70</ele>
        <time>2015-11-17T13:05:10Z</time>
      </trkpt>
      <trkpt lat="45.25064" lon="0.41772">
        <ele>71</ele>
        <time>2015-11-17T13:05:14Z</time>
      </trkpt>
      <trkpt lat="45.25068" lon="0.41773">
        <ele>71</ele>
        <time>2015-11-17T13:05:20Z</time>
      </trkpt>
      <trkpt lat="45.25073" lon="0.41772">
        <ele>72</ele>
        <time>2015-11-17T13:05:24Z</time>
      </trkpt>
      <trkpt lat="45.25081" lon="0.4177">
        <ele>72</ele>
        <time>2015-11-17T13:05:29Z</time>
      </trkpt>
      <trkpt lat="45.25086" lon="0.41767">
        <ele>74</ele>
        <time>2015-11-17T13:05:33Z</time>
      </trkpt>
      <trkpt lat="45.2509" lon="0.41766">
        <ele>76</ele>
        <time>2015-11-17T13:05:39Z</time>
      </trkpt>
      <trkpt lat="45.25098" lon="0.41765">
        <ele>74</ele>
        <time>2015-11-17T13:05:44Z</time>
      </trkpt>
      <trkpt lat="45.25105" lon="0.41763">
        <ele>71</ele>
        <time>2015-11-17T13:05:48Z</time>
      </trkpt>
      <trkpt lat="45.25112" lon="0.4176">
        <ele>70</ele>
        <time>2015-11-17T13:05:53Z</time>
      </trkpt>
      <trkpt lat="45.25119" lon="0.41756">
        <ele>71</ele>
        <time>2015-11-17T13:05:58Z</time>
      </trkpt>
      <trkpt lat="45.25125" lon="0.41755">
        <ele>69</ele>
        <time>2015-11-17T13:06:02Z</time>
      </trkpt>
      <trkpt lat="45.2513" lon="0.41753">
        <ele>69</ele>
        <time>2015-11-17T13:06:06Z</time>
      </trkpt>
      <trkpt lat="45.25134" lon="0.41755">
        <ele>72</ele>
        <time>2015-11-17T13:06:11Z</time>
      </trkpt>
      <trkpt lat="45.25138" lon="0.41759">
        <ele>72</ele>
        <time>2015-11-17T13:06:16Z</time>
      </trkpt>
      <trkpt lat="45.25142" lon="0.41758">
        <ele>73</ele>
        <time>2015-11-17T13:06:20Z</time>
      </trkpt>
      <trkpt lat="45.25146" lon="0.41758">
        <ele>74</ele>
        <time>2015-11-17T13:06:26Z</time>
      </trkpt>
      <trkpt lat="45.25153" lon="0.41755">
        <ele>75</ele>
        <time>2015-11-17T13:06:31Z</time>
      </trkpt>
      <trkpt lat="45.25159" lon="0.41754">
        <ele>74</ele>
        <time>2015-11-17T13:06:35Z</time>
      </trkpt>
      <trkpt lat="45.25165" lon="0.41754">
        <ele>74</ele>
        <time>2015-11-17T13:06:40Z</time>
      </trkpt>
      <trkpt lat="45.25173" lon="0.41753">
        <ele>76</ele>
        <time>2015-11-17T13:06:45Z</time>
      </trkpt>
      <trkpt lat="45.25176" lon="0.41753">
        <ele>79</ele>
        <time>2015-11-17T13:06:49Z</time>
      </trkpt>
      <trkpt lat="45.25182" lon="0.4175">
        <ele>80</ele>
        <time>2015-11-17T13:06:54Z</time>
      </trkpt>
      <trkpt lat="45.25189" lon="0.41748">
        <ele>78</ele>
        <time>2015-11-17T13:06:59Z</time>
      </trkpt>
      <trkpt lat="45.25195" lon="0.41748">
        <ele>76</ele>
        <time>2015-11-17T13:07:04Z</time>
      </trkpt>
      <trkpt lat="45.25201" lon="0.41745">
        <ele>76</ele>
        <time>2015-11-17T13:07:08Z</time>
      </trkpt>
      <trkpt lat="45.25206" lon="0.41744">
        <ele>75</ele>
        <time>2015-11-17T13:07:12Z</time>
      </trkpt>
      <trkpt lat="45.25211" lon="0.41742">
        <ele>73</ele>
        <time>2015-11-17T13:07:17Z</time>
      </trkpt>
      <trkpt lat="45.25215" lon="0.41742">
        <ele>73</ele>
        <time>2015-11-17T13:07:23Z</time>
      </trkpt>
      <trkpt lat="45.2522" lon="0.41743">
        <ele>72</ele>
        <time>2015-11-17T13:07:32Z</time>
      </trkpt>
      <trkpt lat="45.25222" lon="0.41741">
        <ele>71</ele>
        <time>2015-11-17T13:07:37Z</time>
      </trkpt>
      <trkpt lat="45.25226" lon="0.41738">
        <ele>69</ele>
        <time>2015-11-17T13:07:41Z</time>
      </trkpt>
      <trkpt lat="45.25232" lon="0.41733">
        <ele>67</ele>
        <time>2015-11-17T13:07:45Z</time>
      </trkpt>
      <trkpt lat="45.25236" lon="0.41732">
        <ele>68</ele>
        <time>2015-11-17T13:07:53Z</time>
      </trkpt>
      <trkpt lat="45.25244" lon="0.41735">
        <ele>73</ele>
        <time>2015-11-17T13:07:58Z</time>
      </trkpt>
      <trkpt lat="45.25251" lon="0.41731">
        <ele>70</ele>
        <time>2015-11-17T13:08:02Z</time>
      </trkpt>
      <trkpt lat="45.25258" lon="0.41729">
        <ele>69</ele>
        <time>2015-11-17T13:08:07Z</time>
      </trkpt>
      <trkpt lat="45.25262" lon="0.41731">
        <ele>69</ele>
        <time>2015-11-17T13:08:11Z</time>
      </trkpt>
      <trkpt lat="45.25266" lon="0.41729">
        <ele>68</ele>
        <time>2015-11-17T13:08:20Z</time>
      </trkpt>
      <trkpt lat="45.25268" lon="0.41725">
        <ele>67</ele>
        <time>2015-11-17T13:08:24Z</time>
      </trkpt>
      <trkpt lat="45.25274" lon="0.41717">
        <ele>66</ele>
        <time>2015-11-17T13:08:28Z</time>
      </trkpt>
      <trkpt lat="45.25278" lon="0.41706">
        <ele>66</ele>
        <time>2015-11-17T13:08:32Z</time>
      </trkpt>
      <trkpt lat="45.25284" lon="0.41697">
        <ele>66</ele>
        <time>2015-11-17T13:08:37Z</time>
      </trkpt>
      <trkpt lat="45.25286" lon="0.41693">
        <ele>67</ele>
        <time>2015-11-17T13:08:42Z</time>
      </trkpt>
      <trkpt lat="45.25288" lon="0.4169">
        <ele>67</ele>
        <time>2015-11-17T13:08:46Z</time>
      </trkpt>
      <trkpt lat="45.25289" lon="0.41679">
        <ele>68</ele>
        <time>2015-11-17T13:08:51Z</time>
      </trkpt>
      <trkpt lat="45.25291" lon="0.41674">
        <ele>71</ele>
        <time>2015-11-17T13:08:56Z</time>
      </trkpt>
      <trkpt lat="45.2529" lon="0.41666">
        <ele>70</ele>
        <time>2015-11-17T13:09:01Z</time>
      </trkpt>
      <trkpt lat="45.25285" lon="0.41661">
        <ele>71</ele>
        <time>2015-11-17T13:09:05Z</time>
      </trkpt>
      <trkpt lat="45.25286" lon="0.41655">
        <ele>73</ele>
        <time>2015-11-17T13:09:10Z</time>
      </trkpt>
      <trkpt lat="45.25288" lon="0.41648">
        <ele>74</ele>
        <time>2015-11-17T13:09:15Z</time>
      </trkpt>
      <trkpt lat="45.25286" lon="0.41644">
        <ele>77</ele>
        <time>2015-11-17T13:09:20Z</time>
      </trkpt>
      <trkpt lat="45.25283" lon="0.41637">
        <ele>77</ele>
        <time>2015-11-17T13:09:24Z</time>
      </trkpt>
      <trkpt lat="45.25281" lon="0.41631">
        <ele>77</ele>
        <time>2015-11-17T13:09:28Z</time>
      </trkpt>
      <trkpt lat="45.25279" lon="0.41625">
        <ele>76</ele>
        <time>2015-11-17T13:09:32Z</time>
      </trkpt>
      <trkpt lat="45.25275" lon="0.41618">
        <ele>74</ele>
        <time>2015-11-17T13:09:36Z</time>
      </trkpt>
      <trkpt lat="45.25271" lon="0.41612">
        <ele>74</ele>
        <time>2015-11-17T13:09:41Z</time>
      </trkpt>
      <trkpt lat="45.25267" lon="0.41609">
        <ele>74</ele>
        <time>2015-11-17T13:09:45Z</time>
      </trkpt>
      <trkpt lat="45.25269" lon="0.41605">
        <ele>70</ele>
        <time>2015-11-17T13:09:58Z</time>
      </trkpt>
      <trkpt lat="45.25272" lon="0.416">
        <ele>69</ele>
        <time>2015-11-17T13:10:06Z</time>
      </trkpt>
      <trkpt lat="45.25276" lon="0.41596">
        <ele>70</ele>
        <time>2015-11-17T13:10:13Z</time>
      </trkpt>
      <trkpt lat="45.25279" lon="0.41594">
        <ele>70</ele>
        <time>2015-11-17T13:10:17Z</time>
      </trkpt>
      <trkpt lat="45.25284" lon="0.41591">
        <ele>70</ele>
        <time>2015-11-17T13:10:22Z</time>
      </trkpt>
      <trkpt lat="45.25288" lon="0.41588">
        <ele>69</ele>
        <time>2015-11-17T13:10:26Z</time>
      </trkpt>
      <trkpt lat="45.25292" lon="0.41585">
        <ele>70</ele>
        <time>2015-11-17T13:10:34Z</time>
      </trkpt>
      <trkpt lat="45.25296" lon="0.41582">
        <ele>71</ele>
        <time>2015-11-17T13:10:38Z</time>
      </trkpt>
      <trkpt lat="45.25298" lon="0.41581">
        <ele>72</ele>
        <time>2015-11-17T13:10:42Z</time>
      </trkpt>
      <trkpt lat="45.25306" lon="0.41577">
        <ele>72</ele>
        <time>2015-11-17T13:10:47Z</time>
      </trkpt>
      <trkpt lat="45.25308" lon="0.41576">
        <ele>72</ele>
        <time>2015-11-17T13:10:59Z</time>
      </trkpt>
      <trkpt lat="45.25315" lon="0.41573">
        <ele>75</ele>
        <time>2015-11-17T13:11:03Z</time>
      </trkpt>
      <trkpt lat="45.25321" lon="0.41566">
        <ele>76</ele>
        <time>2015-11-17T13:11:07Z</time>
      </trkpt>
      <trkpt lat="45.25325" lon="0.41561">
        <ele>76</ele>
        <time>2015-11-17T13:11:11Z</time>
      </trkpt>
      <trkpt lat="45.2533" lon="0.41558">
        <ele>75</ele>
        <time>2015-11-17T13:11:16Z</time>
      </trkpt>
      <trkpt lat="45.25336" lon="0.41553">
        <ele>73</ele>
        <time>2015-11-17T13:11:21Z</time>
      </trkpt>
      <trkpt lat="45.25339" lon="0.41548">
        <ele>73</ele>
        <time>2015-11-17T13:11:25Z</time>
      </trkpt>
      <trkpt lat="45.25343" lon="0.41546">
        <ele>73</ele>
        <time>2015-11-17T13:11:29Z</time>
      </trkpt>
      <trkpt lat="45.25348" lon="0.41543">
        <ele>75</ele>
        <time>2015-11-17T13:11:33Z</time>
      </trkpt>
      <trkpt lat="45.25352" lon="0.4154">
        <ele>76</ele>
        <time>2015-11-17T13:11:38Z</time>
      </trkpt>
      <trkpt lat="45.25356" lon="0.41539">
        <ele>77</ele>
        <time>2015-11-17T13:11:45Z</time>
      </trkpt>
      <trkpt lat="45.2536" lon="0.41536">
        <ele>76</ele>
        <time>2015-11-17T13:11:55Z</time>
      </trkpt>
      <trkpt lat="45.25362" lon="0.41535">
        <ele>76</ele>
        <time>2015-11-17T13:12:07Z</time>
      </trkpt>
      <trkpt lat="45.25366" lon="0.41527">
        <ele>76</ele>
        <time>2015-11-17T13:12:12Z</time>
      </trkpt>
      <trkpt lat="45.25369" lon="0.41522">
        <ele>76</ele>
        <time>2015-11-17T13:12:17Z</time>
      </trkpt>
      <trkpt lat="45.25372" lon="0.41519">
        <ele>73</ele>
        <time>2015-11-17T13:12:22Z</time>
      </trkpt>
      <trkpt lat="45.25375" lon="0.41515">
        <ele>72</ele>
        <time>2015-11-17T13:12:28Z</time>
      </trkpt>
      <trkpt lat="45.25378" lon="0.4151">
        <ele>72</ele>
        <time>2015-11-17T13:12:33Z</time>
      </trkpt>
      <trkpt lat="45.25382" lon="0.41507">
        <ele>73</ele>
        <time>2015-11-17T13:12:37Z</time>
      </trkpt>
      <trkpt lat="45.25385" lon="0.41504">
        <ele>76</ele>
        <time>2015-11-17T13:12:41Z</time>
      </trkpt>
      <trkpt lat="45.25389" lon="0.415">
        <ele>77</ele>
        <time>2015-11-17T13:12:46Z</time>
      </trkpt>
      <trkpt lat="45.25392" lon="0.41497">
        <ele>76</ele>
        <time>2015-11-17T13:12:51Z</time>
      </trkpt>
      <trkpt lat="45.25396" lon="0.41495">
        <ele>76</ele>
        <time>2015-11-17T13:12:56Z</time>
      </trkpt>
      <trkpt lat="45.254" lon="0.41492">
        <ele>75</ele>
        <time>2015-11-17T13:13:01Z</time>
      </trkpt>
      <trkpt lat="45.25404" lon="0.41491">
        <ele>78</ele>
        <time>2015-11-17T13:13:07Z</time>
      </trkpt>
      <trkpt lat="45.25409" lon="0.41488">
        <ele>77</ele>
        <time>2015-11-17T13:13:11Z</time>
      </trkpt>
      <trkpt lat="45.25415" lon="0.41483">
        <ele>74</ele>
        <time>2015-11-17T13:13:15Z</time>
      </trkpt>
      <trkpt lat="45.25421" lon="0.41484">
        <ele>75</ele>
        <time>2015-11-17T13:13:19Z</time>
      </trkpt>
      <trkpt lat="45.25424" lon="0.41483">
        <ele>73</ele>
        <time>2015-11-17T13:13:24Z</time>
      </trkpt>
      <trkpt lat="45.25428" lon="0.41481">
        <ele>72</ele>
        <time>2015-11-17T13:13:30Z</time>
      </trkpt>
      <trkpt lat="45.25434" lon="0.41477">
        <ele>72</ele>
        <time>2015-11-17T13:13:34Z</time>
      </trkpt>
      <trkpt lat="45.25438" lon="0.41474">
        <ele>72</ele>
        <time>2015-11-17T13:13:38Z</time>
      </trkpt>
      <trkpt lat="45.25443" lon="0.41471">
        <ele>72</ele>
        <time>2015-11-17T13:13:43Z</time>
      </trkpt>
      <trkpt lat="45.25448" lon="0.41465">
        <ele>72</ele>
        <time>2015-11-17T13:13:47Z</time>
      </trkpt>
      <trkpt lat="45.25453" lon="0.41461">
        <ele>71</ele>
        <time>2015-11-17T13:13:51Z</time>
      </trkpt>
      <trkpt lat="45.25461" lon="0.41461">
        <ele>75</ele>
        <time>2015-11-17T13:13:56Z</time>
      </trkpt>
      <trkpt lat="45.25465" lon="0.41457">
        <ele>75</ele>
        <time>2015-11-17T13:14:00Z</time>
      </trkpt>
      <trkpt lat="45.2547" lon="0.41459">
        <ele>77</ele>
        <time>2015-11-17T13:14:07Z</time>
      </trkpt>
      <trkpt lat="45.25475" lon="0.41456">
        <ele>77</ele>
        <time>2015-11-17T13:14:12Z</time>
      </trkpt>
      <trkpt lat="45.25479" lon="0.41457">
        <ele>81</ele>
        <time>2015-11-17T13:14:16Z</time>
      </trkpt>
      <trkpt lat="45.25484" lon="0.41461">
        <ele>79</ele>
        <time>2015-11-17T13:14:21Z</time>
      </trkpt>
      <trkpt lat="45.25487" lon="0.41466">
        <ele>80</ele>
        <time>2015-11-17T13:14:25Z</time>
      </trkpt>
      <trkpt lat="45.2549" lon="0.41469">
        <ele>81</ele>
        <time>2015-11-17T13:14:29Z</time>
      </trkpt>
      <trkpt lat="45.25494" lon="0.41472">
        <ele>81</ele>
        <time>2015-11-17T13:14:33Z</time>
      </trkpt>
      <trkpt lat="45.25495" lon="0.41478">
        <ele>81</ele>
        <time>2015-11-17T13:14:37Z</time>
      </trkpt>
      <trkpt lat="45.25497" lon="0.41483">
        <ele>78</ele>
        <time>2015-11-17T13:14:41Z</time>
      </trkpt>
      <trkpt lat="45.25501" lon="0.41489">
        <ele>77</ele>
        <time>2015-11-17T13:14:46Z</time>
      </trkpt>
      <trkpt lat="45.25501" lon="0.41495">
        <ele>78</ele>
        <time>2015-11-17T13:14:50Z</time>
      </trkpt>
      <trkpt lat="45.25508" lon="0.415">
        <ele>75</ele>
        <time>2015-11-17T13:14:54Z</time>
      </trkpt>
      <trkpt lat="45.25514" lon="0.41507">
        <ele>75</ele>
        <time>2015-11-17T13:14:59Z</time>
      </trkpt>
      <trkpt lat="45.25518" lon="0.41514">
        <ele>75</ele>
        <time>2015-11-17T13:15:04Z</time>
      </trkpt>
      <trkpt lat="45.25521" lon="0.41519">
        <ele>77</ele>
        <time>2015-11-17T13:15:08Z</time>
      </trkpt>
      <trkpt lat="45.25525" lon="0.41524">
        <ele>77</ele>
        <time>2015-11-17T13:15:13Z</time>
      </trkpt>
      <trkpt lat="45.25529" lon="0.41528">
        <ele>78</ele>
        <time>2015-11-17T13:15:17Z</time>
      </trkpt>
      <trkpt lat="45.25528" lon="0.41533">
        <ele>80</ele>
        <time>2015-11-17T13:15:21Z</time>
      </trkpt>
      <trkpt lat="45.2553" lon="0.4154">
        <ele>81</ele>
        <time>2015-11-17T13:15:25Z</time>
      </trkpt>
      <trkpt lat="45.25535" lon="0.41543">
        <ele>78</ele>
        <time>2015-11-17T13:15:29Z</time>
      </trkpt>
      <trkpt lat="45.25538" lon="0.41548">
        <ele>79</ele>
        <time>2015-11-17T13:15:33Z</time>
      </trkpt>
      <trkpt lat="45.25543" lon="0.41555">
        <ele>80</ele>
        <time>2015-11-17T13:15:38Z</time>
      </trkpt>
      <trkpt lat="45.25547" lon="0.41561">
        <ele>81</ele>
        <time>2015-11-17T13:15:42Z</time>
      </trkpt>
      <trkpt lat="45.25551" lon="0.41566">
        <ele>81</ele>
        <time>2015-11-17T13:15:46Z</time>
      </trkpt>
      <trkpt lat="45.25553" lon="0.41571">
        <ele>86</ele>
        <time>2015-11-17T13:15:50Z</time>
      </trkpt>
      <trkpt lat="45.25558" lon="0.41576">
        <ele>86</ele>
        <time>2015-11-17T13:15:54Z</time>
      </trkpt>
      <trkpt lat="45.25561" lon="0.41581">
        <ele>85</ele>
        <time>2015-11-17T13:15:58Z</time>
      </trkpt>
      <trkpt lat="45.25566" lon="0.41587">
        <ele>87</ele>
        <time>2015-11-17T13:16:03Z</time>
      </trkpt>
      <trkpt lat="45.2557" lon="0.4159">
        <ele>84</ele>
        <time>2015-11-17T13:16:07Z</time>
      </trkpt>
      <trkpt lat="45.25573" lon="0.41596">
        <ele>85</ele>
        <time>2015-11-17T13:16:11Z</time>
      </trkpt>
      <trkpt lat="45.25579" lon="0.41601">
        <ele>83</ele>
        <time>2015-11-17T13:16:15Z</time>
      </trkpt>
      <trkpt lat="45.25584" lon="0.41605">
        <ele>81</ele>
        <time>2015-11-17T13:16:20Z</time>
      </trkpt>
      <trkpt lat="45.25586" lon="0.41609">
        <ele>82</ele>
        <time>2015-11-17T13:16:25Z</time>
      </trkpt>
      <trkpt lat="45.25589" lon="0.41617">
        <ele>81</ele>
        <time>2015-11-17T13:16:30Z</time>
      </trkpt>
      <trkpt lat="45.25593" lon="0.41622">
        <ele>82</ele>
        <time>2015-11-17T13:16:35Z</time>
      </trkpt>
      <trkpt lat="45.25599" lon="0.41625">
        <ele>80</ele>
        <time>2015-11-17T13:16:39Z</time>
      </trkpt>
      <trkpt lat="45.25603" lon="0.4163">
        <ele>79</ele>
        <time>2015-11-17T13:16:43Z</time>
      </trkpt>
      <trkpt lat="45.25607" lon="0.41636">
        <ele>79</ele>
        <time>2015-11-17T13:16:47Z</time>
      </trkpt>
      <trkpt lat="45.2561" lon="0.41639">
        <ele>83</ele>
        <time>2015-11-17T13:16:52Z</time>
      </trkpt>
      <trkpt lat="45.25615" lon="0.41645">
        <ele>83</ele>
        <time>2015-11-17T13:16:57Z</time>
      </trkpt>
      <trkpt lat="45.25619" lon="0.41649">
        <ele>84</ele>
        <time>2015-11-17T13:17:01Z</time>
      </trkpt>
      <trkpt lat="45.25623" lon="0.41653">
        <ele>84</ele>
        <time>2015-11-17T13:17:05Z</time>
      </trkpt>
      <trkpt lat="45.25627" lon="0.41656">
        <ele>85</ele>
        <time>2015-11-17T13:17:09Z</time>
      </trkpt>
      <trkpt lat="45.2563" lon="0.41659">
        <ele>84</ele>
        <time>2015-11-17T13:17:13Z</time>
      </trkpt>
      <trkpt lat="45.25634" lon="0.41662">
        <ele>83</ele>
        <time>2015-11-17T13:17:17Z</time>
      </trkpt>
      <trkpt lat="45.25638" lon="0.41665">
        <ele>82</ele>
        <time>2015-11-17T13:17:21Z</time>
      </trkpt>
      <trkpt lat="45.25642" lon="0.41668">
        <ele>82</ele>
        <time>2015-11-17T13:17:25Z</time>
      </trkpt>
      <trkpt lat="45.25645" lon="0.41672">
        <ele>81</ele>
        <time>2015-11-17T13:17:29Z</time>
      </trkpt>
      <trkpt lat="45.25648" lon="0.41677">
        <ele>82</ele>
        <time>2015-11-17T13:17:33Z</time>
      </trkpt>
      <trkpt lat="45.25651" lon="0.4168">
        <ele>81</ele>
        <time>2015-11-17T13:17:37Z</time>
      </trkpt>
      <trkpt lat="45.25654" lon="0.41685">
        <ele>80</ele>
        <time>2015-11-17T13:17:41Z</time>
      </trkpt>
      <trkpt lat="45.25658" lon="0.41689">
        <ele>82</ele>
        <time>2015-11-17T13:17:46Z</time>
      </trkpt>
      <trkpt lat="45.25662" lon="0.41693">
        <ele>81</ele>
        <time>2015-11-17T13:17:50Z</time>
      </trkpt>
      <trkpt lat="45.25667" lon="0.41697">
        <ele>81</ele>
        <time>2015-11-17T13:17:54Z</time>
      </trkpt>
      <trkpt lat="45.25672" lon="0.41702">
        <ele>80</ele>
        <time>2015-11-17T13:17:59Z</time>
      </trkpt>
      <trkpt lat="45.25676" lon="0.41707">
        <ele>80</ele>
        <time>2015-11-17T13:18:04Z</time>
      </trkpt>
      <trkpt lat="45.2568" lon="0.41711">
        <ele>81</ele>
        <time>2015-11-17T13:18:08Z</time>
      </trkpt>
      <trkpt lat="45.25684" lon="0.41716">
        <ele>80</ele>
        <time>2015-11-17T13:18:13Z</time>
      </trkpt>
      <trkpt lat="45.25689" lon="0.41718">
        <ele>81</ele>
        <time>2015-11-17T13:18:17Z</time>
      </trkpt>
      <trkpt lat="45.25691" lon="0.41722">
        <ele>81</ele>
        <time>2015-11-17T13:18:21Z</time>
      </trkpt>
      <trkpt lat="45.25695" lon="0.41726">
        <ele>82</ele>
        <time>2015-11-17T13:18:25Z</time>
      </trkpt>
      <trkpt lat="45.25698" lon="0.41731">
        <ele>81</ele>
        <time>2015-11-17T13:18:29Z</time>
      </trkpt>
      <trkpt lat="45.25703" lon="0.41737">
        <ele>81</ele>
        <time>2015-11-17T13:18:34Z</time>
      </trkpt>
      <trkpt lat="45.25707" lon="0.4174">
        <ele>83</ele>
        <time>2015-11-17T13:18:38Z</time>
      </trkpt>
      <trkpt lat="45.25711" lon="0.41743">
        <ele>83</ele>
        <time>2015-11-17T13:18:42Z</time>
      </trkpt>
      <trkpt lat="45.25714" lon="0.41747">
        <ele>82</ele>
        <time>2015-11-17T13:18:46Z</time>
      </trkpt>
      <trkpt lat="45.25718" lon="0.41751">
        <ele>83</ele>
        <time>2015-11-17T13:18:51Z</time>
      </trkpt>
      <trkpt lat="45.25723" lon="0.41756">
        <ele>84</ele>
        <time>2015-11-17T13:18:56Z</time>
      </trkpt>
      <trkpt lat="45.25728" lon="0.41761">
        <ele>82</ele>
        <time>2015-11-17T13:19:01Z</time>
      </trkpt>
      <trkpt lat="45.25731" lon="0.41765">
        <ele>82</ele>
        <time>2015-11-17T13:19:05Z</time>
      </trkpt>
      <trkpt lat="45.25734" lon="0.41769">
        <ele>82</ele>
        <time>2015-11-17T13:19:09Z</time>
      </trkpt>
      <trkpt lat="45.25739" lon="0.41774">
        <ele>82</ele>
        <time>2015-11-17T13:19:14Z</time>
      </trkpt>
      <trkpt lat="45.25741" lon="0.4178">
        <ele>82</ele>
        <time>2015-11-17T13:19:18Z</time>
      </trkpt>
      <trkpt lat="45.25745" lon="0.41785">
        <ele>81</ele>
        <time>2015-11-17T13:19:22Z</time>
      </trkpt>
      <trkpt lat="45.25748" lon="0.41788">
        <ele>80</ele>
        <time>2015-11-17T13:19:26Z</time>
      </trkpt>
      <trkpt lat="45.25751" lon="0.41792">
        <ele>80</ele>
        <time>2015-11-17T13:19:30Z</time>
      </trkpt>
      <trkpt lat="45.25754" lon="0.41796">
        <ele>81</ele>
        <time>2015-11-17T13:19:34Z</time>
      </trkpt>
      <trkpt lat="45.25757" lon="0.41802">
        <ele>81</ele>
        <time>2015-11-17T13:19:38Z</time>
      </trkpt>
      <trkpt lat="45.25761" lon="0.41807">
        <ele>81</ele>
        <time>2015-11-17T13:19:42Z</time>
      </trkpt>
      <trkpt lat="45.25762" lon="0.41814">
        <ele>80</ele>
        <time>2015-11-17T13:19:47Z</time>
      </trkpt>
      <trkpt lat="45.25764" lon="0.41819">
        <ele>84</ele>
        <time>2015-11-17T13:19:51Z</time>
      </trkpt>
      <trkpt lat="45.25766" lon="0.41824">
        <ele>84</ele>
        <time>2015-11-17T13:19:55Z</time>
      </trkpt>
      <trkpt lat="45.25768" lon="0.41828">
        <ele>83</ele>
        <time>2015-11-17T13:19:59Z</time>
      </trkpt>
      <trkpt lat="45.25772" lon="0.41834">
        <ele>81</ele>
        <time>2015-11-17T13:20:04Z</time>
      </trkpt>
      <trkpt lat="45.25775" lon="0.41838">
        <ele>82</ele>
        <time>2015-11-17T13:20:08Z</time>
      </trkpt>
      <trkpt lat="45.25779" lon="0.41843">
        <ele>85</ele>
        <time>2015-11-17T13:20:13Z</time>
      </trkpt>
      <trkpt lat="45.25782" lon="0.41847">
        <ele>87</ele>
        <time>2015-11-17T13:20:17Z</time>
      </trkpt>
      <trkpt lat="45.25788" lon="0.41853">
        <ele>86</ele>
        <time>2015-11-17T13:20:22Z</time>
      </trkpt>
      <trkpt lat="45.25792" lon="0.41858">
        <ele>85</ele>
        <time>2015-11-17T13:20:26Z</time>
      </trkpt>
      <trkpt lat="45.25796" lon="0.4186">
        <ele>85</ele>
        <time>2015-11-17T13:20:30Z</time>
      </trkpt>
      <trkpt lat="45.25801" lon="0.41864">
        <ele>86</ele>
        <time>2015-11-17T13:20:34Z</time>
      </trkpt>
      <trkpt lat="45.25805" lon="0.41866">
        <ele>86</ele>
        <time>2015-11-17T13:20:38Z</time>
      </trkpt>
      <trkpt lat="45.25809" lon="0.41864">
        <ele>85</ele>
        <time>2015-11-17T13:20:42Z</time>
      </trkpt>
      <trkpt lat="45.2581" lon="0.41856">
        <ele>83</ele>
        <time>2015-11-17T13:20:46Z</time>
      </trkpt>
      <trkpt lat="45.25812" lon="0.41849">
        <ele>83</ele>
        <time>2015-11-17T13:20:50Z</time>
      </trkpt>
      <trkpt lat="45.25813" lon="0.41844">
        <ele>83</ele>
        <time>2015-11-17T13:20:54Z</time>
      </trkpt>
      <trkpt lat="45.25814" lon="0.41835">
        <ele>82</ele>
        <time>2015-11-17T13:20:59Z</time>
      </trkpt>
      <trkpt lat="45.25819" lon="0.41829">
        <ele>82</ele>
        <time>2015-11-17T13:21:03Z</time>
      </trkpt>
      <trkpt lat="45.25822" lon="0.41821">
        <ele>80</ele>
        <time>2015-11-17T13:21:07Z</time>
      </trkpt>
      <trkpt lat="45.25825" lon="0.41814">
        <ele>81</ele>
        <time>2015-11-17T13:21:11Z</time>
      </trkpt>
      <trkpt lat="45.25826" lon="0.41807">
        <ele>80</ele>
        <time>2015-11-17T13:21:15Z</time>
      </trkpt>
      <trkpt lat="45.25825" lon="0.41802">
        <ele>79</ele>
        <time>2015-11-17T13:21:19Z</time>
      </trkpt>
      <trkpt lat="45.25827" lon="0.41793">
        <ele>79</ele>
        <time>2015-11-17T13:21:24Z</time>
      </trkpt>
      <trkpt lat="45.25828" lon="0.41786">
        <ele>79</ele>
        <time>2015-11-17T13:21:28Z</time>
      </trkpt>
      <trkpt lat="45.25829" lon="0.41778">
        <ele>79</ele>
        <time>2015-11-17T13:21:33Z</time>
      </trkpt>
      <trkpt lat="45.25831" lon="0.41771">
        <ele>79</ele>
        <time>2015-11-17T13:21:37Z</time>
      </trkpt>
      <trkpt lat="45.25832" lon="0.41765">
        <ele>79</ele>
        <time>2015-11-17T13:21:42Z</time>
      </trkpt>
      <trkpt lat="45.25833" lon="0.41758">
        <ele>79</ele>
        <time>2015-11-17T13:21:46Z</time>
      </trkpt>
      <trkpt lat="45.25832" lon="0.41751">
        <ele>78</ele>
        <time>2015-11-17T13:21:50Z</time>
      </trkpt>
      <trkpt lat="45.25833" lon="0.41745">
        <ele>78</ele>
        <time>2015-11-17T13:21:54Z</time>
      </trkpt>
      <trkpt lat="45.25834" lon="0.41738">
        <ele>78</ele>
        <time>2015-11-17T13:21:59Z</time>
      </trkpt>
      <trkpt lat="45.25835" lon="0.41733">
        <ele>79</ele>
        <time>2015-11-17T13:22:03Z</time>
      </trkpt>
      <trkpt lat="45.25836" lon="0.41727">
        <ele>79</ele>
        <time>2015-11-17T13:22:07Z</time>
      </trkpt>
      <trkpt lat="45.25836" lon="0.41722">
        <ele>79</ele>
        <time>2015-11-17T13:22:12Z</time>
      </trkpt>
      <trkpt lat="45.25838" lon="0.41727">
        <ele>84</ele>
        <time>2015-11-17T13:22:48Z</time>
      </trkpt>
      <trkpt lat="45.25841" lon="0.41724">
        <ele>87</ele>
        <time>2015-11-17T13:23:07Z</time>
      </trkpt>
      <trkpt lat="45.25846" lon="0.41724">
        <ele>85</ele>
        <time>2015-11-17T13:23:53Z</time>
      </trkpt>
      <trkpt lat="45.25849" lon="0.41727">
        <ele>85</ele>
        <time>2015-11-17T13:23:59Z</time>
      </trkpt>
      <trkpt lat="45.25852" lon="0.41732">
        <ele>86</ele>
        <time>2015-11-17T13:24:04Z</time>
      </trkpt>
      <trkpt lat="45.25855" lon="0.41736">
        <ele>86</ele>
        <time>2015-11-17T13:24:10Z</time>
      </trkpt>
      <trkpt lat="45.25858" lon="0.4174">
        <ele>86</ele>
        <time>2015-11-17T13:24:14Z</time>
      </trkpt>
      <trkpt lat="45.25861" lon="0.41745">
        <ele>84</ele>
        <time>2015-11-17T13:24:20Z</time>
      </trkpt>
      <trkpt lat="45.25863" lon="0.4175">
        <ele>84</ele>
        <time>2015-11-17T13:24:27Z</time>
      </trkpt>
      <trkpt lat="45.25865" lon="0.41756">
        <ele>86</ele>
        <time>2015-11-17T13:24:34Z</time>
      </trkpt>
      <trkpt lat="45.25867" lon="0.4176">
        <ele>87</ele>
        <time>2015-11-17T13:24:38Z</time>
      </trkpt>
      <trkpt lat="45.2587" lon="0.41764">
        <ele>86</ele>
        <time>2015-11-17T13:24:42Z</time>
      </trkpt>
      <trkpt lat="45.25872" lon="0.41769">
        <ele>87</ele>
        <time>2015-11-17T13:24:47Z</time>
      </trkpt>
      <trkpt lat="45.25875" lon="0.41774">
        <ele>87</ele>
        <time>2015-11-17T13:24:52Z</time>
      </trkpt>
      <trkpt lat="45.25876" lon="0.41778">
        <ele>88</ele>
        <time>2015-11-17T13:24:57Z</time>
      </trkpt>
      <trkpt lat="45.2588" lon="0.41781">
        <ele>89</ele>
        <time>2015-11-17T13:25:01Z</time>
      </trkpt>
      <trkpt lat="45.25884" lon="0.41781">
        <ele>88</ele>
        <time>2015-11-17T13:25:05Z</time>
      </trkpt>
      <trkpt lat="45.25888" lon="0.41782">
        <ele>87</ele>
        <time>2015-11-17T13:25:10Z</time>
      </trkpt>
      <trkpt lat="45.25893" lon="0.41783">
        <ele>87</ele>
        <time>2015-11-17T13:25:14Z</time>
      </trkpt>
      <trkpt lat="45.25896" lon="0.41784">
        <ele>87</ele>
        <time>2015-11-17T13:25:18Z</time>
      </trkpt>
      <trkpt lat="45.25901" lon="0.41783">
        <ele>87</ele>
        <time>2015-11-17T13:25:22Z</time>
      </trkpt>
      <trkpt lat="45.25904" lon="0.41785">
        <ele>86</ele>
        <time>2015-11-17T13:25:26Z</time>
      </trkpt>
      <trkpt lat="45.25908" lon="0.41784">
        <ele>86</ele>
        <time>2015-11-17T13:25:30Z</time>
      </trkpt>
      <trkpt lat="45.25912" lon="0.41784">
        <ele>86</ele>
        <time>2015-11-17T13:25:35Z</time>
      </trkpt>
      <trkpt lat="45.25916" lon="0.41783">
        <ele>87</ele>
        <time>2015-11-17T13:25:40Z</time>
      </trkpt>
      <trkpt lat="45.2592" lon="0.41783">
        <ele>87</ele>
        <time>2015-11-17T13:25:45Z</time>
      </trkpt>
      <trkpt lat="45.25924" lon="0.41783">
        <ele>88</ele>
        <time>2015-11-17T13:25:50Z</time>
      </trkpt>
      <trkpt lat="45.25928" lon="0.41782">
        <ele>88</ele>
        <time>2015-11-17T13:25:55Z</time>
      </trkpt>
      <trkpt lat="45.25932" lon="0.41782">
        <ele>88</ele>
        <time>2015-11-17T13:26:01Z</time>
      </trkpt>
      <trkpt lat="45.25936" lon="0.41781">
        <ele>89</ele>
        <time>2015-11-17T13:26:05Z</time>
      </trkpt>
      <trkpt lat="45.25939" lon="0.41783">
        <ele>91</ele>
        <time>2015-11-17T13:26:10Z</time>
      </trkpt>
      <trkpt lat="45.25943" lon="0.41783">
        <ele>91</ele>
        <time>2015-11-17T13:26:20Z</time>
      </trkpt>
      <trkpt lat="45.25949" lon="0.41784">
        <ele>93</ele>
        <time>2015-11-17T13:26:25Z</time>
      </trkpt>
      <trkpt lat="45.25951" lon="0.41785">
        <ele>93</ele>
        <time>2015-11-17T13:26:30Z</time>
      </trkpt>
      <trkpt lat="45.25956" lon="0.41783">
        <ele>92</ele>
        <time>2015-11-17T13:26:35Z</time>
      </trkpt>
      <trkpt lat="45.25961" lon="0.4178">
        <ele>91</ele>
        <time>2015-11-17T13:26:40Z</time>
      </trkpt>
      <trkpt lat="45.25966" lon="0.4178">
        <ele>90</ele>
        <time>2015-11-17T13:26:45Z</time>
      </trkpt>
      <trkpt lat="45.2597" lon="0.41782">
        <ele>93</ele>
        <time>2015-11-17T13:26:49Z</time>
      </trkpt>
      <trkpt lat="45.25975" lon="0.41782">
        <ele>94</ele>
        <time>2015-11-17T13:26:54Z</time>
      </trkpt>
      <trkpt lat="45.25979" lon="0.41781">
        <ele>94</ele>
        <time>2015-11-17T13:26:58Z</time>
      </trkpt>
      <trkpt lat="45.25983" lon="0.41782">
        <ele>95</ele>
        <time>2015-11-17T13:27:02Z</time>
      </trkpt>
      <trkpt lat="45.25987" lon="0.41782">
        <ele>95</ele>
        <time>2015-11-17T13:27:07Z</time>
      </trkpt>
      <trkpt lat="45.25991" lon="0.41781">
        <ele>95</ele>
        <time>2015-11-17T13:27:13Z</time>
      </trkpt>
      <trkpt lat="45.25995" lon="0.41781">
        <ele>95</ele>
        <time>2015-11-17T13:27:17Z</time>
      </trkpt>
      <trkpt lat="45.25999" lon="0.4178">
        <ele>94</ele>
        <time>2015-11-17T13:27:22Z</time>
      </trkpt>
      <trkpt lat="45.26004" lon="0.41779">
        <ele>95</ele>
        <time>2015-11-17T13:27:26Z</time>
      </trkpt>
      <trkpt lat="45.26008" lon="0.41778">
        <ele>96</ele>
        <time>2015-11-17T13:27:30Z</time>
      </trkpt>
      <trkpt lat="45.26013" lon="0.41779">
        <ele>97</ele>
        <time>2015-11-17T13:27:35Z</time>
      </trkpt>
      <trkpt lat="45.26018" lon="0.41775">
        <ele>97</ele>
        <time>2015-11-17T13:27:39Z</time>
      </trkpt>
      <trkpt lat="45.26022" lon="0.41771">
        <ele>96</ele>
        <time>2015-11-17T13:27:43Z</time>
      </trkpt>
      <trkpt lat="45.26025" lon="0.4177">
        <ele>97</ele>
        <time>2015-11-17T13:27:47Z</time>
      </trkpt>
      <trkpt lat="45.2603" lon="0.4177">
        <ele>97</ele>
        <time>2015-11-17T13:27:52Z</time>
      </trkpt>
      <trkpt lat="45.26034" lon="0.41766">
        <ele>97</ele>
        <time>2015-11-17T13:27:56Z</time>
      </trkpt>
      <trkpt lat="45.26038" lon="0.41766">
        <ele>96</ele>
        <time>2015-11-17T13:28:00Z</time>
      </trkpt>
      <trkpt lat="45.26042" lon="0.41764">
        <ele>96</ele>
        <time>2015-11-17T13:28:05Z</time>
      </trkpt>
      <trkpt lat="45.26046" lon="0.41761">
        <ele>97</ele>
        <time>2015-11-17T13:28:10Z</time>
      </trkpt>
      <trkpt lat="45.26049" lon="0.41761">
        <ele>98</ele>
        <time>2015-11-17T13:28:14Z</time>
      </trkpt>
      <trkpt lat="45.26053" lon="0.41759">
        <ele>98</ele>
        <time>2015-11-17T13:28:18Z</time>
      </trkpt>
      <trkpt lat="45.26057" lon="0.41758">
        <ele>98</ele>
        <time>2015-11-17T13:28:23Z</time>
      </trkpt>
      <trkpt lat="45.26061" lon="0.41756">
        <ele>98</ele>
        <time>2015-11-17T13:28:27Z</time>
      </trkpt>
      <trkpt lat="45.26065" lon="0.41754">
        <ele>98</ele>
        <time>2015-11-17T13:28:31Z</time>
      </trkpt>
      <trkpt lat="45.26069" lon="0.41753">
        <ele>99</ele>
        <time>2015-11-17T13:28:36Z</time>
      </trkpt>
      <trkpt lat="45.26073" lon="0.41749">
        <ele>97</ele>
        <time>2015-11-17T13:28:40Z</time>
      </trkpt>
      <trkpt lat="45.26078" lon="0.41749">
        <ele>97</ele>
        <time>2015-11-17T13:28:45Z</time>
      </trkpt>
      <trkpt lat="45.26082" lon="0.41749">
        <ele>98</ele>
        <time>2015-11-17T13:28:49Z</time>
      </trkpt>
      <trkpt lat="45.26086" lon="0.41748">
        <ele>99</ele>
        <time>2015-11-17T13:28:54Z</time>
      </trkpt>
      <trkpt lat="45.2609" lon="0.41749">
        <ele>99</ele>
        <time>2015-11-17T13:28:58Z</time>
      </trkpt>
      <trkpt lat="45.26093" lon="0.41748">
        <ele>99</ele>
        <time>2015-11-17T13:29:02Z</time>
      </trkpt>
      <trkpt lat="45.26097" lon="0.4175">
        <ele>100</ele>
        <time>2015-11-17T13:29:06Z</time>
      </trkpt>
      <trkpt lat="45.26101" lon="0.41751">
        <ele>100</ele>
        <time>2015-11-17T13:29:11Z</time>
      </trkpt>
      <trkpt lat="45.26104" lon="0.41754">
        <ele>100</ele>
        <time>2015-11-17T13:29:15Z</time>
      </trkpt>
      <trkpt lat="45.26108" lon="0.41756">
        <ele>101</ele>
        <time>2015-11-17T13:29:19Z</time>
      </trkpt>
      <trkpt lat="45.26114" lon="0.41757">
        <ele>101</ele>
        <time>2015-11-17T13:29:24Z</time>
      </trkpt>
      <trkpt lat="45.26119" lon="0.41757">
        <ele>101</ele>
        <time>2015-11-17T13:29:28Z</time>
      </trkpt>
      <trkpt lat="45.26123" lon="0.41758">
        <ele>102</ele>
        <time>2015-11-17T13:29:32Z</time>
      </trkpt>
      <trkpt lat="45.26128" lon="0.4176">
        <ele>103</ele>
        <time>2015-11-17T13:29:37Z</time>
      </trkpt>
      <trkpt lat="45.26133" lon="0.41765">
        <ele>103</ele>
        <time>2015-11-17T13:29:42Z</time>
      </trkpt>
      <trkpt lat="45.26137" lon="0.41768">
        <ele>102</ele>
        <time>2015-11-17T13:29:46Z</time>
      </trkpt>
      <trkpt lat="45.26142" lon="0.41765">
        <ele>101</ele>
        <time>2015-11-17T13:29:50Z</time>
      </trkpt>
      <trkpt lat="45.26146" lon="0.41767">
        <ele>101</ele>
        <time>2015-11-17T13:29:56Z</time>
      </trkpt>
      <trkpt lat="45.26151" lon="0.41765">
        <ele>102</ele>
        <time>2015-11-17T13:30:00Z</time>
      </trkpt>
      <trkpt lat="45.26155" lon="0.41766">
        <ele>101</ele>
        <time>2015-11-17T13:30:05Z</time>
      </trkpt>
      <trkpt lat="45.26159" lon="0.41767">
        <ele>101</ele>
        <time>2015-11-17T13:30:09Z</time>
      </trkpt>
      <trkpt lat="45.26164" lon="0.41768">
        <ele>101</ele>
        <time>2015-11-17T13:30:14Z</time>
      </trkpt>
      <trkpt lat="45.26167" lon="0.41772">
        <ele>102</ele>
        <time>2015-11-17T13:30:18Z</time>
      </trkpt>
      <trkpt lat="45.26171" lon="0.4177">
        <ele>101</ele>
        <time>2015-11-17T13:30:22Z</time>
      </trkpt>
      <trkpt lat="45.26175" lon="0.4177">
        <ele>102</ele>
        <time>2015-11-17T13:30:27Z</time>
      </trkpt>
      <trkpt lat="45.26175" lon="0.41763">
        <ele>101</ele>
        <time>2015-11-17T13:30:34Z</time>
      </trkpt>
      <trkpt lat="45.26179" lon="0.41762">
        <ele>100</ele>
        <time>2015-11-17T13:30:51Z</time>
      </trkpt>
      <trkpt lat="45.26183" lon="0.4176">
        <ele>100</ele>
        <time>2015-11-17T13:31:05Z</time>
      </trkpt>
      <trkpt lat="45.26187" lon="0.41759">
        <ele>100</ele>
        <time>2015-11-17T13:31:13Z</time>
      </trkpt>
      <trkpt lat="45.2619" lon="0.41759">
        <ele>97</ele>
        <time>2015-11-17T13:31:43Z</time>
      </trkpt>
      <trkpt lat="45.26194" lon="0.41762">
        <ele>99</ele>
        <time>2015-11-17T13:31:54Z</time>
      </trkpt>
      <trkpt lat="45.26197" lon="0.41765">
        <ele>101</ele>
        <time>2015-11-17T13:32:07Z</time>
      </trkpt>
      <trkpt lat="45.26201" lon="0.41763">
        <ele>98</ele>
        <time>2015-11-17T13:32:20Z</time>
      </trkpt>
      <trkpt lat="45.26205" lon="0.41764">
        <ele>99</ele>
        <time>2015-11-17T13:32:24Z</time>
      </trkpt>
      <trkpt lat="45.26209" lon="0.41764">
        <ele>99</ele>
        <time>2015-11-17T13:32:36Z</time>
      </trkpt>
      <trkpt lat="45.26213" lon="0.41765">
        <ele>100</ele>
        <time>2015-11-17T13:32:43Z</time>
      </trkpt>
      <trkpt lat="45.26218" lon="0.41766">
        <ele>100</ele>
        <time>2015-11-17T13:32:47Z</time>
      </trkpt>
      <trkpt lat="45.26223" lon="0.41763">
        <ele>100</ele>
        <time>2015-11-17T13:32:52Z</time>
      </trkpt>
      <trkpt lat="45.26227" lon="0.41762">
        <ele>101</ele>
        <time>2015-11-17T13:32:58Z</time>
      </trkpt>
      <trkpt lat="45.26232" lon="0.41762">
        <ele>100</ele>
        <time>2015-11-17T13:33:02Z</time>
      </trkpt>
      <trkpt lat="45.26237" lon="0.4176">
        <ele>101</ele>
        <time>2015-11-17T13:33:07Z</time>
      </trkpt>
      <trkpt lat="45.26241" lon="0.4176">
        <ele>101</ele>
        <time>2015-11-17T13:33:11Z</time>
      </trkpt>
      <trkpt lat="45.26246" lon="0.41758">
        <ele>101</ele>
        <time>2015-11-17T13:33:15Z</time>
      </trkpt>
      <trkpt lat="45.26251" lon="0.41754">
        <ele>101</ele>
        <time>2015-11-17T13:33:19Z</time>
      </trkpt>
      <trkpt lat="45.26258" lon="0.41751">
        <ele>103</ele>
        <time>2015-11-17T13:33:24Z</time>
      </trkpt>
      <trkpt lat="45.26262" lon="0.4175">
        <ele>103</ele>
        <time>2015-11-17T13:33:28Z</time>
      </trkpt>
      <trkpt lat="45.26267" lon="0.41749">
        <ele>105</ele>
        <time>2015-11-17T13:33:32Z</time>
      </trkpt>
      <trkpt lat="45.26273" lon="0.41748">
        <ele>106</ele>
        <time>2015-11-17T13:33:36Z</time>
      </trkpt>
      <trkpt lat="45.26278" lon="0.41744">
        <ele>103</ele>
        <time>2015-11-17T13:33:41Z</time>
      </trkpt>
      <trkpt lat="45.26282" lon="0.41744">
        <ele>104</ele>
        <time>2015-11-17T13:33:45Z</time>
      </trkpt>
      <trkpt lat="45.26287" lon="0.41742">
        <ele>106</ele>
        <time>2015-11-17T13:33:50Z</time>
      </trkpt>
      <trkpt lat="45.26289" lon="0.41738">
        <ele>107</ele>
        <time>2015-11-17T13:34:28Z</time>
      </trkpt>
      <trkpt lat="45.26297" lon="0.41739">
        <ele>106</ele>
        <time>2015-11-17T13:34:33Z</time>
      </trkpt>
      <trkpt lat="45.26303" lon="0.41736">
        <ele>105</ele>
        <time>2015-11-17T13:34:38Z</time>
      </trkpt>
      <trkpt lat="45.26308" lon="0.41731">
        <ele>105</ele>
        <time>2015-11-17T13:34:42Z</time>
      </trkpt>
      <trkpt lat="45.26314" lon="0.41728">
        <ele>105</ele>
        <time>2015-11-17T13:34:47Z</time>
      </trkpt>
      <trkpt lat="45.26318" lon="0.41726">
        <ele>106</ele>
        <time>2015-11-17T13:34:51Z</time>
      </trkpt>
      <trkpt lat="45.26322" lon="0.41725">
        <ele>106</ele>
        <time>2015-11-17T13:34:55Z</time>
      </trkpt>
      <trkpt lat="45.26325" lon="0.41727">
        <ele>107</ele>
        <time>2015-11-17T13:35:00Z</time>
      </trkpt>
      <trkpt lat="45.26331" lon="0.41726">
        <ele>107</ele>
        <time>2015-11-17T13:35:05Z</time>
      </trkpt>
      <trkpt lat="45.26334" lon="0.41724">
        <ele>106</ele>
        <time>2015-11-17T13:35:10Z</time>
      </trkpt>
      <trkpt lat="45.2634" lon="0.41725">
        <ele>106</ele>
        <time>2015-11-17T13:35:15Z</time>
      </trkpt>
      <trkpt lat="45.26344" lon="0.41721">
        <ele>107</ele>
        <time>2015-11-17T13:35:19Z</time>
      </trkpt>
      <trkpt lat="45.26348" lon="0.41725">
        <ele>108</ele>
        <time>2015-11-17T13:35:24Z</time>
      </trkpt>
      <trkpt lat="45.26352" lon="0.41725">
        <ele>106</ele>
        <time>2015-11-17T13:35:28Z</time>
      </trkpt>
      <trkpt lat="45.26358" lon="0.4172">
        <ele>107</ele>
        <time>2015-11-17T13:35:33Z</time>
      </trkpt>
      <trkpt lat="45.26363" lon="0.41718">
        <ele>107</ele>
        <time>2015-11-17T13:35:38Z</time>
      </trkpt>
      <trkpt lat="45.26367" lon="0.41718">
        <ele>107</ele>
        <time>2015-11-17T13:35:43Z</time>
      </trkpt>
      <trkpt lat="45.26373" lon="0.41713">
        <ele>107</ele>
        <time>2015-11-17T13:35:48Z</time>
      </trkpt>
      <trkpt lat="45.26378" lon="0.41713">
        <ele>108</ele>
        <time>2015-11-17T13:35:53Z</time>
      </trkpt>
      <trkpt lat="45.26383" lon="0.4171">
        <ele>106</ele>
        <time>2015-11-17T13:35:57Z</time>
      </trkpt>
      <trkpt lat="45.26388" lon="0.41703">
        <ele>107</ele>
        <time>2015-11-17T13:36:02Z</time>
      </trkpt>
      <trkpt lat="45.26392" lon="0.41701">
        <ele>105</ele>
        <time>2015-11-17T13:36:07Z</time>
      </trkpt>
      <trkpt lat="45.26398" lon="0.41703">
        <ele>107</ele>
        <time>2015-11-17T13:36:12Z</time>
      </trkpt>
      <trkpt lat="45.26402" lon="0.41701">
        <ele>107</ele>
        <time>2015-11-17T13:36:16Z</time>
      </trkpt>
      <trkpt lat="45.26407" lon="0.41703">
        <ele>106</ele>
        <time>2015-11-17T13:36:21Z</time>
      </trkpt>
      <trkpt lat="45.2641" lon="0.41705">
        <ele>108</ele>
        <time>2015-11-17T13:36:25Z</time>
      </trkpt>
      <trkpt lat="45.26416" lon="0.41702">
        <ele>110</ele>
        <time>2015-11-17T13:36:29Z</time>
      </trkpt>
      <trkpt lat="45.26421" lon="0.417">
        <ele>110</ele>
        <time>2015-11-17T13:36:34Z</time>
      </trkpt>
      <trkpt lat="45.26425" lon="0.41699">
        <ele>111</ele>
        <time>2015-11-17T13:36:38Z</time>
      </trkpt>
      <trkpt lat="45.26429" lon="0.41699">
        <ele>109</ele>
        <time>2015-11-17T13:36:42Z</time>
      </trkpt>
      <trkpt lat="45.26433" lon="0.41698">
        <ele>110</ele>
        <time>2015-11-17T13:36:46Z</time>
      </trkpt>
      <trkpt lat="45.26437" lon="0.41698">
        <ele>111</ele>
        <time>2015-11-17T13:36:50Z</time>
      </trkpt>
      <trkpt lat="45.26441" lon="0.41697">
        <ele>113</ele>
        <time>2015-11-17T13:36:55Z</time>
      </trkpt>
      <trkpt lat="45.26446" lon="0.41697">
        <ele>114</ele>
        <time>2015-11-17T13:37:00Z</time>
      </trkpt>
      <trkpt lat="45.2645" lon="0.41698">
        <ele>114</ele>
        <time>2015-11-17T13:37:04Z</time>
      </trkpt>
      <trkpt lat="45.26455" lon="0.41696">
        <ele>115</ele>
        <time>2015-11-17T13:37:08Z</time>
      </trkpt>
      <trkpt lat="45.26459" lon="0.41689">
        <ele>111</ele>
        <time>2015-11-17T13:37:13Z</time>
      </trkpt>
      <trkpt lat="45.26463" lon="0.41689">
        <ele>114</ele>
        <time>2015-11-17T13:37:18Z</time>
      </trkpt>
      <trkpt lat="45.26468" lon="0.41687">
        <ele>114</ele>
        <time>2015-11-17T13:37:22Z</time>
      </trkpt>
      <trkpt lat="45.26472" lon="0.41685">
        <ele>117</ele>
        <time>2015-11-17T13:37:27Z</time>
      </trkpt>
      <trkpt lat="45.26478" lon="0.41683">
        <ele>117</ele>
        <time>2015-11-17T13:37:32Z</time>
      </trkpt>
      <trkpt lat="45.26485" lon="0.41682">
        <ele>118</ele>
        <time>2015-11-17T13:37:37Z</time>
      </trkpt>
      <trkpt lat="45.2649" lon="0.41682">
        <ele>119</ele>
        <time>2015-11-17T13:37:41Z</time>
      </trkpt>
      <trkpt lat="45.26495" lon="0.41681">
        <ele>120</ele>
        <time>2015-11-17T13:37:46Z</time>
      </trkpt>
      <trkpt lat="45.265" lon="0.41676">
        <ele>119</ele>
        <time>2015-11-17T13:37:50Z</time>
      </trkpt>
      <trkpt lat="45.26507" lon="0.41674">
        <ele>119</ele>
        <time>2015-11-17T13:37:55Z</time>
      </trkpt>
      <trkpt lat="45.26512" lon="0.4167">
        <ele>120</ele>
        <time>2015-11-17T13:37:59Z</time>
      </trkpt>
      <trkpt lat="45.26517" lon="0.41666">
        <ele>118</ele>
        <time>2015-11-17T13:38:03Z</time>
      </trkpt>
      <trkpt lat="45.26522" lon="0.41664">
        <ele>118</ele>
        <time>2015-11-17T13:38:07Z</time>
      </trkpt>
      <trkpt lat="45.26527" lon="0.41661">
        <ele>118</ele>
        <time>2015-11-17T13:38:11Z</time>
      </trkpt>
      <trkpt lat="45.26532" lon="0.41659">
        <ele>117</ele>
        <time>2015-11-17T13:38:15Z</time>
      </trkpt>
      <trkpt lat="45.26537" lon="0.41659">
        <ele>117</ele>
        <time>2015-11-17T13:38:19Z</time>
      </trkpt>
      <trkpt lat="45.26542" lon="0.41659">
        <ele>119</ele>
        <time>2015-11-17T13:38:23Z</time>
      </trkpt>
      <trkpt lat="45.26548" lon="0.41656">
        <ele>118</ele>
        <time>2015-11-17T13:38:28Z</time>
      </trkpt>
      <trkpt lat="45.26553" lon="0.41654">
        <ele>118</ele>
        <time>2015-11-17T13:38:32Z</time>
      </trkpt>
      <trkpt lat="45.26558" lon="0.41654">
        <ele>118</ele>
        <time>2015-11-17T13:38:38Z</time>
      </trkpt>
      <trkpt lat="45.26565" lon="0.41653">
        <ele>119</ele>
        <time>2015-11-17T13:38:43Z</time>
      </trkpt>
      <trkpt lat="45.26571" lon="0.41652">
        <ele>118</ele>
        <time>2015-11-17T13:38:47Z</time>
      </trkpt>
      <trkpt lat="45.26576" lon="0.41648">
        <ele>118</ele>
        <time>2015-11-17T13:38:52Z</time>
      </trkpt>
      <trkpt lat="45.26582" lon="0.41646">
        <ele>117</ele>
        <time>2015-11-17T13:38:56Z</time>
      </trkpt>
      <trkpt lat="45.26586" lon="0.41647">
        <ele>117</ele>
        <time>2015-11-17T13:39:00Z</time>
      </trkpt>
      <trkpt lat="45.26592" lon="0.41645">
        <ele>117</ele>
        <time>2015-11-17T13:39:05Z</time>
      </trkpt>
      <trkpt lat="45.26598" lon="0.41644">
        <ele>119</ele>
        <time>2015-11-17T13:39:09Z</time>
      </trkpt>
      <trkpt lat="45.26602" lon="0.41644">
        <ele>120</ele>
        <time>2015-11-17T13:39:13Z</time>
      </trkpt>
      <trkpt lat="45.26608" lon="0.41643">
        <ele>120</ele>
        <time>2015-11-17T13:39:18Z</time>
      </trkpt>
      <trkpt lat="45.26612" lon="0.4164">
        <ele>120</ele>
        <time>2015-11-17T13:39:22Z</time>
      </trkpt>
      <trkpt lat="45.26617" lon="0.41639">
        <ele>120</ele>
        <time>2015-11-17T13:39:26Z</time>
      </trkpt>
      <trkpt lat="45.26622" lon="0.41638">
        <ele>122</ele>
        <time>2015-11-17T13:39:31Z</time>
      </trkpt>
      <trkpt lat="45.26626" lon="0.41639">
        <ele>125</ele>
        <time>2015-11-17T13:39:35Z</time>
      </trkpt>
      <trkpt lat="45.26631" lon="0.4164">
        <ele>125</ele>
        <time>2015-11-17T13:39:40Z</time>
      </trkpt>
      <trkpt lat="45.26639" lon="0.41639">
        <ele>125</ele>
        <time>2015-11-17T13:39:45Z</time>
      </trkpt>
      <trkpt lat="45.26643" lon="0.41639">
        <ele>125</ele>
        <time>2015-11-17T13:39:49Z</time>
      </trkpt>
      <trkpt lat="45.26647" lon="0.4164">
        <ele>124</ele>
        <time>2015-11-17T13:39:53Z</time>
      </trkpt>
      <trkpt lat="45.26655" lon="0.41638">
        <ele>125</ele>
        <time>2015-11-17T13:39:58Z</time>
      </trkpt>
      <trkpt lat="45.26661" lon="0.41636">
        <ele>124</ele>
        <time>2015-11-17T13:40:02Z</time>
      </trkpt>
      <trkpt lat="45.26668" lon="0.41632">
        <ele>124</ele>
        <time>2015-11-17T13:40:07Z</time>
      </trkpt>
      <trkpt lat="45.26673" lon="0.41632">
        <ele>125</ele>
        <time>2015-11-17T13:40:11Z</time>
      </trkpt>
      <trkpt lat="45.26678" lon="0.4163">
        <ele>125</ele>
        <time>2015-11-17T13:40:15Z</time>
      </trkpt>
      <trkpt lat="45.26685" lon="0.41627">
        <ele>123</ele>
        <time>2015-11-17T13:40:20Z</time>
      </trkpt>
      <trkpt lat="45.2669" lon="0.41625">
        <ele>123</ele>
        <time>2015-11-17T13:40:24Z</time>
      </trkpt>
      <trkpt lat="45.26695" lon="0.41624">
        <ele>122</ele>
        <time>2015-11-17T13:40:28Z</time>
      </trkpt>
      <trkpt lat="45.267" lon="0.41624">
        <ele>123</ele>
        <time>2015-11-17T13:40:32Z</time>
      </trkpt>
      <trkpt lat="45.26706" lon="0.41623">
        <ele>124</ele>
        <time>2015-11-17T13:40:37Z</time>
      </trkpt>
      <trkpt lat="45.2671" lon="0.41622">
        <ele>124</ele>
        <time>2015-11-17T13:40:41Z</time>
      </trkpt>
      <trkpt lat="45.26715" lon="0.41621">
        <ele>124</ele>
        <time>2015-11-17T13:40:45Z</time>
      </trkpt>
      <trkpt lat="45.26721" lon="0.4162">
        <ele>125</ele>
        <time>2015-11-17T13:40:50Z</time>
      </trkpt>
      <trkpt lat="45.26725" lon="0.41619">
        <ele>125</ele>
        <time>2015-11-17T13:40:54Z</time>
      </trkpt>
      <trkpt lat="45.26731" lon="0.41617">
        <ele>126</ele>
        <time>2015-11-17T13:40:58Z</time>
      </trkpt>
      <trkpt lat="45.26736" lon="0.41617">
        <ele>126</ele>
        <time>2015-11-17T13:41:02Z</time>
      </trkpt>
      <trkpt lat="45.2674" lon="0.41617">
        <ele>127</ele>
        <time>2015-11-17T13:41:06Z</time>
      </trkpt>
      <trkpt lat="45.26745" lon="0.41616">
        <ele>128</ele>
        <time>2015-11-17T13:41:10Z</time>
      </trkpt>
      <trkpt lat="45.26751" lon="0.41615">
        <ele>128</ele>
        <time>2015-11-17T13:41:15Z</time>
      </trkpt>
      <trkpt lat="45.26755" lon="0.41614">
        <ele>129</ele>
        <time>2015-11-17T13:41:19Z</time>
      </trkpt>
      <trkpt lat="45.2676" lon="0.41613">
        <ele>129</ele>
        <time>2015-11-17T13:41:24Z</time>
      </trkpt>
      <trkpt lat="45.26765" lon="0.41612">
        <ele>130</ele>
        <time>2015-11-17T13:41:28Z</time>
      </trkpt>
      <trkpt lat="45.2677" lon="0.4161">
        <ele>130</ele>
        <time>2015-11-17T13:41:33Z</time>
      </trkpt>
      <trkpt lat="45.26774" lon="0.4161">
        <ele>130</ele>
        <time>2015-11-17T13:41:37Z</time>
      </trkpt>
      <trkpt lat="45.26779" lon="0.41609">
        <ele>131</ele>
        <time>2015-11-17T13:41:41Z</time>
      </trkpt>
      <trkpt lat="45.26784" lon="0.41607">
        <ele>131</ele>
        <time>2015-11-17T13:41:46Z</time>
      </trkpt>
      <trkpt lat="45.26788" lon="0.41605">
        <ele>132</ele>
        <time>2015-11-17T13:41:50Z</time>
      </trkpt>
      <trkpt lat="45.26792" lon="0.41602">
        <ele>132</ele>
        <time>2015-11-17T13:41:55Z</time>
      </trkpt>
      <trkpt lat="45.26797" lon="0.41601">
        <ele>132</ele>
        <time>2015-11-17T13:42:00Z</time>
      </trkpt>
      <trkpt lat="45.26801" lon="0.416">
        <ele>132</ele>
        <time>2015-11-17T13:42:05Z</time>
      </trkpt>
      <trkpt lat="45.26805" lon="0.41597">
        <ele>133</ele>
        <time>2015-11-17T13:42:10Z</time>
      </trkpt>
      <trkpt lat="45.26809" lon="0.41595">
        <ele>133</ele>
        <time>2015-11-17T13:42:14Z</time>
      </trkpt>
      <trkpt lat="45.26815" lon="0.41594">
        <ele>134</ele>
        <time>2015-11-17T13:42:19Z</time>
      </trkpt>
      <trkpt lat="45.26819" lon="0.41592">
        <ele>134</ele>
        <time>2015-11-17T13:42:23Z</time>
      </trkpt>
      <trkpt lat="45.26823" lon="0.41588">
        <ele>134</ele>
        <time>2015-11-17T13:42:28Z</time>
      </trkpt>
      <trkpt lat="45.26826" lon="0.41586">
        <ele>135</ele>
        <time>2015-11-17T13:42:32Z</time>
      </trkpt>
      <trkpt lat="45.2683" lon="0.41585">
        <ele>135</ele>
        <time>2015-11-17T13:42:37Z</time>
      </trkpt>
      <trkpt lat="45.26834" lon="0.41583">
        <ele>134</ele>
        <time>2015-11-17T13:42:42Z</time>
      </trkpt>
      <trkpt lat="45.26838" lon="0.41583">
        <ele>134</ele>
        <time>2015-11-17T13:42:47Z</time>
      </trkpt>
      <trkpt lat="45.26842" lon="0.41583">
        <ele>134</ele>
        <time>2015-11-17T13:42:52Z</time>
      </trkpt>
      <trkpt lat="45.26846" lon="0.41582">
        <ele>136</ele>
        <time>2015-11-17T13:46:42Z</time>
      </trkpt>
      <trkpt lat="45.26849" lon="0.41579">
        <ele>137</ele>
        <time>2015-11-17T13:46:47Z</time>
      </trkpt>
      <trkpt lat="45.26854" lon="0.41578">
        <ele>137</ele>
        <time>2015-11-17T13:46:54Z</time>
      </trkpt>
      <trkpt lat="45.26858" lon="0.41577">
        <ele>138</ele>
        <time>2015-11-17T13:47:00Z</time>
      </trkpt>
      <trkpt lat="45.26861" lon="0.41575">
        <ele>138</ele>
        <time>2015-11-17T13:47:04Z</time>
      </trkpt>
      <trkpt lat="45.26865" lon="0.41575">
        <ele>138</ele>
        <time>2015-11-17T13:47:08Z</time>
      </trkpt>
      <trkpt lat="45.26869" lon="0.41573">
        <ele>138</ele>
        <time>2015-11-17T13:47:13Z</time>
      </trkpt>
      <trkpt lat="45.26874" lon="0.41573">
        <ele>139</ele>
        <time>2015-11-17T13:47:17Z</time>
      </trkpt>
      <trkpt lat="45.26879" lon="0.41571">
        <ele>140</ele>
        <time>2015-11-17T13:47:22Z</time>
      </trkpt>
      <trkpt lat="45.26883" lon="0.4157">
        <ele>141</ele>
        <time>2015-11-17T13:47:26Z</time>
      </trkpt>
      <trkpt lat="45.26888" lon="0.41569">
        <ele>141</ele>
        <time>2015-11-17T13:47:30Z</time>
      </trkpt>
      <trkpt lat="45.26892" lon="0.41567">
        <ele>141</ele>
        <time>2015-11-17T13:47:34Z</time>
      </trkpt>
      <trkpt lat="45.26896" lon="0.41567">
        <ele>142</ele>
        <time>2015-11-17T13:47:38Z</time>
      </trkpt>
      <trkpt lat="45.26901" lon="0.41564">
        <ele>141</ele>
        <time>2015-11-17T13:47:43Z</time>
      </trkpt>
      <trkpt lat="45.26906" lon="0.41562">
        <ele>141</ele>
        <time>2015-11-17T13:47:48Z</time>
      </trkpt>
      <trkpt lat="45.2691" lon="0.41561">
        <ele>141</ele>
        <time>2015-11-17T13:47:52Z</time>
      </trkpt>
      <trkpt lat="45.26914" lon="0.4156">
        <ele>142</ele>
        <time>2015-11-17T13:47:56Z</time>
      </trkpt>
      <trkpt lat="45.26919" lon="0.41558">
        <ele>143</ele>
        <time>2015-11-17T13:48:01Z</time>
      </trkpt>
      <trkpt lat="45.26923" lon="0.41555">
        <ele>143</ele>
        <time>2015-11-17T13:48:05Z</time>
      </trkpt>
      <trkpt lat="45.26929" lon="0.41553">
        <ele>143</ele>
        <time>2015-11-17T13:48:10Z</time>
      </trkpt>
      <trkpt lat="45.26933" lon="0.41552">
        <ele>144</ele>
        <time>2015-11-17T13:48:14Z</time>
      </trkpt>
      <trkpt lat="45.26939" lon="0.41548">
        <ele>145</ele>
        <time>2015-11-17T13:48:19Z</time>
      </trkpt>
      <trkpt lat="45.26945" lon="0.41547">
        <ele>145</ele>
        <time>2015-11-17T13:48:24Z</time>
      </trkpt>
      <trkpt lat="45.26949" lon="0.41545">
        <ele>144</ele>
        <time>2015-11-17T13:48:29Z</time>
      </trkpt>
      <trkpt lat="45.26953" lon="0.41543">
        <ele>145</ele>
        <time>2015-11-17T13:48:33Z</time>
      </trkpt>
      <trkpt lat="45.26958" lon="0.41542">
        <ele>145</ele>
        <time>2015-11-17T13:48:37Z</time>
      </trkpt>
      <trkpt lat="45.26963" lon="0.4154">
        <ele>145</ele>
        <time>2015-11-17T13:48:42Z</time>
      </trkpt>
      <trkpt lat="45.26967" lon="0.41538">
        <ele>145</ele>
        <time>2015-11-17T13:48:46Z</time>
      </trkpt>
      <trkpt lat="45.26972" lon="0.41537">
        <ele>146</ele>
        <time>2015-11-17T13:48:50Z</time>
      </trkpt>
      <trkpt lat="45.26978" lon="0.41536">
        <ele>144</ele>
        <time>2015-11-17T13:48:55Z</time>
      </trkpt>
      <trkpt lat="45.26983" lon="0.41534">
        <ele>144</ele>
        <time>2015-11-17T13:48:59Z</time>
      </trkpt>
      <trkpt lat="45.26987" lon="0.41533">
        <ele>144</ele>
        <time>2015-11-17T13:49:03Z</time>
      </trkpt>
      <trkpt lat="45.26993" lon="0.41531">
        <ele>143</ele>
        <time>2015-11-17T13:49:08Z</time>
      </trkpt>
      <trkpt lat="45.26998" lon="0.4153">
        <ele>143</ele>
        <time>2015-11-17T13:49:12Z</time>
      </trkpt>
      <trkpt lat="45.27003" lon="0.41529">
        <ele>143</ele>
        <time>2015-11-17T13:49:17Z</time>
      </trkpt>
      <trkpt lat="45.27008" lon="0.41527">
        <ele>145</ele>
        <time>2015-11-17T13:49:21Z</time>
      </trkpt>
      <trkpt lat="45.27012" lon="0.41527">
        <ele>145</ele>
        <time>2015-11-17T13:49:35Z</time>
      </trkpt>
      <trkpt lat="45.27015" lon="0.41526">
        <ele>145</ele>
        <time>2015-11-17T13:49:43Z</time>
      </trkpt>
      <trkpt lat="45.27021" lon="0.41526">
        <ele>145</ele>
        <time>2015-11-17T13:49:48Z</time>
      </trkpt>
      <trkpt lat="45.27026" lon="0.41526">
        <ele>146</ele>
        <time>2015-11-17T13:49:52Z</time>
      </trkpt>
      <trkpt lat="45.27031" lon="0.41526">
        <ele>145</ele>
        <time>2015-11-17T13:49:57Z</time>
      </trkpt>
      <trkpt lat="45.27035" lon="0.41527">
        <ele>145</ele>
        <time>2015-11-17T13:50:01Z</time>
      </trkpt>
      <trkpt lat="45.2704" lon="0.41529">
        <ele>144</ele>
        <time>2015-11-17T13:50:06Z</time>
      </trkpt>
      <trkpt lat="45.27044" lon="0.4153">
        <ele>145</ele>
        <time>2015-11-17T13:50:10Z</time>
      </trkpt>
      <trkpt lat="45.27048" lon="0.41531">
        <ele>146</ele>
        <time>2015-11-17T13:50:14Z</time>
      </trkpt>
      <trkpt lat="45.27052" lon="0.41533">
        <ele>146</ele>
        <time>2015-11-17T13:50:19Z</time>
      </trkpt>
      <trkpt lat="45.27057" lon="0.41533">
        <ele>145</ele>
        <time>2015-11-17T13:50:23Z</time>
      </trkpt>
      <trkpt lat="45.27063" lon="0.41534">
        <ele>144</ele>
        <time>2015-11-17T13:50:28Z</time>
      </trkpt>
      <trkpt lat="45.2707" lon="0.41535">
        <ele>144</ele>
        <time>2015-11-17T13:50:33Z</time>
      </trkpt>
      <trkpt lat="45.27075" lon="0.41536">
        <ele>145</ele>
        <time>2015-11-17T13:50:37Z</time>
      </trkpt>
      <trkpt lat="45.2708" lon="0.41538">
        <ele>145</ele>
        <time>2015-11-17T13:50:41Z</time>
      </trkpt>
      <trkpt lat="45.27086" lon="0.41539">
        <ele>145</ele>
        <time>2015-11-17T13:50:46Z</time>
      </trkpt>
      <trkpt lat="45.27091" lon="0.41539">
        <ele>145</ele>
        <time>2015-11-17T13:50:50Z</time>
      </trkpt>
      <trkpt lat="45.27095" lon="0.41541">
        <ele>146</ele>
        <time>2015-11-17T13:50:54Z</time>
      </trkpt>
      <trkpt lat="45.271" lon="0.41541">
        <ele>146</ele>
        <time>2015-11-17T13:50:58Z</time>
      </trkpt>
      <trkpt lat="45.27105" lon="0.41542">
        <ele>146</ele>
        <time>2015-11-17T13:51:03Z</time>
      </trkpt>
      <trkpt lat="45.2711" lon="0.41544">
        <ele>147</ele>
        <time>2015-11-17T13:51:07Z</time>
      </trkpt>
      <trkpt lat="45.27115" lon="0.41545">
        <ele>148</ele>
        <time>2015-11-17T13:51:12Z</time>
      </trkpt>
      <trkpt lat="45.2712" lon="0.41547">
        <ele>146</ele>
        <time>2015-11-17T13:51:16Z</time>
      </trkpt>
      <trkpt lat="45.27122" lon="0.4155">
        <ele>146</ele>
        <time>2015-11-17T13:51:20Z</time>
      </trkpt>
      <trkpt lat="45.27127" lon="0.41552">
        <ele>147</ele>
        <time>2015-11-17T13:51:25Z</time>
      </trkpt>
      <trkpt lat="45.27131" lon="0.41554">
        <ele>147</ele>
        <time>2015-11-17T13:51:30Z</time>
      </trkpt>
      <trkpt lat="45.27135" lon="0.41556">
        <ele>147</ele>
        <time>2015-11-17T13:51:35Z</time>
      </trkpt>
      <trkpt lat="45.27139" lon="0.41557">
        <ele>147</ele>
        <time>2015-11-17T13:51:39Z</time>
      </trkpt>
      <trkpt lat="45.27143" lon="0.41559">
        <ele>147</ele>
        <time>2015-11-17T13:51:43Z</time>
      </trkpt>
      <trkpt lat="45.27148" lon="0.41561">
        <ele>147</ele>
        <time>2015-11-17T13:51:48Z</time>
      </trkpt>
      <trkpt lat="45.27152" lon="0.41563">
        <ele>147</ele>
        <time>2015-11-17T13:51:52Z</time>
      </trkpt>
      <trkpt lat="45.27156" lon="0.41564">
        <ele>146</ele>
        <time>2015-11-17T13:51:57Z</time>
      </trkpt>
      <trkpt lat="45.27161" lon="0.41566">
        <ele>147</ele>
        <time>2015-11-17T13:52:01Z</time>
      </trkpt>
      <trkpt lat="45.27166" lon="0.41566">
        <ele>147</ele>
        <time>2015-11-17T13:52:05Z</time>
      </trkpt>
      <trkpt lat="45.27171" lon="0.41568">
        <ele>147</ele>
        <time>2015-11-17T13:52:09Z</time>
      </trkpt>
      <trkpt lat="45.27176" lon="0.41569">
        <ele>147</ele>
        <time>2015-11-17T13:52:13Z</time>
      </trkpt>
      <trkpt lat="45.27182" lon="0.4157">
        <ele>148</ele>
        <time>2015-11-17T13:52:18Z</time>
      </trkpt>
      <trkpt lat="45.27186" lon="0.41571">
        <ele>148</ele>
        <time>2015-11-17T13:52:23Z</time>
      </trkpt>
      <trkpt lat="45.27193" lon="0.41573">
        <ele>148</ele>
        <time>2015-11-17T13:52:28Z</time>
      </trkpt>
      <trkpt lat="45.27199" lon="0.41573">
        <ele>148</ele>
        <time>2015-11-17T13:52:32Z</time>
      </trkpt>
      <trkpt lat="45.27204" lon="0.41574">
        <ele>148</ele>
        <time>2015-11-17T13:52:37Z</time>
      </trkpt>
      <trkpt lat="45.27208" lon="0.41575">
        <ele>148</ele>
        <time>2015-11-17T13:52:41Z</time>
      </trkpt>
      <trkpt lat="45.27212" lon="0.41576">
        <ele>148</ele>
        <time>2015-11-17T13:52:45Z</time>
      </trkpt>
      <trkpt lat="45.27216" lon="0.41578">
        <ele>150</ele>
        <time>2015-11-17T13:52:49Z</time>
      </trkpt>
      <trkpt lat="45.2722" lon="0.41579">
        <ele>149</ele>
        <time>2015-11-17T13:52:53Z</time>
      </trkpt>
      <trkpt lat="45.27224" lon="0.4158">
        <ele>149</ele>
        <time>2015-11-17T13:52:57Z</time>
      </trkpt>
      <trkpt lat="45.27229" lon="0.41581">
        <ele>148</ele>
        <time>2015-11-17T13:53:01Z</time>
      </trkpt>
      <trkpt lat="45.27233" lon="0.41582">
        <ele>148</ele>
        <time>2015-11-17T13:53:05Z</time>
      </trkpt>
      <trkpt lat="45.27239" lon="0.41585">
        <ele>149</ele>
        <time>2015-11-17T13:53:09Z</time>
      </trkpt>
      <trkpt lat="45.27243" lon="0.41585">
        <ele>149</ele>
        <time>2015-11-17T13:53:13Z</time>
      </trkpt>
      <trkpt lat="45.27247" lon="0.41587">
        <ele>149</ele>
        <time>2015-11-17T13:53:18Z</time>
      </trkpt>
      <trkpt lat="45.27251" lon="0.41588">
        <ele>152</ele>
        <time>2015-11-17T13:53:24Z</time>
      </trkpt>
      <trkpt lat="45.27255" lon="0.4159">
        <ele>152</ele>
        <time>2015-11-17T13:53:30Z</time>
      </trkpt>
      <trkpt lat="45.27259" lon="0.4159">
        <ele>150</ele>
        <time>2015-11-17T13:53:41Z</time>
      </trkpt>
      <trkpt lat="45.27264" lon="0.41592">
        <ele>151</ele>
        <time>2015-11-17T13:53:45Z</time>
      </trkpt>
      <trkpt lat="45.27268" lon="0.41593">
        <ele>153</ele>
        <time>2015-11-17T13:53:50Z</time>
      </trkpt>
      <trkpt lat="45.27273" lon="0.41594">
        <ele>152</ele>
        <time>2015-11-17T13:54:01Z</time>
      </trkpt>
      <trkpt lat="45.27279" lon="0.41597">
        <ele>152</ele>
        <time>2015-11-17T13:54:06Z</time>
      </trkpt>
      <trkpt lat="45.27282" lon="0.416">
        <ele>152</ele>
        <time>2015-11-17T13:54:12Z</time>
      </trkpt>
      <trkpt lat="45.27287" lon="0.41602">
        <ele>152</ele>
        <time>2015-11-17T13:54:16Z</time>
      </trkpt>
      <trkpt lat="45.2729" lon="0.41605">
        <ele>152</ele>
        <time>2015-11-17T13:54:20Z</time>
      </trkpt>
      <trkpt lat="45.27296" lon="0.41609">
        <ele>153</ele>
        <time>2015-11-17T13:54:25Z</time>
      </trkpt>
      <trkpt lat="45.27299" lon="0.41612">
        <ele>153</ele>
        <time>2015-11-17T13:54:29Z</time>
      </trkpt>
      <trkpt lat="45.27303" lon="0.41615">
        <ele>153</ele>
        <time>2015-11-17T13:54:33Z</time>
      </trkpt>
      <trkpt lat="45.27307" lon="0.41617">
        <ele>152</ele>
        <time>2015-11-17T13:54:37Z</time>
      </trkpt>
      <trkpt lat="45.27311" lon="0.41619">
        <ele>152</ele>
        <time>2015-11-17T13:54:41Z</time>
      </trkpt>
      <trkpt lat="45.27315" lon="0.41622">
        <ele>153</ele>
        <time>2015-11-17T13:54:46Z</time>
      </trkpt>
      <trkpt lat="45.27319" lon="0.41625">
        <ele>153</ele>
        <time>2015-11-17T13:54:50Z</time>
      </trkpt>
      <trkpt lat="45.27323" lon="0.41628">
        <ele>154</ele>
        <time>2015-11-17T13:54:55Z</time>
      </trkpt>
      <trkpt lat="45.27329" lon="0.41632">
        <ele>154</ele>
        <time>2015-11-17T13:55:00Z</time>
      </trkpt>
      <trkpt lat="45.27332" lon="0.41635">
        <ele>154</ele>
        <time>2015-11-17T13:55:04Z</time>
      </trkpt>
      <trkpt lat="45.27337" lon="0.41638">
        <ele>154</ele>
        <time>2015-11-17T13:55:09Z</time>
      </trkpt>
      <trkpt lat="45.27342" lon="0.4164">
        <ele>155</ele>
        <time>2015-11-17T13:55:13Z</time>
      </trkpt>
      <trkpt lat="45.27347" lon="0.41644">
        <ele>154</ele>
        <time>2015-11-17T13:55:18Z</time>
      </trkpt>
      <trkpt lat="45.27351" lon="0.41646">
        <ele>156</ele>
        <time>2015-11-17T13:55:22Z</time>
      </trkpt>
      <trkpt lat="45.27355" lon="0.41649">
        <ele>155</ele>
        <time>2015-11-17T13:55:26Z</time>
      </trkpt>
      <trkpt lat="45.27358" lon="0.4165">
        <ele>155</ele>
        <time>2015-11-17T13:55:30Z</time>
      </trkpt>
      <trkpt lat="45.27363" lon="0.41654">
        <ele>154</ele>
        <time>2015-11-17T13:55:34Z</time>
      </trkpt>
      <trkpt lat="45.27366" lon="0.41656">
        <ele>154</ele>
        <time>2015-11-17T13:55:38Z</time>
      </trkpt>
      <trkpt lat="45.27371" lon="0.41658">
        <ele>155</ele>
        <time>2015-11-17T13:55:43Z</time>
      </trkpt>
      <trkpt lat="45.27376" lon="0.4166">
        <ele>154</ele>
        <time>2015-11-17T13:55:47Z</time>
      </trkpt>
      <trkpt lat="45.27381" lon="0.41663">
        <ele>154</ele>
        <time>2015-11-17T13:55:52Z</time>
      </trkpt>
      <trkpt lat="45.27385" lon="0.41666">
        <ele>155</ele>
        <time>2015-11-17T13:55:56Z</time>
      </trkpt>
      <trkpt lat="45.27388" lon="0.41669">
        <ele>156</ele>
        <time>2015-11-17T13:56:00Z</time>
      </trkpt>
      <trkpt lat="45.27393" lon="0.41671">
        <ele>157</ele>
        <time>2015-11-17T13:56:05Z</time>
      </trkpt>
      <trkpt lat="45.27399" lon="0.41672">
        <ele>157</ele>
        <time>2015-11-17T13:56:09Z</time>
      </trkpt>
      <trkpt lat="45.27403" lon="0.41673">
        <ele>158</ele>
        <time>2015-11-17T13:56:13Z</time>
      </trkpt>
      <trkpt lat="45.27407" lon="0.41677">
        <ele>159</ele>
        <time>2015-11-17T13:56:18Z</time>
      </trkpt>
      <trkpt lat="45.2741" lon="0.4168">
        <ele>160</ele>
        <time>2015-11-17T13:56:23Z</time>
      </trkpt>
      <trkpt lat="45.27414" lon="0.4168">
        <ele>161</ele>
        <time>2015-11-17T13:56:28Z</time>
      </trkpt>
      <trkpt lat="45.27419" lon="0.41682">
        <ele>159</ele>
        <time>2015-11-17T13:56:32Z</time>
      </trkpt>
      <trkpt lat="45.27423" lon="0.41685">
        <ele>160</ele>
        <time>2015-11-17T13:56:36Z</time>
      </trkpt>
      <trkpt lat="45.27428" lon="0.41687">
        <ele>158</ele>
        <time>2015-11-17T13:56:40Z</time>
      </trkpt>
      <trkpt lat="45.27432" lon="0.4169">
        <ele>159</ele>
        <time>2015-11-17T13:56:44Z</time>
      </trkpt>
      <trkpt lat="45.27436" lon="0.41692">
        <ele>159</ele>
        <time>2015-11-17T13:56:48Z</time>
      </trkpt>
      <trkpt lat="45.27441" lon="0.41694">
        <ele>159</ele>
        <time>2015-11-17T13:56:53Z</time>
      </trkpt>
      <trkpt lat="45.27445" lon="0.41696">
        <ele>159</ele>
        <time>2015-11-17T13:56:57Z</time>
      </trkpt>
      <trkpt lat="45.2745" lon="0.41698">
        <ele>159</ele>
        <time>2015-11-17T13:57:01Z</time>
      </trkpt>
      <trkpt lat="45.27453" lon="0.41701">
        <ele>160</ele>
        <time>2015-11-17T13:57:05Z</time>
      </trkpt>
      <trkpt lat="45.27457" lon="0.41703">
        <ele>159</ele>
        <time>2015-11-17T13:57:09Z</time>
      </trkpt>
      <trkpt lat="45.27463" lon="0.41705">
        <ele>158</ele>
        <time>2015-11-17T13:57:14Z</time>
      </trkpt>
      <trkpt lat="45.27467" lon="0.41708">
        <ele>158</ele>
        <time>2015-11-17T13:57:18Z</time>
      </trkpt>
      <trkpt lat="45.27471" lon="0.4171">
        <ele>158</ele>
        <time>2015-11-17T13:57:22Z</time>
      </trkpt>
      <trkpt lat="45.27475" lon="0.41713">
        <ele>159</ele>
        <time>2015-11-17T13:57:26Z</time>
      </trkpt>
      <trkpt lat="45.27479" lon="0.41715">
        <ele>159</ele>
        <time>2015-11-17T13:57:30Z</time>
      </trkpt>
      <trkpt lat="45.27484" lon="0.41717">
        <ele>159</ele>
        <time>2015-11-17T13:57:34Z</time>
      </trkpt>
      <trkpt lat="45.27488" lon="0.41718">
        <ele>159</ele>
        <time>2015-11-17T13:57:38Z</time>
      </trkpt>
      <trkpt lat="45.27491" lon="0.41719">
        <ele>159</ele>
        <time>2015-11-17T13:57:42Z</time>
      </trkpt>
      <trkpt lat="45.27494" lon="0.41723">
        <ele>159</ele>
        <time>2015-11-17T13:57:49Z</time>
      </trkpt>
      <trkpt lat="45.27498" lon="0.41726">
        <ele>159</ele>
        <time>2015-11-17T13:58:03Z</time>
      </trkpt>
      <trkpt lat="45.27502" lon="0.41725">
        <ele>158</ele>
        <time>2015-11-17T13:58:29Z</time>
      </trkpt>
      <trkpt lat="45.27504" lon="0.4173">
        <ele>157</ele>
        <time>2015-11-17T13:59:09Z</time>
      </trkpt>
      <trkpt lat="45.27508" lon="0.41731">
        <ele>158</ele>
        <time>2015-11-17T13:59:20Z</time>
      </trkpt>
      <trkpt lat="45.2751" lon="0.41738">
        <ele>159</ele>
        <time>2015-11-17T13:59:25Z</time>
      </trkpt>
      <trkpt lat="45.27511" lon="0.41743">
        <ele>155</ele>
        <time>2015-11-17T13:59:30Z</time>
      </trkpt>
      <trkpt lat="45.27514" lon="0.41749">
        <ele>158</ele>
        <time>2015-11-17T13:59:35Z</time>
      </trkpt>
      <trkpt lat="45.27511" lon="0.41752">
        <ele>162</ele>
        <time>2015-11-17T13:59:40Z</time>
      </trkpt>
      <trkpt lat="45.2751" lon="0.41758">
        <ele>158</ele>
        <time>2015-11-17T13:59:45Z</time>
      </trkpt>
      <trkpt lat="45.27509" lon="0.41764">
        <ele>161</ele>
        <time>2015-11-17T13:59:50Z</time>
      </trkpt>
      <trkpt lat="45.27509" lon="0.41769">
        <ele>162</ele>
        <time>2015-11-17T13:59:55Z</time>
      </trkpt>
      <trkpt lat="45.27507" lon="0.41778">
        <ele>163</ele>
        <time>2015-11-17T13:59:59Z</time>
      </trkpt>
      <trkpt lat="45.27504" lon="0.41783">
        <ele>163</ele>
        <time>2015-11-17T14:00:04Z</time>
      </trkpt>
      <trkpt lat="45.27499" lon="0.41783">
        <ele>161</ele>
        <time>2015-11-17T14:00:08Z</time>
      </trkpt>
      <trkpt lat="45.27499" lon="0.41789">
        <ele>158</ele>
        <time>2015-11-17T14:00:12Z</time>
      </trkpt>
      <trkpt lat="45.27495" lon="0.41789">
        <ele>161</ele>
        <time>2015-11-17T14:00:16Z</time>
      </trkpt>
      <trkpt lat="45.27488" lon="0.41786">
        <ele>159</ele>
        <time>2015-11-17T14:00:21Z</time>
      </trkpt>
      <trkpt lat="45.27483" lon="0.41784">
        <ele>159</ele>
        <time>2015-11-17T14:00:25Z</time>
      </trkpt>
      <trkpt lat="45.27478" lon="0.41782">
        <ele>157</ele>
        <time>2015-11-17T14:00:29Z</time>
      </trkpt>
      <trkpt lat="45.27474" lon="0.41779">
        <ele>157</ele>
        <time>2015-11-17T14:00:33Z</time>
      </trkpt>
      <trkpt lat="45.2747" lon="0.41778">
        <ele>157</ele>
        <time>2015-11-17T14:00:37Z</time>
      </trkpt>
      <trkpt lat="45.27465" lon="0.41778">
        <ele>158</ele>
        <time>2015-11-17T14:00:41Z</time>
      </trkpt>
      <trkpt lat="45.27462" lon="0.41776">
        <ele>157</ele>
        <time>2015-11-17T14:00:51Z</time>
      </trkpt>
      <trkpt lat="45.27455" lon="0.41779">
        <ele>156</ele>
        <time>2015-11-17T14:00:56Z</time>
      </trkpt>
      <trkpt lat="45.27449" lon="0.41781">
        <ele>156</ele>
        <time>2015-11-17T14:01:00Z</time>
      </trkpt>
      <trkpt lat="45.27444" lon="0.41782">
        <ele>157</ele>
        <time>2015-11-17T14:01:04Z</time>
      </trkpt>
      <trkpt lat="45.27438" lon="0.41782">
        <ele>157</ele>
        <time>2015-11-17T14:01:09Z</time>
      </trkpt>
      <trkpt lat="45.27434" lon="0.41782">
        <ele>157</ele>
        <time>2015-11-17T14:01:13Z</time>
      </trkpt>
      <trkpt lat="45.2743" lon="0.41781">
        <ele>155</ele>
        <time>2015-11-17T14:01:17Z</time>
      </trkpt>
      <trkpt lat="45.27427" lon="0.41779">
        <ele>154</ele>
        <time>2015-11-17T14:01:22Z</time>
      </trkpt>
      <trkpt lat="45.27423" lon="0.41778">
        <ele>154</ele>
        <time>2015-11-17T14:01:26Z</time>
      </trkpt>
      <trkpt lat="45.27419" lon="0.41775">
        <ele>157</ele>
        <time>2015-11-17T14:01:31Z</time>
      </trkpt>
      <trkpt lat="45.27415" lon="0.41773">
        <ele>158</ele>
        <time>2015-11-17T14:01:35Z</time>
      </trkpt>
      <trkpt lat="45.27411" lon="0.41771">
        <ele>156</ele>
        <time>2015-11-17T14:01:39Z</time>
      </trkpt>
      <trkpt lat="45.27403" lon="0.41771">
        <ele>154</ele>
        <time>2015-11-17T14:01:44Z</time>
      </trkpt>
      <trkpt lat="45.27399" lon="0.41773">
        <ele>153</ele>
        <time>2015-11-17T14:01:48Z</time>
      </trkpt>
      <trkpt lat="45.27396" lon="0.41777">
        <ele>154</ele>
        <time>2015-11-17T14:01:52Z</time>
      </trkpt>
      <trkpt lat="45.27393" lon="0.41785">
        <ele>154</ele>
        <time>2015-11-17T14:01:57Z</time>
      </trkpt>
      <trkpt lat="45.27389" lon="0.4179">
        <ele>153</ele>
        <time>2015-11-17T14:02:02Z</time>
      </trkpt>
      <trkpt lat="45.27387" lon="0.41795">
        <ele>154</ele>
        <time>2015-11-17T14:02:06Z</time>
      </trkpt>
      <trkpt lat="45.27384" lon="0.41802">
        <ele>151</ele>
        <time>2015-11-17T14:02:10Z</time>
      </trkpt>
      <trkpt lat="45.27386" lon="0.4181">
        <ele>151</ele>
        <time>2015-11-17T14:02:14Z</time>
      </trkpt>
      <trkpt lat="45.27384" lon="0.41815">
        <ele>153</ele>
        <time>2015-11-17T14:02:20Z</time>
      </trkpt>
      <trkpt lat="45.27381" lon="0.41822">
        <ele>151</ele>
        <time>2015-11-17T14:02:25Z</time>
      </trkpt>
      <trkpt lat="45.2738" lon="0.41827">
        <ele>152</ele>
        <time>2015-11-17T14:02:29Z</time>
      </trkpt>
      <trkpt lat="45.27381" lon="0.41834">
        <ele>149</ele>
        <time>2015-11-17T14:02:33Z</time>
      </trkpt>
      <trkpt lat="45.27381" lon="0.41839">
        <ele>149</ele>
        <time>2015-11-17T14:02:38Z</time>
      </trkpt>
      <trkpt lat="45.2738" lon="0.41845">
        <ele>148</ele>
        <time>2015-11-17T14:02:44Z</time>
      </trkpt>
      <trkpt lat="45.27378" lon="0.41849">
        <ele>146</ele>
        <time>2015-11-17T14:02:50Z</time>
      </trkpt>
      <trkpt lat="45.27378" lon="0.41858">
        <ele>145</ele>
        <time>2015-11-17T14:02:55Z</time>
      </trkpt>
      <trkpt lat="45.27377" lon="0.41864">
        <ele>146</ele>
        <time>2015-11-17T14:02:59Z</time>
      </trkpt>
      <trkpt lat="45.27376" lon="0.4187">
        <ele>145</ele>
        <time>2015-11-17T14:03:05Z</time>
      </trkpt>
      <trkpt lat="45.27375" lon="0.41876">
        <ele>146</ele>
        <time>2015-11-17T14:03:10Z</time>
      </trkpt>
      <trkpt lat="45.27374" lon="0.41882">
        <ele>146</ele>
        <time>2015-11-17T14:03:15Z</time>
      </trkpt>
      <trkpt lat="45.27373" lon="0.41887">
        <ele>147</ele>
        <time>2015-11-17T14:03:19Z</time>
      </trkpt>
      <trkpt lat="45.2737" lon="0.41894">
        <ele>144</ele>
        <time>2015-11-17T14:03:23Z</time>
      </trkpt>
      <trkpt lat="45.27369" lon="0.41899">
        <ele>143</ele>
        <time>2015-11-17T14:03:27Z</time>
      </trkpt>
      <trkpt lat="45.27366" lon="0.41906">
        <ele>143</ele>
        <time>2015-11-17T14:03:32Z</time>
      </trkpt>
      <trkpt lat="45.27365" lon="0.41911">
        <ele>143</ele>
        <time>2015-11-17T14:03:36Z</time>
      </trkpt>
      <trkpt lat="45.27363" lon="0.41916">
        <ele>141</ele>
        <time>2015-11-17T14:03:40Z</time>
      </trkpt>
      <trkpt lat="45.27361" lon="0.41919">
        <ele>138</ele>
        <time>2015-11-17T14:03:44Z</time>
      </trkpt>
      <trkpt lat="45.27358" lon="0.41925">
        <ele>136</ele>
        <time>2015-11-17T14:03:49Z</time>
      </trkpt>
      <trkpt lat="45.27355" lon="0.41929">
        <ele>135</ele>
        <time>2015-11-17T14:03:53Z</time>
      </trkpt>
      <trkpt lat="45.2735" lon="0.41933">
        <ele>138</ele>
        <time>2015-11-17T14:03:58Z</time>
      </trkpt>
      <trkpt lat="45.27349" lon="0.41938">
        <ele>138</ele>
        <time>2015-11-17T14:04:02Z</time>
      </trkpt>
      <trkpt lat="45.27346" lon="0.41943">
        <ele>138</ele>
        <time>2015-11-17T14:04:06Z</time>
      </trkpt>
      <trkpt lat="45.27343" lon="0.41949">
        <ele>136</ele>
        <time>2015-11-17T14:04:11Z</time>
      </trkpt>
      <trkpt lat="45.27341" lon="0.41953">
        <ele>136</ele>
        <time>2015-11-17T14:04:15Z</time>
      </trkpt>
      <trkpt lat="45.27338" lon="0.4196">
        <ele>139</ele>
        <time>2015-11-17T14:04:20Z</time>
      </trkpt>
      <trkpt lat="45.27335" lon="0.41965">
        <ele>140</ele>
        <time>2015-11-17T14:04:25Z</time>
      </trkpt>
      <trkpt lat="45.27332" lon="0.4197">
        <ele>140</ele>
        <time>2015-11-17T14:04:29Z</time>
      </trkpt>
      <trkpt lat="45.27329" lon="0.41975">
        <ele>142</ele>
        <time>2015-11-17T14:04:33Z</time>
      </trkpt>
      <trkpt lat="45.27326" lon="0.41981">
        <ele>143</ele>
        <time>2015-11-17T14:04:37Z</time>
      </trkpt>
      <trkpt lat="45.27324" lon="0.41985">
        <ele>142</ele>
        <time>2015-11-17T14:04:41Z</time>
      </trkpt>
      <trkpt lat="45.2732" lon="0.4199">
        <ele>139</ele>
        <time>2015-11-17T14:04:46Z</time>
      </trkpt>
      <trkpt lat="45.27317" lon="0.41993">
        <ele>135</ele>
        <time>2015-11-17T14:04:50Z</time>
      </trkpt>
      <trkpt lat="45.27315" lon="0.42">
        <ele>137</ele>
        <time>2015-11-17T14:04:54Z</time>
      </trkpt>
      <trkpt lat="45.27314" lon="0.42006">
        <ele>135</ele>
        <time>2015-11-17T14:04:58Z</time>
      </trkpt>
      <trkpt lat="45.27311" lon="0.42009">
        <ele>136</ele>
        <time>2015-11-17T14:05:02Z</time>
      </trkpt>
      <trkpt lat="45.27308" lon="0.42012">
        <ele>134</ele>
        <time>2015-11-17T14:05:06Z</time>
      </trkpt>
      <trkpt lat="45.27305" lon="0.42019">
        <ele>135</ele>
        <time>2015-11-17T14:05:11Z</time>
      </trkpt>
      <trkpt lat="45.27301" lon="0.42026">
        <ele>135</ele>
        <time>2015-11-17T14:05:15Z</time>
      </trkpt>
      <trkpt lat="45.27298" lon="0.4203">
        <ele>134</ele>
        <time>2015-11-17T14:05:20Z</time>
      </trkpt>
      <trkpt lat="45.27296" lon="0.42036">
        <ele>132</ele>
        <time>2015-11-17T14:05:25Z</time>
      </trkpt>
      <trkpt lat="45.27295" lon="0.42041">
        <ele>133</ele>
        <time>2015-11-17T14:05:29Z</time>
      </trkpt>
      <trkpt lat="45.27292" lon="0.42045">
        <ele>131</ele>
        <time>2015-11-17T14:05:34Z</time>
      </trkpt>
      <trkpt lat="45.2729" lon="0.42053">
        <ele>132</ele>
        <time>2015-11-17T14:05:39Z</time>
      </trkpt>
      <trkpt lat="45.27288" lon="0.42057">
        <ele>132</ele>
        <time>2015-11-17T14:05:45Z</time>
      </trkpt>
      <trkpt lat="45.27286" lon="0.42062">
        <ele>131</ele>
        <time>2015-11-17T14:05:50Z</time>
      </trkpt>
      <trkpt lat="45.27284" lon="0.42067">
        <ele>129</ele>
        <time>2015-11-17T14:05:54Z</time>
      </trkpt>
      <trkpt lat="45.27282" lon="0.42072">
        <ele>130</ele>
        <time>2015-11-17T14:06:00Z</time>
      </trkpt>
      <trkpt lat="45.27281" lon="0.42077">
        <ele>127</ele>
        <time>2015-11-17T14:06:04Z</time>
      </trkpt>
      <trkpt lat="45.2728" lon="0.42082">
        <ele>126</ele>
        <time>2015-11-17T14:06:08Z</time>
      </trkpt>
      <trkpt lat="45.27277" lon="0.42088">
        <ele>125</ele>
        <time>2015-11-17T14:06:13Z</time>
      </trkpt>
      <trkpt lat="45.27274" lon="0.42093">
        <ele>123</ele>
        <time>2015-11-17T14:06:18Z</time>
      </trkpt>
      <trkpt lat="45.27273" lon="0.42099">
        <ele>122</ele>
        <time>2015-11-17T14:06:22Z</time>
      </trkpt>
      <trkpt lat="45.27272" lon="0.42104">
        <ele>122</ele>
        <time>2015-11-17T14:06:27Z</time>
      </trkpt>
      <trkpt lat="45.27269" lon="0.42109">
        <ele>122</ele>
        <time>2015-11-17T14:06:32Z</time>
      </trkpt>
      <trkpt lat="45.27267" lon="0.42114">
        <ele>122</ele>
        <time>2015-11-17T14:06:36Z</time>
      </trkpt>
      <trkpt lat="45.27266" lon="0.4212">
        <ele>121</ele>
        <time>2015-11-17T14:06:42Z</time>
      </trkpt>
      <trkpt lat="45.27263" lon="0.42124">
        <ele>120</ele>
        <time>2015-11-17T14:06:47Z</time>
      </trkpt>
      <trkpt lat="45.27261" lon="0.42131">
        <ele>122</ele>
        <time>2015-11-17T14:06:51Z</time>
      </trkpt>
      <trkpt lat="45.27259" lon="0.42137">
        <ele>123</ele>
        <time>2015-11-17T14:06:56Z</time>
      </trkpt>
      <trkpt lat="45.27258" lon="0.42144">
        <ele>124</ele>
        <time>2015-11-17T14:07:00Z</time>
      </trkpt>
      <trkpt lat="45.27258" lon="0.4215">
        <ele>129</ele>
        <time>2015-11-17T14:07:09Z</time>
      </trkpt>
      <trkpt lat="45.27257" lon="0.42153">
        <ele>129</ele>
        <time>2015-11-17T14:07:15Z</time>
      </trkpt>
      <trkpt lat="45.27256" lon="0.42159">
        <ele>132</ele>
        <time>2015-11-17T14:07:19Z</time>
      </trkpt>
      <trkpt lat="45.27254" lon="0.42164">
        <ele>132</ele>
        <time>2015-11-17T14:07:24Z</time>
      </trkpt>
      <trkpt lat="45.27254" lon="0.42171">
        <ele>130</ele>
        <time>2015-11-17T14:07:29Z</time>
      </trkpt>
      <trkpt lat="45.27255" lon="0.42178">
        <ele>129</ele>
        <time>2015-11-17T14:07:34Z</time>
      </trkpt>
      <trkpt lat="45.27257" lon="0.42183">
        <ele>129</ele>
        <time>2015-11-17T14:07:39Z</time>
      </trkpt>
      <trkpt lat="45.27258" lon="0.42191">
        <ele>129</ele>
        <time>2015-11-17T14:07:44Z</time>
      </trkpt>
      <trkpt lat="45.27259" lon="0.42196">
        <ele>129</ele>
        <time>2015-11-17T14:07:48Z</time>
      </trkpt>
      <trkpt lat="45.2726" lon="0.42204">
        <ele>130</ele>
        <time>2015-11-17T14:07:52Z</time>
      </trkpt>
      <trkpt lat="45.27261" lon="0.4221">
        <ele>127</ele>
        <time>2015-11-17T14:08:02Z</time>
      </trkpt>
      <trkpt lat="45.27262" lon="0.42214">
        <ele>125</ele>
        <time>2015-11-17T14:08:09Z</time>
      </trkpt>
      <trkpt lat="45.27264" lon="0.4222">
        <ele>127</ele>
        <time>2015-11-17T14:08:14Z</time>
      </trkpt>
      <trkpt lat="45.27264" lon="0.42226">
        <ele>129</ele>
        <time>2015-11-17T14:08:19Z</time>
      </trkpt>
      <trkpt lat="45.27265" lon="0.42232">
        <ele>129</ele>
        <time>2015-11-17T14:08:26Z</time>
      </trkpt>
      <trkpt lat="45.27266" lon="0.42238">
        <ele>130</ele>
        <time>2015-11-17T14:08:30Z</time>
      </trkpt>
      <trkpt lat="45.27268" lon="0.42243">
        <ele>132</ele>
        <time>2015-11-17T14:08:37Z</time>
      </trkpt>
      <trkpt lat="45.27269" lon="0.42249">
        <ele>132</ele>
        <time>2015-11-17T14:08:43Z</time>
      </trkpt>
      <trkpt lat="45.27271" lon="0.42254">
        <ele>134</ele>
        <time>2015-11-17T14:08:47Z</time>
      </trkpt>
      <trkpt lat="45.27272" lon="0.4226">
        <ele>134</ele>
        <time>2015-11-17T14:08:52Z</time>
      </trkpt>
      <trkpt lat="45.27273" lon="0.42265">
        <ele>133</ele>
        <time>2015-11-17T14:09:00Z</time>
      </trkpt>
      <trkpt lat="45.27275" lon="0.42271">
        <ele>133</ele>
        <time>2015-11-17T14:09:04Z</time>
      </trkpt>
      <trkpt lat="45.27276" lon="0.42278">
        <ele>133</ele>
        <time>2015-11-17T14:09:09Z</time>
      </trkpt>
      <trkpt lat="45.27278" lon="0.42283">
        <ele>135</ele>
        <time>2015-11-17T14:09:17Z</time>
      </trkpt>
      <trkpt lat="45.27279" lon="0.4229">
        <ele>134</ele>
        <time>2015-11-17T14:09:24Z</time>
      </trkpt>
      <trkpt lat="45.27281" lon="0.42294">
        <ele>135</ele>
        <time>2015-11-17T14:09:31Z</time>
      </trkpt>
      <trkpt lat="45.27282" lon="0.42301">
        <ele>137</ele>
        <time>2015-11-17T14:09:38Z</time>
      </trkpt>
      <trkpt lat="45.27283" lon="0.42306">
        <ele>139</ele>
        <time>2015-11-17T14:09:43Z</time>
      </trkpt>
      <trkpt lat="45.27284" lon="0.4231">
        <ele>139</ele>
        <time>2015-11-17T14:09:48Z</time>
      </trkpt>
      <trkpt lat="45.27284" lon="0.42316">
        <ele>141</ele>
        <time>2015-11-17T14:09:53Z</time>
      </trkpt>
      <trkpt lat="45.27284" lon="0.42323">
        <ele>142</ele>
        <time>2015-11-17T14:09:59Z</time>
      </trkpt>
      <trkpt lat="45.27284" lon="0.42329">
        <ele>141</ele>
        <time>2015-11-17T14:10:07Z</time>
      </trkpt>
      <trkpt lat="45.27284" lon="0.42334">
        <ele>141</ele>
        <time>2015-11-17T14:10:13Z</time>
      </trkpt>
      <trkpt lat="45.27285" lon="0.4234">
        <ele>139</ele>
        <time>2015-11-17T14:10:56Z</time>
      </trkpt>
      <trkpt lat="45.27284" lon="0.42345">
        <ele>146</ele>
        <time>2015-11-17T14:11:54Z</time>
      </trkpt>
      <trkpt lat="45.27279" lon="0.42347">
        <ele>146</ele>
        <time>2015-11-17T14:12:00Z</time>
      </trkpt>
      <trkpt lat="45.27275" lon="0.42345">
        <ele>145</ele>
        <time>2015-11-17T14:12:05Z</time>
      </trkpt>
      <trkpt lat="45.27271" lon="0.42344">
        <ele>144</ele>
        <time>2015-11-17T14:12:11Z</time>
      </trkpt>
      <trkpt lat="45.27267" lon="0.42343">
        <ele>144</ele>
        <time>2015-11-17T14:12:15Z</time>
      </trkpt>
      <trkpt lat="45.27262" lon="0.4234">
        <ele>142</ele>
        <time>2015-11-17T14:12:20Z</time>
      </trkpt>
      <trkpt lat="45.27257" lon="0.42339">
        <ele>142</ele>
        <time>2015-11-17T14:12:25Z</time>
      </trkpt>
      <trkpt lat="45.27252" lon="0.42339">
        <ele>142</ele>
        <time>2015-11-17T14:12:29Z</time>
      </trkpt>
      <trkpt lat="45.27248" lon="0.42338">
        <ele>141</ele>
        <time>2015-11-17T14:12:33Z</time>
      </trkpt>
      <trkpt lat="45.27244" lon="0.42337">
        <ele>140</ele>
        <time>2015-11-17T14:12:37Z</time>
      </trkpt>
      <trkpt lat="45.27238" lon="0.42338">
        <ele>141</ele>
        <time>2015-11-17T14:12:42Z</time>
      </trkpt>
      <trkpt lat="45.27233" lon="0.42339">
        <ele>142</ele>
        <time>2015-11-17T14:12:46Z</time>
      </trkpt>
      <trkpt lat="45.27228" lon="0.42339">
        <ele>142</ele>
        <time>2015-11-17T14:12:51Z</time>
      </trkpt>
      <trkpt lat="45.27223" lon="0.42339">
        <ele>141</ele>
        <time>2015-11-17T14:12:55Z</time>
      </trkpt>
      <trkpt lat="45.27219" lon="0.42339">
        <ele>141</ele>
        <time>2015-11-17T14:12:59Z</time>
      </trkpt>
      <trkpt lat="45.27214" lon="0.4234">
        <ele>142</ele>
        <time>2015-11-17T14:13:03Z</time>
      </trkpt>
      <trkpt lat="45.27209" lon="0.42339">
        <ele>141</ele>
        <time>2015-11-17T14:13:07Z</time>
      </trkpt>
      <trkpt lat="45.27204" lon="0.42339">
        <ele>141</ele>
        <time>2015-11-17T14:13:12Z</time>
      </trkpt>
      <trkpt lat="45.272" lon="0.4234">
        <ele>141</ele>
        <time>2015-11-17T14:13:16Z</time>
      </trkpt>
      <trkpt lat="45.27193" lon="0.42341">
        <ele>140</ele>
        <time>2015-11-17T14:13:21Z</time>
      </trkpt>
      <trkpt lat="45.27188" lon="0.42343">
        <ele>141</ele>
        <time>2015-11-17T14:13:25Z</time>
      </trkpt>
      <trkpt lat="45.27184" lon="0.42344">
        <ele>141</ele>
        <time>2015-11-17T14:13:29Z</time>
      </trkpt>
      <trkpt lat="45.27179" lon="0.42346">
        <ele>142</ele>
        <time>2015-11-17T14:13:33Z</time>
      </trkpt>
      <trkpt lat="45.27174" lon="0.42348">
        <ele>140</ele>
        <time>2015-11-17T14:13:37Z</time>
      </trkpt>
      <trkpt lat="45.2717" lon="0.42349">
        <ele>140</ele>
        <time>2015-11-17T14:13:41Z</time>
      </trkpt>
      <trkpt lat="45.27164" lon="0.42352">
        <ele>139</ele>
        <time>2015-11-17T14:13:46Z</time>
      </trkpt>
      <trkpt lat="45.27159" lon="0.42353">
        <ele>139</ele>
        <time>2015-11-17T14:13:50Z</time>
      </trkpt>
      <trkpt lat="45.27154" lon="0.42356">
        <ele>139</ele>
        <time>2015-11-17T14:13:55Z</time>
      </trkpt>
      <trkpt lat="45.27149" lon="0.42359">
        <ele>140</ele>
        <time>2015-11-17T14:13:59Z</time>
      </trkpt>
      <trkpt lat="45.27145" lon="0.42361">
        <ele>141</ele>
        <time>2015-11-17T14:14:03Z</time>
      </trkpt>
      <trkpt lat="45.27141" lon="0.42363">
        <ele>141</ele>
        <time>2015-11-17T14:14:07Z</time>
      </trkpt>
      <trkpt lat="45.27136" lon="0.42364">
        <ele>141</ele>
        <time>2015-11-17T14:14:12Z</time>
      </trkpt>
      <trkpt lat="45.2713" lon="0.42366">
        <ele>140</ele>
        <time>2015-11-17T14:14:16Z</time>
      </trkpt>
      <trkpt lat="45.27124" lon="0.42368">
        <ele>142</ele>
        <time>2015-11-17T14:14:21Z</time>
      </trkpt>
      <trkpt lat="45.2712" lon="0.42369">
        <ele>143</ele>
        <time>2015-11-17T14:14:25Z</time>
      </trkpt>
      <trkpt lat="45.27115" lon="0.4237">
        <ele>144</ele>
        <time>2015-11-17T14:14:30Z</time>
      </trkpt>
      <trkpt lat="45.2711" lon="0.42371">
        <ele>143</ele>
        <time>2015-11-17T14:14:34Z</time>
      </trkpt>
      <trkpt lat="45.27105" lon="0.4237">
        <ele>141</ele>
        <time>2015-11-17T14:14:38Z</time>
      </trkpt>
      <trkpt lat="45.27102" lon="0.42372">
        <ele>139</ele>
        <time>2015-11-17T14:14:42Z</time>
      </trkpt>
      <trkpt lat="45.27096" lon="0.42373">
        <ele>138</ele>
        <time>2015-11-17T14:14:46Z</time>
      </trkpt>
      <trkpt lat="45.27092" lon="0.42374">
        <ele>138</ele>
        <time>2015-11-17T14:14:50Z</time>
      </trkpt>
      <trkpt lat="45.27087" lon="0.42377">
        <ele>138</ele>
        <time>2015-11-17T14:14:54Z</time>
      </trkpt>
      <trkpt lat="45.27082" lon="0.42379">
        <ele>140</ele>
        <time>2015-11-17T14:14:59Z</time>
      </trkpt>
      <trkpt lat="45.27074" lon="0.4238">
        <ele>137</ele>
        <time>2015-11-17T14:15:04Z</time>
      </trkpt>
      <trkpt lat="45.2707" lon="0.4238">
        <ele>137</ele>
        <time>2015-11-17T14:15:09Z</time>
      </trkpt>
      <trkpt lat="45.27066" lon="0.42381">
        <ele>136</ele>
        <time>2015-11-17T14:15:13Z</time>
      </trkpt>
      <trkpt lat="45.27061" lon="0.42383">
        <ele>135</ele>
        <time>2015-11-17T14:15:17Z</time>
      </trkpt>
      <trkpt lat="45.27056" lon="0.42384">
        <ele>135</ele>
        <time>2015-11-17T14:15:22Z</time>
      </trkpt>
      <trkpt lat="45.2705" lon="0.42385">
        <ele>135</ele>
        <time>2015-11-17T14:15:26Z</time>
      </trkpt>
      <trkpt lat="45.27045" lon="0.42385">
        <ele>134</ele>
        <time>2015-11-17T14:15:30Z</time>
      </trkpt>
      <trkpt lat="45.2704" lon="0.42386">
        <ele>132</ele>
        <time>2015-11-17T14:15:35Z</time>
      </trkpt>
      <trkpt lat="45.27035" lon="0.42386">
        <ele>133</ele>
        <time>2015-11-17T14:15:39Z</time>
      </trkpt>
      <trkpt lat="45.27031" lon="0.42389">
        <ele>133</ele>
        <time>2015-11-17T14:15:43Z</time>
      </trkpt>
      <trkpt lat="45.27027" lon="0.42388">
        <ele>134</ele>
        <time>2015-11-17T14:15:48Z</time>
      </trkpt>
      <trkpt lat="45.27023" lon="0.42388">
        <ele>134</ele>
        <time>2015-11-17T14:15:52Z</time>
      </trkpt>
      <trkpt lat="45.27019" lon="0.42389">
        <ele>137</ele>
        <time>2015-11-17T14:16:00Z</time>
      </trkpt>
      <trkpt lat="45.27009" lon="0.4239">
        <ele>135</ele>
        <time>2015-11-17T14:16:05Z</time>
      </trkpt>
      <trkpt lat="45.27004" lon="0.42391">
        <ele>136</ele>
        <time>2015-11-17T14:16:09Z</time>
      </trkpt>
      <trkpt lat="45.27" lon="0.42391">
        <ele>137</ele>
        <time>2015-11-17T14:16:14Z</time>
      </trkpt>
      <trkpt lat="45.26996" lon="0.4239">
        <ele>137</ele>
        <time>2015-11-17T14:16:18Z</time>
      </trkpt>
      <trkpt lat="45.26991" lon="0.4239">
        <ele>138</ele>
        <time>2015-11-17T14:16:24Z</time>
      </trkpt>
      <trkpt lat="45.26984" lon="0.4239">
        <ele>137</ele>
        <time>2015-11-17T14:16:28Z</time>
      </trkpt>
      <trkpt lat="45.26979" lon="0.42387">
        <ele>136</ele>
        <time>2015-11-17T14:16:32Z</time>
      </trkpt>
      <trkpt lat="45.26971" lon="0.42386">
        <ele>136</ele>
        <time>2015-11-17T14:16:37Z</time>
      </trkpt>
      <trkpt lat="45.26965" lon="0.42384">
        <ele>134</ele>
        <time>2015-11-17T14:16:42Z</time>
      </trkpt>
      <trkpt lat="45.26961" lon="0.42382">
        <ele>136</ele>
        <time>2015-11-17T14:16:46Z</time>
      </trkpt>
      <trkpt lat="45.26957" lon="0.4238">
        <ele>136</ele>
        <time>2015-11-17T14:16:50Z</time>
      </trkpt>
      <trkpt lat="45.26952" lon="0.42377">
        <ele>136</ele>
        <time>2015-11-17T14:16:55Z</time>
      </trkpt>
      <trkpt lat="45.26948" lon="0.42375">
        <ele>137</ele>
        <time>2015-11-17T14:16:59Z</time>
      </trkpt>
      <trkpt lat="45.26945" lon="0.42371">
        <ele>136</ele>
        <time>2015-11-17T14:17:03Z</time>
      </trkpt>
      <trkpt lat="45.2694" lon="0.42367">
        <ele>137</ele>
        <time>2015-11-17T14:17:08Z</time>
      </trkpt>
      <trkpt lat="45.26937" lon="0.42363">
        <ele>137</ele>
        <time>2015-11-17T14:17:12Z</time>
      </trkpt>
      <trkpt lat="45.26933" lon="0.42359">
        <ele>137</ele>
        <time>2015-11-17T14:17:16Z</time>
      </trkpt>
      <trkpt lat="45.26929" lon="0.42354">
        <ele>136</ele>
        <time>2015-11-17T14:17:21Z</time>
      </trkpt>
      <trkpt lat="45.26926" lon="0.42349">
        <ele>138</ele>
        <time>2015-11-17T14:17:25Z</time>
      </trkpt>
      <trkpt lat="45.26923" lon="0.42345">
        <ele>139</ele>
        <time>2015-11-17T14:17:29Z</time>
      </trkpt>
      <trkpt lat="45.2692" lon="0.42342">
        <ele>139</ele>
        <time>2015-11-17T14:17:33Z</time>
      </trkpt>
      <trkpt lat="45.26915" lon="0.42337">
        <ele>139</ele>
        <time>2015-11-17T14:17:38Z</time>
      </trkpt>
      <trkpt lat="45.26911" lon="0.42332">
        <ele>137</ele>
        <time>2015-11-17T14:17:42Z</time>
      </trkpt>
      <trkpt lat="45.26908" lon="0.42328">
        <ele>138</ele>
        <time>2015-11-17T14:17:46Z</time>
      </trkpt>
      <trkpt lat="45.26904" lon="0.42323">
        <ele>137</ele>
        <time>2015-11-17T14:17:51Z</time>
      </trkpt>
      <trkpt lat="45.26901" lon="0.4232">
        <ele>138</ele>
        <time>2015-11-17T14:17:56Z</time>
      </trkpt>
      <trkpt lat="45.26898" lon="0.42315">
        <ele>138</ele>
        <time>2015-11-17T14:18:01Z</time>
      </trkpt>
      <trkpt lat="45.26894" lon="0.42313">
        <ele>139</ele>
        <time>2015-11-17T14:18:05Z</time>
      </trkpt>
      <trkpt lat="45.26889" lon="0.42307">
        <ele>136</ele>
        <time>2015-11-17T14:18:09Z</time>
      </trkpt>
      <trkpt lat="45.26886" lon="0.42305">
        <ele>137</ele>
        <time>2015-11-17T14:18:13Z</time>
      </trkpt>
      <trkpt lat="45.26882" lon="0.42303">
        <ele>137</ele>
        <time>2015-11-17T14:18:17Z</time>
      </trkpt>
      <trkpt lat="45.26879" lon="0.42298">
        <ele>138</ele>
        <time>2015-11-17T14:18:21Z</time>
      </trkpt>
      <trkpt lat="45.26875" lon="0.42295">
        <ele>139</ele>
        <time>2015-11-17T14:18:25Z</time>
      </trkpt>
      <trkpt lat="45.26872" lon="0.42291">
        <ele>139</ele>
        <time>2015-11-17T14:18:29Z</time>
      </trkpt>
      <trkpt lat="45.26867" lon="0.42289">
        <ele>138</ele>
        <time>2015-11-17T14:18:33Z</time>
      </trkpt>
      <trkpt lat="45.26863" lon="0.42286">
        <ele>137</ele>
        <time>2015-11-17T14:18:41Z</time>
      </trkpt>
      <trkpt lat="45.2686" lon="0.42283">
        <ele>138</ele>
        <time>2015-11-17T14:18:45Z</time>
      </trkpt>
      <trkpt lat="45.26858" lon="0.42277">
        <ele>138</ele>
        <time>2015-11-17T14:18:49Z</time>
      </trkpt>
      <trkpt lat="45.26854" lon="0.42273">
        <ele>135</ele>
        <time>2015-11-17T14:18:57Z</time>
      </trkpt>
      <trkpt lat="45.2685" lon="0.4227">
        <ele>135</ele>
        <time>2015-11-17T14:19:08Z</time>
      </trkpt>
      <trkpt lat="45.26847" lon="0.42267">
        <ele>135</ele>
        <time>2015-11-17T14:19:12Z</time>
      </trkpt>
      <trkpt lat="45.26845" lon="0.42261">
        <ele>135</ele>
        <time>2015-11-17T14:19:16Z</time>
      </trkpt>
      <trkpt lat="45.26842" lon="0.42258">
        <ele>136</ele>
        <time>2015-11-17T14:19:20Z</time>
      </trkpt>
      <trkpt lat="45.26838" lon="0.42254">
        <ele>135</ele>
        <time>2015-11-17T14:19:25Z</time>
      </trkpt>
      <trkpt lat="45.26835" lon="0.4225">
        <ele>135</ele>
        <time>2015-11-17T14:19:30Z</time>
      </trkpt>
      <trkpt lat="45.2683" lon="0.42247">
        <ele>137</ele>
        <time>2015-11-17T14:19:35Z</time>
      </trkpt>
      <trkpt lat="45.26826" lon="0.42244">
        <ele>137</ele>
        <time>2015-11-17T14:19:39Z</time>
      </trkpt>
      <trkpt lat="45.26824" lon="0.42241">
        <ele>136</ele>
        <time>2015-11-17T14:19:43Z</time>
      </trkpt>
      <trkpt lat="45.2682" lon="0.42239">
        <ele>137</ele>
        <time>2015-11-17T14:19:48Z</time>
      </trkpt>
      <trkpt lat="45.26815" lon="0.42236">
        <ele>137</ele>
        <time>2015-11-17T14:19:52Z</time>
      </trkpt>
      <trkpt lat="45.2681" lon="0.42233">
        <ele>138</ele>
        <time>2015-11-17T14:19:57Z</time>
      </trkpt>
      <trkpt lat="45.26805" lon="0.42229">
        <ele>138</ele>
        <time>2015-11-17T14:20:02Z</time>
      </trkpt>
      <trkpt lat="45.268" lon="0.42226">
        <ele>138</ele>
        <time>2015-11-17T14:20:06Z</time>
      </trkpt>
      <trkpt lat="45.26796" lon="0.42225">
        <ele>138</ele>
        <time>2015-11-17T14:20:10Z</time>
      </trkpt>
      <trkpt lat="45.26792" lon="0.42221">
        <ele>138</ele>
        <time>2015-11-17T14:20:14Z</time>
      </trkpt>
      <trkpt lat="45.26787" lon="0.42218">
        <ele>137</ele>
        <time>2015-11-17T14:20:18Z</time>
      </trkpt>
      <trkpt lat="45.26781" lon="0.42215">
        <ele>136</ele>
        <time>2015-11-17T14:20:23Z</time>
      </trkpt>
      <trkpt lat="45.26776" lon="0.42213">
        <ele>137</ele>
        <time>2015-11-17T14:20:27Z</time>
      </trkpt>
      <trkpt lat="45.26772" lon="0.4221">
        <ele>137</ele>
        <time>2015-11-17T14:20:31Z</time>
      </trkpt>
      <trkpt lat="45.26766" lon="0.42207">
        <ele>137</ele>
        <time>2015-11-17T14:20:36Z</time>
      </trkpt>
      <trkpt lat="45.26762" lon="0.42204">
        <ele>137</ele>
        <time>2015-11-17T14:20:40Z</time>
      </trkpt>
      <trkpt lat="45.26758" lon="0.42201">
        <ele>136</ele>
        <time>2015-11-17T14:20:44Z</time>
      </trkpt>
      <trkpt lat="45.26754" lon="0.42199">
        <ele>137</ele>
        <time>2015-11-17T14:20:48Z</time>
      </trkpt>
      <trkpt lat="45.26749" lon="0.42196">
        <ele>136</ele>
        <time>2015-11-17T14:20:53Z</time>
      </trkpt>
      <trkpt lat="45.26743" lon="0.42194">
        <ele>134</ele>
        <time>2015-11-17T14:20:58Z</time>
      </trkpt>
      <trkpt lat="45.26737" lon="0.42193">
        <ele>133</ele>
        <time>2015-11-17T14:21:02Z</time>
      </trkpt>
      <trkpt lat="45.26732" lon="0.42195">
        <ele>134</ele>
        <time>2015-11-17T14:21:07Z</time>
      </trkpt>
      <trkpt lat="45.2673" lon="0.42196">
        <ele>134</ele>
        <time>2015-11-17T14:21:11Z</time>
      </trkpt>
      <trkpt lat="45.26723" lon="0.42199">
        <ele>135</ele>
        <time>2015-11-17T14:21:16Z</time>
      </trkpt>
      <trkpt lat="45.26718" lon="0.422">
        <ele>136</ele>
        <time>2015-11-17T14:21:20Z</time>
      </trkpt>
      <trkpt lat="45.26713" lon="0.422">
        <ele>137</ele>
        <time>2015-11-17T14:21:25Z</time>
      </trkpt>
      <trkpt lat="45.26707" lon="0.42197">
        <ele>138</ele>
        <time>2015-11-17T14:21:30Z</time>
      </trkpt>
      <trkpt lat="45.26703" lon="0.42195">
        <ele>138</ele>
        <time>2015-11-17T14:21:34Z</time>
      </trkpt>
      <trkpt lat="45.26699" lon="0.42193">
        <ele>138</ele>
        <time>2015-11-17T14:21:38Z</time>
      </trkpt>
      <trkpt lat="45.26695" lon="0.42192">
        <ele>137</ele>
        <time>2015-11-17T14:21:42Z</time>
      </trkpt>
      <trkpt lat="45.2669" lon="0.4219">
        <ele>138</ele>
        <time>2015-11-17T14:21:46Z</time>
      </trkpt>
      <trkpt lat="45.26686" lon="0.42188">
        <ele>138</ele>
        <time>2015-11-17T14:21:50Z</time>
      </trkpt>
      <trkpt lat="45.26682" lon="0.42185">
        <ele>138</ele>
        <time>2015-11-17T14:21:54Z</time>
      </trkpt>
      <trkpt lat="45.26676" lon="0.4218">
        <ele>137</ele>
        <time>2015-11-17T14:21:59Z</time>
      </trkpt>
      <trkpt lat="45.26672" lon="0.42179">
        <ele>137</ele>
        <time>2015-11-17T14:22:03Z</time>
      </trkpt>
      <trkpt lat="45.26668" lon="0.42177">
        <ele>136</ele>
        <time>2015-11-17T14:22:07Z</time>
      </trkpt>
      <trkpt lat="45.26662" lon="0.42175">
        <ele>136</ele>
        <time>2015-11-17T14:22:12Z</time>
      </trkpt>
      <trkpt lat="45.26658" lon="0.42172">
        <ele>135</ele>
        <time>2015-11-17T14:22:16Z</time>
      </trkpt>
      <trkpt lat="45.26653" lon="0.42169">
        <ele>135</ele>
        <time>2015-11-17T14:22:21Z</time>
      </trkpt>
      <trkpt lat="45.26647" lon="0.42167">
        <ele>135</ele>
        <time>2015-11-17T14:22:26Z</time>
      </trkpt>
      <trkpt lat="45.26644" lon="0.42165">
        <ele>135</ele>
        <time>2015-11-17T14:22:30Z</time>
      </trkpt>
      <trkpt lat="45.26638" lon="0.42164">
        <ele>135</ele>
        <time>2015-11-17T14:22:34Z</time>
      </trkpt>
      <trkpt lat="45.26634" lon="0.42163">
        <ele>135</ele>
        <time>2015-11-17T14:22:38Z</time>
      </trkpt>
      <trkpt lat="45.2663" lon="0.42162">
        <ele>134</ele>
        <time>2015-11-17T14:22:43Z</time>
      </trkpt>
      <trkpt lat="45.26625" lon="0.42162">
        <ele>135</ele>
        <time>2015-11-17T14:22:47Z</time>
      </trkpt>
      <trkpt lat="45.2662" lon="0.42161">
        <ele>135</ele>
        <time>2015-11-17T14:22:51Z</time>
      </trkpt>
      <trkpt lat="45.26616" lon="0.42161">
        <ele>135</ele>
        <time>2015-11-17T14:22:55Z</time>
      </trkpt>
      <trkpt lat="45.2661" lon="0.4216">
        <ele>134</ele>
        <time>2015-11-17T14:23:00Z</time>
      </trkpt>
      <trkpt lat="45.26605" lon="0.42159">
        <ele>133</ele>
        <time>2015-11-17T14:23:04Z</time>
      </trkpt>
      <trkpt lat="45.26601" lon="0.42159">
        <ele>133</ele>
        <time>2015-11-17T14:23:08Z</time>
      </trkpt>
      <trkpt lat="45.26597" lon="0.42158">
        <ele>133</ele>
        <time>2015-11-17T14:23:12Z</time>
      </trkpt>
      <trkpt lat="45.26593" lon="0.42157">
        <ele>133</ele>
        <time>2015-11-17T14:23:16Z</time>
      </trkpt>
      <trkpt lat="45.26588" lon="0.42157">
        <ele>133</ele>
        <time>2015-11-17T14:23:20Z</time>
      </trkpt>
      <trkpt lat="45.26583" lon="0.42155">
        <ele>132</ele>
        <time>2015-11-17T14:23:25Z</time>
      </trkpt>
      <trkpt lat="45.26578" lon="0.42153">
        <ele>132</ele>
        <time>2015-11-17T14:23:29Z</time>
      </trkpt>
      <trkpt lat="45.26573" lon="0.42152">
        <ele>132</ele>
        <time>2015-11-17T14:23:33Z</time>
      </trkpt>
      <trkpt lat="45.26569" lon="0.4215">
        <ele>132</ele>
        <time>2015-11-17T14:23:38Z</time>
      </trkpt>
      <trkpt lat="45.26564" lon="0.42149">
        <ele>132</ele>
        <time>2015-11-17T14:23:42Z</time>
      </trkpt>
      <trkpt lat="45.26561" lon="0.42147">
        <ele>133</ele>
        <time>2015-11-17T14:23:47Z</time>
      </trkpt>
      <trkpt lat="45.26555" lon="0.42145">
        <ele>134</ele>
        <time>2015-11-17T14:23:52Z</time>
      </trkpt>
      <trkpt lat="45.26551" lon="0.42146">
        <ele>134</ele>
        <time>2015-11-17T14:23:56Z</time>
      </trkpt>
      <trkpt lat="45.26546" lon="0.42145">
        <ele>133</ele>
        <time>2015-11-17T14:24:00Z</time>
      </trkpt>
      <trkpt lat="45.26541" lon="0.42143">
        <ele>132</ele>
        <time>2015-11-17T14:24:04Z</time>
      </trkpt>
      <trkpt lat="45.26537" lon="0.42141">
        <ele>133</ele>
        <time>2015-11-17T14:24:08Z</time>
      </trkpt>
      <trkpt lat="45.26533" lon="0.4214">
        <ele>134</ele>
        <time>2015-11-17T14:24:12Z</time>
      </trkpt>
      <trkpt lat="45.26528" lon="0.42139">
        <ele>133</ele>
        <time>2015-11-17T14:24:16Z</time>
      </trkpt>
      <trkpt lat="45.26522" lon="0.42138">
        <ele>133</ele>
        <time>2015-11-17T14:24:21Z</time>
      </trkpt>
      <trkpt lat="45.26517" lon="0.42138">
        <ele>132</ele>
        <time>2015-11-17T14:24:25Z</time>
      </trkpt>
      <trkpt lat="45.26513" lon="0.42138">
        <ele>135</ele>
        <time>2015-11-17T14:24:29Z</time>
      </trkpt>
      <trkpt lat="45.26508" lon="0.42139">
        <ele>134</ele>
        <time>2015-11-17T14:24:33Z</time>
      </trkpt>
      <trkpt lat="45.26504" lon="0.42139">
        <ele>134</ele>
        <time>2015-11-17T14:24:37Z</time>
      </trkpt>
      <trkpt lat="45.26498" lon="0.42137">
        <ele>130</ele>
        <time>2015-11-17T14:24:42Z</time>
      </trkpt>
      <trkpt lat="45.26494" lon="0.42135">
        <ele>130</ele>
        <time>2015-11-17T14:24:46Z</time>
      </trkpt>
      <trkpt lat="45.2649" lon="0.42134">
        <ele>130</ele>
        <time>2015-11-17T14:24:50Z</time>
      </trkpt>
      <trkpt lat="45.26485" lon="0.42132">
        <ele>130</ele>
        <time>2015-11-17T14:24:54Z</time>
      </trkpt>
      <trkpt lat="45.26479" lon="0.42131">
        <ele>129</ele>
        <time>2015-11-17T14:24:59Z</time>
      </trkpt>
      <trkpt lat="45.26475" lon="0.42129">
        <ele>129</ele>
        <time>2015-11-17T14:25:03Z</time>
      </trkpt>
      <trkpt lat="45.26471" lon="0.42129">
        <ele>128</ele>
        <time>2015-11-17T14:25:08Z</time>
      </trkpt>
      <trkpt lat="45.26466" lon="0.42129">
        <ele>130</ele>
        <time>2015-11-17T14:25:13Z</time>
      </trkpt>
      <trkpt lat="45.26461" lon="0.42129">
        <ele>129</ele>
        <time>2015-11-17T14:25:17Z</time>
      </trkpt>
      <trkpt lat="45.26456" lon="0.4213">
        <ele>129</ele>
        <time>2015-11-17T14:25:22Z</time>
      </trkpt>
      <trkpt lat="45.26451" lon="0.4213">
        <ele>128</ele>
        <time>2015-11-17T14:25:26Z</time>
      </trkpt>
      <trkpt lat="45.26447" lon="0.4213">
        <ele>128</ele>
        <time>2015-11-17T14:25:30Z</time>
      </trkpt>
      <trkpt lat="45.26443" lon="0.42129">
        <ele>129</ele>
        <time>2015-11-17T14:25:34Z</time>
      </trkpt>
      <trkpt lat="45.26438" lon="0.42129">
        <ele>129</ele>
        <time>2015-11-17T14:25:39Z</time>
      </trkpt>
      <trkpt lat="45.26433" lon="0.4213">
        <ele>130</ele>
        <time>2015-11-17T14:25:43Z</time>
      </trkpt>
      <trkpt lat="45.26429" lon="0.42129">
        <ele>130</ele>
        <time>2015-11-17T14:25:47Z</time>
      </trkpt>
      <trkpt lat="45.26425" lon="0.4213">
        <ele>129</ele>
        <time>2015-11-17T14:25:51Z</time>
      </trkpt>
      <trkpt lat="45.26419" lon="0.4213">
        <ele>129</ele>
        <time>2015-11-17T14:25:56Z</time>
      </trkpt>
      <trkpt lat="45.26414" lon="0.42132">
        <ele>130</ele>
        <time>2015-11-17T14:26:01Z</time>
      </trkpt>
      <trkpt lat="45.2641" lon="0.42134">
        <ele>129</ele>
        <time>2015-11-17T14:26:05Z</time>
      </trkpt>
      <trkpt lat="45.26405" lon="0.42134">
        <ele>128</ele>
        <time>2015-11-17T14:26:09Z</time>
      </trkpt>
      <trkpt lat="45.26401" lon="0.42136">
        <ele>128</ele>
        <time>2015-11-17T14:26:13Z</time>
      </trkpt>
      <trkpt lat="45.26397" lon="0.42137">
        <ele>128</ele>
        <time>2015-11-17T14:26:17Z</time>
      </trkpt>
      <trkpt lat="45.26393" lon="0.4214">
        <ele>128</ele>
        <time>2015-11-17T14:26:21Z</time>
      </trkpt>
      <trkpt lat="45.26388" lon="0.42141">
        <ele>128</ele>
        <time>2015-11-17T14:26:26Z</time>
      </trkpt>
      <trkpt lat="45.26384" lon="0.42143">
        <ele>128</ele>
        <time>2015-11-17T14:26:30Z</time>
      </trkpt>
      <trkpt lat="45.2638" lon="0.42144">
        <ele>129</ele>
        <time>2015-11-17T14:26:34Z</time>
      </trkpt>
      <trkpt lat="45.26375" lon="0.42148">
        <ele>128</ele>
        <time>2015-11-17T14:26:38Z</time>
      </trkpt>
      <trkpt lat="45.2637" lon="0.4215">
        <ele>128</ele>
        <time>2015-11-17T14:26:42Z</time>
      </trkpt>
      <trkpt lat="45.26366" lon="0.42153">
        <ele>128</ele>
        <time>2015-11-17T14:26:46Z</time>
      </trkpt>
      <trkpt lat="45.26362" lon="0.42154">
        <ele>128</ele>
        <time>2015-11-17T14:26:50Z</time>
      </trkpt>
      <trkpt lat="45.26359" lon="0.42155">
        <ele>128</ele>
        <time>2015-11-17T14:26:54Z</time>
      </trkpt>
      <trkpt lat="45.26354" lon="0.42159">
        <ele>129</ele>
        <time>2015-11-17T14:26:58Z</time>
      </trkpt>
      <trkpt lat="45.2635" lon="0.4216">
        <ele>131</ele>
        <time>2015-11-17T14:27:02Z</time>
      </trkpt>
      <trkpt lat="45.26343" lon="0.42161">
        <ele>130</ele>
        <time>2015-11-17T14:27:07Z</time>
      </trkpt>
      <trkpt lat="45.26338" lon="0.42162">
        <ele>128</ele>
        <time>2015-11-17T14:27:11Z</time>
      </trkpt>
      <trkpt lat="45.26332" lon="0.42161">
        <ele>128</ele>
        <time>2015-11-17T14:27:16Z</time>
      </trkpt>
      <trkpt lat="45.26329" lon="0.4216">
        <ele>127</ele>
        <time>2015-11-17T14:27:20Z</time>
      </trkpt>
      <trkpt lat="45.26323" lon="0.42158">
        <ele>126</ele>
        <time>2015-11-17T14:27:25Z</time>
      </trkpt>
      <trkpt lat="45.26318" lon="0.42156">
        <ele>125</ele>
        <time>2015-11-17T14:27:29Z</time>
      </trkpt>
      <trkpt lat="45.26314" lon="0.42155">
        <ele>124</ele>
        <time>2015-11-17T14:27:33Z</time>
      </trkpt>
      <trkpt lat="45.26308" lon="0.42153">
        <ele>123</ele>
        <time>2015-11-17T14:27:38Z</time>
      </trkpt>
      <trkpt lat="45.26304" lon="0.42153">
        <ele>122</ele>
        <time>2015-11-17T14:27:42Z</time>
      </trkpt>
      <trkpt lat="45.26299" lon="0.42152">
        <ele>123</ele>
        <time>2015-11-17T14:27:46Z</time>
      </trkpt>
      <trkpt lat="45.26295" lon="0.42151">
        <ele>123</ele>
        <time>2015-11-17T14:27:50Z</time>
      </trkpt>
      <trkpt lat="45.26289" lon="0.42148">
        <ele>123</ele>
        <time>2015-11-17T14:27:55Z</time>
      </trkpt>
      <trkpt lat="45.26283" lon="0.42147">
        <ele>123</ele>
        <time>2015-11-17T14:27:59Z</time>
      </trkpt>
      <trkpt lat="45.26278" lon="0.42145">
        <ele>122</ele>
        <time>2015-11-17T14:28:04Z</time>
      </trkpt>
      <trkpt lat="45.26275" lon="0.42141">
        <ele>124</ele>
        <time>2015-11-17T14:28:09Z</time>
      </trkpt>
      <trkpt lat="45.26272" lon="0.4214">
        <ele>123</ele>
        <time>2015-11-17T14:28:13Z</time>
      </trkpt>
      <trkpt lat="45.26266" lon="0.42137">
        <ele>122</ele>
        <time>2015-11-17T14:28:17Z</time>
      </trkpt>
      <trkpt lat="45.26261" lon="0.42135">
        <ele>121</ele>
        <time>2015-11-17T14:28:21Z</time>
      </trkpt>
      <trkpt lat="45.26257" lon="0.42132">
        <ele>123</ele>
        <time>2015-11-17T14:28:27Z</time>
      </trkpt>
      <trkpt lat="45.26252" lon="0.42131">
        <ele>123</ele>
        <time>2015-11-17T14:28:31Z</time>
      </trkpt>
      <trkpt lat="45.26247" lon="0.42129">
        <ele>125</ele>
        <time>2015-11-17T14:28:36Z</time>
      </trkpt>
      <trkpt lat="45.26242" lon="0.42127">
        <ele>125</ele>
        <time>2015-11-17T14:28:40Z</time>
      </trkpt>
      <trkpt lat="45.26237" lon="0.42125">
        <ele>125</ele>
        <time>2015-11-17T14:28:45Z</time>
      </trkpt>
      <trkpt lat="45.26231" lon="0.42125">
        <ele>122</ele>
        <time>2015-11-17T14:28:49Z</time>
      </trkpt>
      <trkpt lat="45.26226" lon="0.42124">
        <ele>121</ele>
        <time>2015-11-17T14:28:54Z</time>
      </trkpt>
      <trkpt lat="45.26221" lon="0.42123">
        <ele>121</ele>
        <time>2015-11-17T14:28:59Z</time>
      </trkpt>
      <trkpt lat="45.26216" lon="0.42122">
        <ele>120</ele>
        <time>2015-11-17T14:29:04Z</time>
      </trkpt>
      <trkpt lat="45.26211" lon="0.42122">
        <ele>120</ele>
        <time>2015-11-17T14:29:08Z</time>
      </trkpt>
      <trkpt lat="45.26207" lon="0.42118">
        <ele>119</ele>
        <time>2015-11-17T14:29:13Z</time>
      </trkpt>
      <trkpt lat="45.26201" lon="0.42117">
        <ele>118</ele>
        <time>2015-11-17T14:29:18Z</time>
      </trkpt>
      <trkpt lat="45.26197" lon="0.42116">
        <ele>117</ele>
        <time>2015-11-17T14:29:22Z</time>
      </trkpt>
      <trkpt lat="45.26192" lon="0.42116">
        <ele>116</ele>
        <time>2015-11-17T14:29:26Z</time>
      </trkpt>
      <trkpt lat="45.26187" lon="0.42114">
        <ele>117</ele>
        <time>2015-11-17T14:29:30Z</time>
      </trkpt>
      <trkpt lat="45.26183" lon="0.42112">
        <ele>116</ele>
        <time>2015-11-17T14:29:34Z</time>
      </trkpt>
      <trkpt lat="45.26178" lon="0.42111">
        <ele>115</ele>
        <time>2015-11-17T14:29:38Z</time>
      </trkpt>
      <trkpt lat="45.26174" lon="0.42109">
        <ele>115</ele>
        <time>2015-11-17T14:29:42Z</time>
      </trkpt>
      <trkpt lat="45.2617" lon="0.42108">
        <ele>115</ele>
        <time>2015-11-17T14:29:47Z</time>
      </trkpt>
      <trkpt lat="45.26167" lon="0.42106">
        <ele>115</ele>
        <time>2015-11-17T14:29:52Z</time>
      </trkpt>
      <trkpt lat="45.26161" lon="0.42102">
        <ele>116</ele>
        <time>2015-11-17T14:29:57Z</time>
      </trkpt>
      <trkpt lat="45.26157" lon="0.421">
        <ele>116</ele>
        <time>2015-11-17T14:30:02Z</time>
      </trkpt>
      <trkpt lat="45.26153" lon="0.42099">
        <ele>116</ele>
        <time>2015-11-17T14:30:06Z</time>
      </trkpt>
      <trkpt lat="45.26149" lon="0.42096">
        <ele>115</ele>
        <time>2015-11-17T14:30:10Z</time>
      </trkpt>
      <trkpt lat="45.26144" lon="0.42095">
        <ele>114</ele>
        <time>2015-11-17T14:30:14Z</time>
      </trkpt>
      <trkpt lat="45.2614" lon="0.42093">
        <ele>114</ele>
        <time>2015-11-17T14:30:18Z</time>
      </trkpt>
      <trkpt lat="45.26136" lon="0.42091">
        <ele>114</ele>
        <time>2015-11-17T14:30:22Z</time>
      </trkpt>
      <trkpt lat="45.26131" lon="0.4209">
        <ele>113</ele>
        <time>2015-11-17T14:30:27Z</time>
      </trkpt>
      <trkpt lat="45.26126" lon="0.42089">
        <ele>113</ele>
        <time>2015-11-17T14:30:31Z</time>
      </trkpt>
      <trkpt lat="45.26121" lon="0.42086">
        <ele>112</ele>
        <time>2015-11-17T14:30:36Z</time>
      </trkpt>
      <trkpt lat="45.26117" lon="0.42086">
        <ele>110</ele>
        <time>2015-11-17T14:30:40Z</time>
      </trkpt>
      <trkpt lat="45.26111" lon="0.42084">
        <ele>110</ele>
        <time>2015-11-17T14:30:45Z</time>
      </trkpt>
      <trkpt lat="45.26106" lon="0.42082">
        <ele>110</ele>
        <time>2015-11-17T14:30:50Z</time>
      </trkpt>
      <trkpt lat="45.26102" lon="0.42081">
        <ele>109</ele>
        <time>2015-11-17T14:30:54Z</time>
      </trkpt>
      <trkpt lat="45.26096" lon="0.42079">
        <ele>109</ele>
        <time>2015-11-17T14:30:58Z</time>
      </trkpt>
      <trkpt lat="45.26092" lon="0.42076">
        <ele>109</ele>
        <time>2015-11-17T14:31:02Z</time>
      </trkpt>
      <trkpt lat="45.26092" lon="0.4207">
        <ele>109</ele>
        <time>2015-11-17T14:31:07Z</time>
      </trkpt>
      <trkpt lat="45.26089" lon="0.42073">
        <ele>110</ele>
        <time>2015-11-17T14:31:45Z</time>
      </trkpt>
      <trkpt lat="45.26085" lon="0.42074">
        <ele>109</ele>
        <time>2015-11-17T14:31:51Z</time>
      </trkpt>
      <trkpt lat="45.26079" lon="0.42075">
        <ele>108</ele>
        <time>2015-11-17T14:31:55Z</time>
      </trkpt>
      <trkpt lat="45.26071" lon="0.42075">
        <ele>107</ele>
        <time>2015-11-17T14:32:00Z</time>
      </trkpt>
      <trkpt lat="45.26064" lon="0.42076">
        <ele>107</ele>
        <time>2015-11-17T14:32:04Z</time>
      </trkpt>
      <trkpt lat="45.26056" lon="0.42074">
        <ele>106</ele>
        <time>2015-11-17T14:32:09Z</time>
      </trkpt>
      <trkpt lat="45.26048" lon="0.42074">
        <ele>105</ele>
        <time>2015-11-17T14:32:14Z</time>
      </trkpt>
      <trkpt lat="45.26043" lon="0.42073">
        <ele>104</ele>
        <time>2015-11-17T14:32:18Z</time>
      </trkpt>
      <trkpt lat="45.26037" lon="0.42072">
        <ele>104</ele>
        <time>2015-11-17T14:32:22Z</time>
      </trkpt>
      <trkpt lat="45.26031" lon="0.42072">
        <ele>103</ele>
        <time>2015-11-17T14:32:26Z</time>
      </trkpt>
      <trkpt lat="45.26024" lon="0.42072">
        <ele>102</ele>
        <time>2015-11-17T14:32:30Z</time>
      </trkpt>
      <trkpt lat="45.26018" lon="0.42072">
        <ele>101</ele>
        <time>2015-11-17T14:32:34Z</time>
      </trkpt>
      <trkpt lat="45.26015" lon="0.42075">
        <ele>102</ele>
        <time>2015-11-17T14:32:47Z</time>
      </trkpt>
      <trkpt lat="45.26007" lon="0.42078">
        <ele>101</ele>
        <time>2015-11-17T14:32:52Z</time>
      </trkpt>
      <trkpt lat="45.26001" lon="0.42078">
        <ele>100</ele>
        <time>2015-11-17T14:32:56Z</time>
      </trkpt>
      <trkpt lat="45.25997" lon="0.42078">
        <ele>99</ele>
        <time>2015-11-17T14:33:04Z</time>
      </trkpt>
      <trkpt lat="45.25991" lon="0.42077">
        <ele>98</ele>
        <time>2015-11-17T14:33:09Z</time>
      </trkpt>
      <trkpt lat="45.25987" lon="0.42079">
        <ele>97</ele>
        <time>2015-11-17T14:33:14Z</time>
      </trkpt>
      <trkpt lat="45.25981" lon="0.42077">
        <ele>97</ele>
        <time>2015-11-17T14:33:18Z</time>
      </trkpt>
      <trkpt lat="45.25975" lon="0.42077">
        <ele>96</ele>
        <time>2015-11-17T14:33:22Z</time>
      </trkpt>
      <trkpt lat="45.25968" lon="0.42076">
        <ele>95</ele>
        <time>2015-11-17T14:33:27Z</time>
      </trkpt>
      <trkpt lat="45.25962" lon="0.42076">
        <ele>95</ele>
        <time>2015-11-17T14:33:32Z</time>
      </trkpt>
      <trkpt lat="45.25957" lon="0.42075">
        <ele>94</ele>
        <time>2015-11-17T14:33:36Z</time>
      </trkpt>
      <trkpt lat="45.25951" lon="0.42073">
        <ele>95</ele>
        <time>2015-11-17T14:33:41Z</time>
      </trkpt>
      <trkpt lat="45.25947" lon="0.42072">
        <ele>94</ele>
        <time>2015-11-17T14:33:45Z</time>
      </trkpt>
      <trkpt lat="45.25943" lon="0.42071">
        <ele>93</ele>
        <time>2015-11-17T14:33:49Z</time>
      </trkpt>
      <trkpt lat="45.25937" lon="0.42068">
        <ele>94</ele>
        <time>2015-11-17T14:33:54Z</time>
      </trkpt>
      <trkpt lat="45.25932" lon="0.42067">
        <ele>93</ele>
        <time>2015-11-17T14:33:58Z</time>
      </trkpt>
      <trkpt lat="45.25928" lon="0.42065">
        <ele>93</ele>
        <time>2015-11-17T14:34:02Z</time>
      </trkpt>
      <trkpt lat="45.25924" lon="0.42062">
        <ele>92</ele>
        <time>2015-11-17T14:34:06Z</time>
      </trkpt>
      <trkpt lat="45.25919" lon="0.42061">
        <ele>92</ele>
        <time>2015-11-17T14:34:10Z</time>
      </trkpt>
      <trkpt lat="45.25915" lon="0.42058">
        <ele>92</ele>
        <time>2015-11-17T14:34:15Z</time>
      </trkpt>
      <trkpt lat="45.25911" lon="0.42054">
        <ele>92</ele>
        <time>2015-11-17T14:34:19Z</time>
      </trkpt>
      <trkpt lat="45.25908" lon="0.42049">
        <ele>92</ele>
        <time>2015-11-17T14:34:23Z</time>
      </trkpt>
      <trkpt lat="45.25906" lon="0.42044">
        <ele>92</ele>
        <time>2015-11-17T14:34:28Z</time>
      </trkpt>
      <trkpt lat="45.25906" lon="0.42038">
        <ele>92</ele>
        <time>2015-11-17T14:34:33Z</time>
      </trkpt>
      <trkpt lat="45.25906" lon="0.42032">
        <ele>91</ele>
        <time>2015-11-17T14:34:37Z</time>
      </trkpt>
      <trkpt lat="45.25905" lon="0.42026">
        <ele>89</ele>
        <time>2015-11-17T14:34:41Z</time>
      </trkpt>
      <trkpt lat="45.25905" lon="0.42018">
        <ele>89</ele>
        <time>2015-11-17T14:34:46Z</time>
      </trkpt>
      <trkpt lat="45.25905" lon="0.42011">
        <ele>89</ele>
        <time>2015-11-17T14:34:51Z</time>
      </trkpt>
      <trkpt lat="45.25906" lon="0.42006">
        <ele>89</ele>
        <time>2015-11-17T14:34:55Z</time>
      </trkpt>
      <trkpt lat="45.25908" lon="0.42">
        <ele>88</ele>
        <time>2015-11-17T14:34:59Z</time>
      </trkpt>
      <trkpt lat="45.25908" lon="0.41993">
        <ele>88</ele>
        <time>2015-11-17T14:35:04Z</time>
      </trkpt>
      <trkpt lat="45.2591" lon="0.41987">
        <ele>88</ele>
        <time>2015-11-17T14:35:08Z</time>
      </trkpt>
      <trkpt lat="45.25912" lon="0.41982">
        <ele>87</ele>
        <time>2015-11-17T14:35:12Z</time>
      </trkpt>
      <trkpt lat="45.25915" lon="0.41975">
        <ele>87</ele>
        <time>2015-11-17T14:35:17Z</time>
      </trkpt>
      <trkpt lat="45.25917" lon="0.4197">
        <ele>85</ele>
        <time>2015-11-17T14:35:22Z</time>
      </trkpt>
      <trkpt lat="45.2592" lon="0.41963">
        <ele>85</ele>
        <time>2015-11-17T14:35:27Z</time>
      </trkpt>
      <trkpt lat="45.25923" lon="0.41958">
        <ele>85</ele>
        <time>2015-11-17T14:35:31Z</time>
      </trkpt>
      <trkpt lat="45.25925" lon="0.41952">
        <ele>84</ele>
        <time>2015-11-17T14:35:35Z</time>
      </trkpt>
      <trkpt lat="45.2593" lon="0.41945">
        <ele>84</ele>
        <time>2015-11-17T14:35:40Z</time>
      </trkpt>
      <trkpt lat="45.25931" lon="0.41939">
        <ele>84</ele>
        <time>2015-11-17T14:35:44Z</time>
      </trkpt>
      <trkpt lat="45.25932" lon="0.41933">
        <ele>83</ele>
        <time>2015-11-17T14:35:48Z</time>
      </trkpt>
      <trkpt lat="45.25932" lon="0.41926">
        <ele>84</ele>
        <time>2015-11-17T14:35:52Z</time>
      </trkpt>
      <trkpt lat="45.25929" lon="0.41918">
        <ele>84</ele>
        <time>2015-11-17T14:35:57Z</time>
      </trkpt>
      <trkpt lat="45.25926" lon="0.41912">
        <ele>84</ele>
        <time>2015-11-17T14:36:01Z</time>
      </trkpt>
      <trkpt lat="45.25923" lon="0.41908">
        <ele>85</ele>
        <time>2015-11-17T14:36:05Z</time>
      </trkpt>
      <trkpt lat="45.2592" lon="0.41903">
        <ele>83</ele>
        <time>2015-11-17T14:36:09Z</time>
      </trkpt>
      <trkpt lat="45.25915" lon="0.41898">
        <ele>84</ele>
        <time>2015-11-17T14:36:14Z</time>
      </trkpt>
      <trkpt lat="45.25911" lon="0.41896">
        <ele>85</ele>
        <time>2015-11-17T14:36:18Z</time>
      </trkpt>
      <trkpt lat="45.25908" lon="0.41891">
        <ele>84</ele>
        <time>2015-11-17T14:36:22Z</time>
      </trkpt>
      <trkpt lat="45.25904" lon="0.41889">
        <ele>84</ele>
        <time>2015-11-17T14:36:26Z</time>
      </trkpt>
      <trkpt lat="45.25901" lon="0.41885">
        <ele>84</ele>
        <time>2015-11-17T14:36:31Z</time>
      </trkpt>
      <trkpt lat="45.25897" lon="0.41882">
        <ele>84</ele>
        <time>2015-11-17T14:36:35Z</time>
      </trkpt>
      <trkpt lat="45.25891" lon="0.4188">
        <ele>83</ele>
        <time>2015-11-17T14:36:39Z</time>
      </trkpt>
      <trkpt lat="45.25887" lon="0.41878">
        <ele>84</ele>
        <time>2015-11-17T14:36:44Z</time>
      </trkpt>
      <trkpt lat="45.25881" lon="0.41875">
        <ele>85</ele>
        <time>2015-11-17T14:36:49Z</time>
      </trkpt>
      <trkpt lat="45.25876" lon="0.41872">
        <ele>84</ele>
        <time>2015-11-17T14:36:53Z</time>
      </trkpt>
      <trkpt lat="45.25869" lon="0.41868">
        <ele>84</ele>
        <time>2015-11-17T14:36:58Z</time>
      </trkpt>
      <trkpt lat="45.25866" lon="0.41867">
        <ele>86</ele>
        <time>2015-11-17T14:37:02Z</time>
      </trkpt>
      <trkpt lat="45.25861" lon="0.41867">
        <ele>85</ele>
        <time>2015-11-17T14:37:06Z</time>
      </trkpt>
      <trkpt lat="45.25856" lon="0.41868">
        <ele>84</ele>
        <time>2015-11-17T14:37:10Z</time>
      </trkpt>
      <trkpt lat="45.2585" lon="0.41865">
        <ele>84</ele>
        <time>2015-11-17T14:37:15Z</time>
      </trkpt>
      <trkpt lat="45.25845" lon="0.41865">
        <ele>83</ele>
        <time>2015-11-17T14:37:19Z</time>
      </trkpt>
      <trkpt lat="45.2584" lon="0.41865">
        <ele>82</ele>
        <time>2015-11-17T14:37:24Z</time>
      </trkpt>
      <trkpt lat="45.25834" lon="0.41863">
        <ele>82</ele>
        <time>2015-11-17T14:37:28Z</time>
      </trkpt>
      <trkpt lat="45.25828" lon="0.41864">
        <ele>81</ele>
        <time>2015-11-17T14:37:33Z</time>
      </trkpt>
      <trkpt lat="45.25824" lon="0.41863">
        <ele>80</ele>
        <time>2015-11-17T14:37:37Z</time>
      </trkpt>
      <trkpt lat="45.2582" lon="0.41864">
        <ele>79</ele>
        <time>2015-11-17T14:37:41Z</time>
      </trkpt>
      <trkpt lat="45.25814" lon="0.41861">
        <ele>81</ele>
        <time>2015-11-17T14:37:45Z</time>
      </trkpt>
      <trkpt lat="45.2581" lon="0.41862">
        <ele>86</ele>
        <time>2015-11-17T14:39:38Z</time>
      </trkpt>
      <trkpt lat="45.25806" lon="0.41862">
        <ele>88</ele>
        <time>2015-11-17T14:39:43Z</time>
      </trkpt>
      <trkpt lat="45.25801" lon="0.41862">
        <ele>88</ele>
        <time>2015-11-17T14:39:48Z</time>
      </trkpt>
      <trkpt lat="45.25798" lon="0.41857">
        <ele>88</ele>
        <time>2015-11-17T14:39:52Z</time>
      </trkpt>
      <trkpt lat="45.25795" lon="0.41853">
        <ele>91</ele>
        <time>2015-11-17T14:40:06Z</time>
      </trkpt>
      <trkpt lat="45.25791" lon="0.41847">
        <ele>91</ele>
        <time>2015-11-17T14:40:10Z</time>
      </trkpt>
      <trkpt lat="45.25786" lon="0.41837">
        <ele>87</ele>
        <time>2015-11-17T14:40:14Z</time>
      </trkpt>
      <trkpt lat="45.25782" lon="0.41835">
        <ele>85</ele>
        <time>2015-11-17T14:40:19Z</time>
      </trkpt>
      <trkpt lat="45.25777" lon="0.41829">
        <ele>86</ele>
        <time>2015-11-17T14:40:23Z</time>
      </trkpt>
      <trkpt lat="45.25773" lon="0.4182">
        <ele>87</ele>
        <time>2015-11-17T14:40:28Z</time>
      </trkpt>
      <trkpt lat="45.2577" lon="0.41816">
        <ele>87</ele>
        <time>2015-11-17T14:40:32Z</time>
      </trkpt>
      <trkpt lat="45.25767" lon="0.41808">
        <ele>87</ele>
        <time>2015-11-17T14:40:37Z</time>
      </trkpt>
      <trkpt lat="45.25765" lon="0.41803">
        <ele>88</ele>
        <time>2015-11-17T14:40:41Z</time>
      </trkpt>
      <trkpt lat="45.25761" lon="0.418">
        <ele>90</ele>
        <time>2015-11-17T14:40:47Z</time>
      </trkpt>
      <trkpt lat="45.25757" lon="0.41798">
        <ele>93</ele>
        <time>2015-11-17T14:40:52Z</time>
      </trkpt>
      <trkpt lat="45.25753" lon="0.41798">
        <ele>100</ele>
        <time>2015-11-17T14:40:58Z</time>
      </trkpt>
      <trkpt lat="45.25749" lon="0.41793">
        <ele>100</ele>
        <time>2015-11-17T14:41:02Z</time>
      </trkpt>
      <trkpt lat="45.25744" lon="0.41791">
        <ele>101</ele>
        <time>2015-11-17T14:41:07Z</time>
      </trkpt>
      <trkpt lat="45.25741" lon="0.41786">
        <ele>102</ele>
        <time>2015-11-17T14:41:11Z</time>
      </trkpt>
      <trkpt lat="45.25737" lon="0.41781">
        <ele>101</ele>
        <time>2015-11-17T14:41:15Z</time>
      </trkpt>
      <trkpt lat="45.25736" lon="0.41774">
        <ele>100</ele>
        <time>2015-11-17T14:41:19Z</time>
      </trkpt>
      <trkpt lat="45.2573" lon="0.41759">
        <ele>99</ele>
        <time>2015-11-17T14:41:24Z</time>
      </trkpt>
      <trkpt lat="45.25723" lon="0.41754">
        <ele>100</ele>
        <time>2015-11-17T14:41:29Z</time>
      </trkpt>
      <trkpt lat="45.25719" lon="0.4175">
        <ele>98</ele>
        <time>2015-11-17T14:41:33Z</time>
      </trkpt>
      <trkpt lat="45.25713" lon="0.41748">
        <ele>99</ele>
        <time>2015-11-17T14:41:37Z</time>
      </trkpt>
      <trkpt lat="45.25707" lon="0.41744">
        <ele>98</ele>
        <time>2015-11-17T14:41:42Z</time>
      </trkpt>
      <trkpt lat="45.25705" lon="0.41739">
        <ele>97</ele>
        <time>2015-11-17T14:41:47Z</time>
      </trkpt>
      <trkpt lat="45.257" lon="0.41732">
        <ele>95</ele>
        <time>2015-11-17T14:41:52Z</time>
      </trkpt>
      <trkpt lat="45.25692" lon="0.41727">
        <ele>95</ele>
        <time>2015-11-17T14:41:57Z</time>
      </trkpt>
      <trkpt lat="45.25689" lon="0.41722">
        <ele>93</ele>
        <time>2015-11-17T14:42:03Z</time>
      </trkpt>
      <trkpt lat="45.25685" lon="0.41715">
        <ele>91</ele>
        <time>2015-11-17T14:42:07Z</time>
      </trkpt>
      <trkpt lat="45.2568" lon="0.4171">
        <ele>91</ele>
        <time>2015-11-17T14:42:11Z</time>
      </trkpt>
      <trkpt lat="45.25675" lon="0.41702">
        <ele>91</ele>
        <time>2015-11-17T14:42:16Z</time>
      </trkpt>
      <trkpt lat="45.25672" lon="0.41698">
        <ele>91</ele>
        <time>2015-11-17T14:42:20Z</time>
      </trkpt>
      <trkpt lat="45.25669" lon="0.41694">
        <ele>91</ele>
        <time>2015-11-17T14:42:24Z</time>
      </trkpt>
      <trkpt lat="45.25664" lon="0.41688">
        <ele>91</ele>
        <time>2015-11-17T14:42:29Z</time>
      </trkpt>
      <trkpt lat="45.2566" lon="0.41685">
        <ele>89</ele>
        <time>2015-11-17T14:42:37Z</time>
      </trkpt>
      <trkpt lat="45.25654" lon="0.41676">
        <ele>88</ele>
        <time>2015-11-17T14:42:41Z</time>
      </trkpt>
      <trkpt lat="45.25651" lon="0.4167">
        <ele>87</ele>
        <time>2015-11-17T14:42:45Z</time>
      </trkpt>
      <trkpt lat="45.25647" lon="0.41665">
        <ele>84</ele>
        <time>2015-11-17T14:42:49Z</time>
      </trkpt>
      <trkpt lat="45.25642" lon="0.4166">
        <ele>83</ele>
        <time>2015-11-17T14:42:54Z</time>
      </trkpt>
      <trkpt lat="45.25639" lon="0.41655">
        <ele>84</ele>
        <time>2015-11-17T14:42:58Z</time>
      </trkpt>
      <trkpt lat="45.25634" lon="0.41652">
        <ele>84</ele>
        <time>2015-11-17T14:43:03Z</time>
      </trkpt>
      <trkpt lat="45.2563" lon="0.4165">
        <ele>84</ele>
        <time>2015-11-17T14:43:08Z</time>
      </trkpt>
      <trkpt lat="45.25624" lon="0.41642">
        <ele>84</ele>
        <time>2015-11-17T14:43:13Z</time>
      </trkpt>
      <trkpt lat="45.25623" lon="0.41648">
        <ele>83</ele>
        <time>2015-11-17T14:43:17Z</time>
      </trkpt>
      <trkpt lat="45.25616" lon="0.41636">
        <ele>81</ele>
        <time>2015-11-17T14:43:22Z</time>
      </trkpt>
      <trkpt lat="45.25611" lon="0.41628">
        <ele>81</ele>
        <time>2015-11-17T14:43:26Z</time>
      </trkpt>
      <trkpt lat="45.25606" lon="0.41626">
        <ele>81</ele>
        <time>2015-11-17T14:43:30Z</time>
      </trkpt>
      <trkpt lat="45.25603" lon="0.41622">
        <ele>81</ele>
        <time>2015-11-17T14:43:34Z</time>
      </trkpt>
      <trkpt lat="45.25597" lon="0.41619">
        <ele>76</ele>
        <time>2015-11-17T14:43:38Z</time>
      </trkpt>
      <trkpt lat="45.25593" lon="0.41616">
        <ele>77</ele>
        <time>2015-11-17T14:43:42Z</time>
      </trkpt>
      <trkpt lat="45.25588" lon="0.41613">
        <ele>78</ele>
        <time>2015-11-17T14:43:47Z</time>
      </trkpt>
      <trkpt lat="45.25585" lon="0.4161">
        <ele>77</ele>
        <time>2015-11-17T14:43:52Z</time>
      </trkpt>
      <trkpt lat="45.25586" lon="0.41601">
        <ele>81</ele>
        <time>2015-11-17T14:43:56Z</time>
      </trkpt>
      <trkpt lat="45.25582" lon="0.41596">
        <ele>81</ele>
        <time>2015-11-17T14:44:01Z</time>
      </trkpt>
      <trkpt lat="45.25575" lon="0.41595">
        <ele>80</ele>
        <time>2015-11-17T14:44:05Z</time>
      </trkpt>
      <trkpt lat="45.25572" lon="0.41592">
        <ele>83</ele>
        <time>2015-11-17T14:44:09Z</time>
      </trkpt>
      <trkpt lat="45.25568" lon="0.41587">
        <ele>84</ele>
        <time>2015-11-17T14:44:14Z</time>
      </trkpt>
      <trkpt lat="45.25564" lon="0.41581">
        <ele>84</ele>
        <time>2015-11-17T14:44:18Z</time>
      </trkpt>
      <trkpt lat="45.2556" lon="0.41578">
        <ele>84</ele>
        <time>2015-11-17T14:44:22Z</time>
      </trkpt>
      <trkpt lat="45.25557" lon="0.41569">
        <ele>85</ele>
        <time>2015-11-17T14:44:27Z</time>
      </trkpt>
      <trkpt lat="45.25555" lon="0.41563">
        <ele>85</ele>
        <time>2015-11-17T14:44:32Z</time>
      </trkpt>
      <trkpt lat="45.25552" lon="0.41561">
        <ele>82</ele>
        <time>2015-11-17T14:44:37Z</time>
      </trkpt>
      <trkpt lat="45.2555" lon="0.41557">
        <ele>81</ele>
        <time>2015-11-17T14:44:41Z</time>
      </trkpt>
      <trkpt lat="45.25545" lon="0.41554">
        <ele>79</ele>
        <time>2015-11-17T14:44:45Z</time>
      </trkpt>
      <trkpt lat="45.25543" lon="0.41548">
        <ele>77</ele>
        <time>2015-11-17T14:44:49Z</time>
      </trkpt>
      <trkpt lat="45.2554" lon="0.41545">
        <ele>78</ele>
        <time>2015-11-17T14:44:54Z</time>
      </trkpt>
      <trkpt lat="45.2554" lon="0.41539">
        <ele>78</ele>
        <time>2015-11-17T14:44:58Z</time>
      </trkpt>
      <trkpt lat="45.25538" lon="0.41534">
        <ele>78</ele>
        <time>2015-11-17T14:45:02Z</time>
      </trkpt>
      <trkpt lat="45.25535" lon="0.4153">
        <ele>80</ele>
        <time>2015-11-17T14:45:07Z</time>
      </trkpt>
      <trkpt lat="45.2553" lon="0.41524">
        <ele>80</ele>
        <time>2015-11-17T14:45:12Z</time>
      </trkpt>
      <trkpt lat="45.25528" lon="0.4152">
        <ele>84</ele>
        <time>2015-11-17T14:45:16Z</time>
      </trkpt>
      <trkpt lat="45.25526" lon="0.41515">
        <ele>84</ele>
        <time>2015-11-17T14:45:21Z</time>
      </trkpt>
      <trkpt lat="45.25522" lon="0.41512">
        <ele>86</ele>
        <time>2015-11-17T14:45:25Z</time>
      </trkpt>
      <trkpt lat="45.25518" lon="0.41503">
        <ele>85</ele>
        <time>2015-11-17T14:45:29Z</time>
      </trkpt>
      <trkpt lat="45.25512" lon="0.41496">
        <ele>84</ele>
        <time>2015-11-17T14:45:34Z</time>
      </trkpt>
      <trkpt lat="45.2551" lon="0.41493">
        <ele>86</ele>
        <time>2015-11-17T14:45:41Z</time>
      </trkpt>
      <trkpt lat="45.25507" lon="0.41482">
        <ele>83</ele>
        <time>2015-11-17T14:45:46Z</time>
      </trkpt>
      <trkpt lat="45.25504" lon="0.41477">
        <ele>81</ele>
        <time>2015-11-17T14:45:51Z</time>
      </trkpt>
      <trkpt lat="45.25501" lon="0.4147">
        <ele>79</ele>
        <time>2015-11-17T14:45:56Z</time>
      </trkpt>
      <trkpt lat="45.25499" lon="0.41462">
        <ele>77</ele>
        <time>2015-11-17T14:46:00Z</time>
      </trkpt>
      <trkpt lat="45.25495" lon="0.41457">
        <ele>80</ele>
        <time>2015-11-17T14:46:04Z</time>
      </trkpt>
      <trkpt lat="45.25492" lon="0.41453">
        <ele>82</ele>
        <time>2015-11-17T14:46:10Z</time>
      </trkpt>
      <trkpt lat="45.25485" lon="0.41447">
        <ele>82</ele>
        <time>2015-11-17T14:46:14Z</time>
      </trkpt>
      <trkpt lat="45.25479" lon="0.41442">
        <ele>84</ele>
        <time>2015-11-17T14:46:19Z</time>
      </trkpt>
      <trkpt lat="45.25477" lon="0.41437">
        <ele>86</ele>
        <time>2015-11-17T14:46:25Z</time>
      </trkpt>
      <trkpt lat="45.25473" lon="0.41437">
        <ele>90</ele>
        <time>2015-11-17T14:46:29Z</time>
      </trkpt>
      <trkpt lat="45.2547" lon="0.41438">
        <ele>90</ele>
        <time>2015-11-17T14:46:34Z</time>
      </trkpt>
      <trkpt lat="45.25463" lon="0.4144">
        <ele>84</ele>
        <time>2015-11-17T14:46:39Z</time>
      </trkpt>
      <trkpt lat="45.25457" lon="0.41445">
        <ele>81</ele>
        <time>2015-11-17T14:46:44Z</time>
      </trkpt>
      <trkpt lat="45.25454" lon="0.41447">
        <ele>83</ele>
        <time>2015-11-17T14:46:58Z</time>
      </trkpt>
      <trkpt lat="45.25447" lon="0.41453">
        <ele>84</ele>
        <time>2015-11-17T14:47:02Z</time>
      </trkpt>
      <trkpt lat="45.25439" lon="0.41456">
        <ele>83</ele>
        <time>2015-11-17T14:47:06Z</time>
      </trkpt>
      <trkpt lat="45.25432" lon="0.41458">
        <ele>81</ele>
        <time>2015-11-17T14:47:10Z</time>
      </trkpt>
      <trkpt lat="45.25428" lon="0.41459">
        <ele>81</ele>
        <time>2015-11-17T14:47:14Z</time>
      </trkpt>
      <trkpt lat="45.25421" lon="0.41463">
        <ele>81</ele>
        <time>2015-11-17T14:47:18Z</time>
      </trkpt>
      <trkpt lat="45.25415" lon="0.41465">
        <ele>79</ele>
        <time>2015-11-17T14:47:22Z</time>
      </trkpt>
      <trkpt lat="45.25413" lon="0.41471">
        <ele>82</ele>
        <time>2015-11-17T14:47:27Z</time>
      </trkpt>
      <trkpt lat="45.2541" lon="0.41476">
        <ele>84</ele>
        <time>2015-11-17T14:47:32Z</time>
      </trkpt>
      <trkpt lat="45.25406" lon="0.4148">
        <ele>85</ele>
        <time>2015-11-17T14:47:36Z</time>
      </trkpt>
      <trkpt lat="45.25402" lon="0.4148">
        <ele>86</ele>
        <time>2015-11-17T14:47:42Z</time>
      </trkpt>
      <trkpt lat="45.254" lon="0.41483">
        <ele>88</ele>
        <time>2015-11-17T14:47:57Z</time>
      </trkpt>
      <trkpt lat="45.25392" lon="0.41491">
        <ele>89</ele>
        <time>2015-11-17T14:48:02Z</time>
      </trkpt>
      <trkpt lat="45.25389" lon="0.41492">
        <ele>87</ele>
        <time>2015-11-17T14:48:06Z</time>
      </trkpt>
      <trkpt lat="45.25385" lon="0.41498">
        <ele>89</ele>
        <time>2015-11-17T14:48:11Z</time>
      </trkpt>
      <trkpt lat="45.25384" lon="0.41503">
        <ele>90</ele>
        <time>2015-11-17T14:48:17Z</time>
      </trkpt>
      <trkpt lat="45.25377" lon="0.41506">
        <ele>85</ele>
        <time>2015-11-17T14:48:21Z</time>
      </trkpt>
      <trkpt lat="45.25373" lon="0.41509">
        <ele>85</ele>
        <time>2015-11-17T14:48:25Z</time>
      </trkpt>
      <trkpt lat="45.25365" lon="0.41513">
        <ele>81</ele>
        <time>2015-11-17T14:48:29Z</time>
      </trkpt>
      <trkpt lat="45.25359" lon="0.41515">
        <ele>81</ele>
        <time>2015-11-17T14:48:34Z</time>
      </trkpt>
      <trkpt lat="45.25355" lon="0.41521">
        <ele>80</ele>
        <time>2015-11-17T14:48:38Z</time>
      </trkpt>
      <trkpt lat="45.2535" lon="0.41527">
        <ele>80</ele>
        <time>2015-11-17T14:48:43Z</time>
      </trkpt>
      <trkpt lat="45.25346" lon="0.41528">
        <ele>80</ele>
        <time>2015-11-17T14:48:47Z</time>
      </trkpt>
      <trkpt lat="45.25339" lon="0.41531">
        <ele>78</ele>
        <time>2015-11-17T14:48:52Z</time>
      </trkpt>
      <trkpt lat="45.25335" lon="0.41534">
        <ele>77</ele>
        <time>2015-11-17T14:48:56Z</time>
      </trkpt>
      <trkpt lat="45.25332" lon="0.41539">
        <ele>78</ele>
        <time>2015-11-17T14:49:01Z</time>
      </trkpt>
      <trkpt lat="45.25324" lon="0.41545">
        <ele>75</ele>
        <time>2015-11-17T14:49:06Z</time>
      </trkpt>
      <trkpt lat="45.25318" lon="0.41551">
        <ele>73</ele>
        <time>2015-11-17T14:49:10Z</time>
      </trkpt>
      <trkpt lat="45.25312" lon="0.41554">
        <ele>69</ele>
        <time>2015-11-17T14:49:14Z</time>
      </trkpt>
      <trkpt lat="45.2531" lon="0.41557">
        <ele>68</ele>
        <time>2015-11-17T14:49:20Z</time>
      </trkpt>
      <trkpt lat="45.25303" lon="0.41563">
        <ele>71</ele>
        <time>2015-11-17T14:49:25Z</time>
      </trkpt>
      <trkpt lat="45.25297" lon="0.41566">
        <ele>72</ele>
        <time>2015-11-17T14:49:29Z</time>
      </trkpt>
      <trkpt lat="45.25293" lon="0.41567">
        <ele>71</ele>
        <time>2015-11-17T14:49:33Z</time>
      </trkpt>
      <trkpt lat="45.2529" lon="0.41571">
        <ele>70</ele>
        <time>2015-11-17T14:49:38Z</time>
      </trkpt>
      <trkpt lat="45.25285" lon="0.41575">
        <ele>70</ele>
        <time>2015-11-17T14:49:42Z</time>
      </trkpt>
      <trkpt lat="45.2528" lon="0.41577">
        <ele>70</ele>
        <time>2015-11-17T14:49:46Z</time>
      </trkpt>
      <trkpt lat="45.25275" lon="0.41581">
        <ele>68</ele>
        <time>2015-11-17T14:49:50Z</time>
      </trkpt>
      <trkpt lat="45.25271" lon="0.41583">
        <ele>69</ele>
        <time>2015-11-17T14:49:55Z</time>
      </trkpt>
      <trkpt lat="45.25265" lon="0.41591">
        <ele>68</ele>
        <time>2015-11-17T14:50:00Z</time>
      </trkpt>
      <trkpt lat="45.25262" lon="0.41597">
        <ele>67</ele>
        <time>2015-11-17T14:50:04Z</time>
      </trkpt>
      <trkpt lat="45.25257" lon="0.41602">
        <ele>68</ele>
        <time>2015-11-17T14:50:09Z</time>
      </trkpt>
      <trkpt lat="45.25254" lon="0.41603">
        <ele>69</ele>
        <time>2015-11-17T14:50:14Z</time>
      </trkpt>
      <trkpt lat="45.25252" lon="0.41607">
        <ele>68</ele>
        <time>2015-11-17T14:50:20Z</time>
      </trkpt>
      <trkpt lat="45.25253" lon="0.41613">
        <ele>67</ele>
        <time>2015-11-17T14:50:24Z</time>
      </trkpt>
      <trkpt lat="45.25255" lon="0.41618">
        <ele>67</ele>
        <time>2015-11-17T14:50:29Z</time>
      </trkpt>
      <trkpt lat="45.25257" lon="0.41622">
        <ele>67</ele>
        <time>2015-11-17T14:50:33Z</time>
      </trkpt>
      <trkpt lat="45.25257" lon="0.41628">
        <ele>72</ele>
        <time>2015-11-17T14:50:40Z</time>
      </trkpt>
      <trkpt lat="45.25257" lon="0.41633">
        <ele>74</ele>
        <time>2015-11-17T14:50:48Z</time>
      </trkpt>
      <trkpt lat="45.25259" lon="0.41639">
        <ele>73</ele>
        <time>2015-11-17T14:50:52Z</time>
      </trkpt>
      <trkpt lat="45.25262" lon="0.41645">
        <ele>71</ele>
        <time>2015-11-17T14:50:57Z</time>
      </trkpt>
      <trkpt lat="45.25265" lon="0.41651">
        <ele>70</ele>
        <time>2015-11-17T14:51:01Z</time>
      </trkpt>
      <trkpt lat="45.25268" lon="0.41651">
        <ele>71</ele>
        <time>2015-11-17T14:51:07Z</time>
      </trkpt>
      <trkpt lat="45.2527" lon="0.41657">
        <ele>69</ele>
        <time>2015-11-17T14:51:11Z</time>
      </trkpt>
      <trkpt lat="45.25272" lon="0.41662">
        <ele>70</ele>
        <time>2015-11-17T14:51:15Z</time>
      </trkpt>
      <trkpt lat="45.25274" lon="0.4167">
        <ele>68</ele>
        <time>2015-11-17T14:51:19Z</time>
      </trkpt>
      <trkpt lat="45.25276" lon="0.41675">
        <ele>69</ele>
        <time>2015-11-17T14:51:23Z</time>
      </trkpt>
      <trkpt lat="45.25278" lon="0.41682">
        <ele>70</ele>
        <time>2015-11-17T14:51:27Z</time>
      </trkpt>
      <trkpt lat="45.25279" lon="0.41687">
        <ele>73</ele>
        <time>2015-11-17T14:52:09Z</time>
      </trkpt>
      <trkpt lat="45.25279" lon="0.41699">
        <ele>67</ele>
        <time>2015-11-17T14:52:14Z</time>
      </trkpt>
      <trkpt lat="45.25282" lon="0.417">
        <ele>68</ele>
        <time>2015-11-17T14:52:35Z</time>
      </trkpt>
      <trkpt lat="45.25279" lon="0.41704">
        <ele>70</ele>
        <time>2015-11-17T14:53:51Z</time>
      </trkpt>
      <trkpt lat="45.25282" lon="0.41708">
        <ele>74</ele>
        <time>2015-11-17T14:55:07Z</time>
      </trkpt>
      <trkpt lat="45.25284" lon="0.41712">
        <ele>74</ele>
        <time>2015-11-17T14:55:16Z</time>
      </trkpt>
      <trkpt lat="45.25288" lon="0.41712">
        <ele>73</ele>
        <time>2015-11-17T14:55:21Z</time>
      </trkpt>
      <trkpt lat="45.25293" lon="0.41711">
        <ele>72</ele>
        <time>2015-11-17T14:55:26Z</time>
      </trkpt>
      <trkpt lat="45.25297" lon="0.4171">
        <ele>71</ele>
        <time>2015-11-17T14:55:30Z</time>
      </trkpt>
      <trkpt lat="45.25301" lon="0.4171">
        <ele>72</ele>
        <time>2015-11-17T14:55:34Z</time>
      </trkpt>
      <trkpt lat="45.25306" lon="0.41707">
        <ele>72</ele>
        <time>2015-11-17T14:55:39Z</time>
      </trkpt>
      <trkpt lat="45.2531" lon="0.41704">
        <ele>73</ele>
        <time>2015-11-17T14:55:43Z</time>
      </trkpt>
      <trkpt lat="45.25315" lon="0.41707">
        <ele>74</ele>
        <time>2015-11-17T14:55:48Z</time>
      </trkpt>
      <trkpt lat="45.25319" lon="0.41706">
        <ele>75</ele>
        <time>2015-11-17T14:55:53Z</time>
      </trkpt>
      <trkpt lat="45.25323" lon="0.41703">
        <ele>76</ele>
        <time>2015-11-17T14:55:57Z</time>
      </trkpt>
      <trkpt lat="45.25329" lon="0.41702">
        <ele>76</ele>
        <time>2015-11-17T14:56:02Z</time>
      </trkpt>
      <trkpt lat="45.25333" lon="0.41702">
        <ele>76</ele>
        <time>2015-11-17T14:56:08Z</time>
      </trkpt>
      <trkpt lat="45.25335" lon="0.41707">
        <ele>77</ele>
        <time>2015-11-17T14:56:13Z</time>
      </trkpt>
      <trkpt lat="45.25338" lon="0.41711">
        <ele>73</ele>
        <time>2015-11-17T14:56:19Z</time>
      </trkpt>
      <trkpt lat="45.25337" lon="0.41717">
        <ele>71</ele>
        <time>2015-11-17T14:56:27Z</time>
      </trkpt>
      <trkpt lat="45.25334" lon="0.4172">
        <ele>70</ele>
        <time>2015-11-17T14:56:34Z</time>
      </trkpt>
      <trkpt lat="45.25331" lon="0.41725">
        <ele>68</ele>
        <time>2015-11-17T14:56:38Z</time>
      </trkpt>
      <trkpt lat="45.25329" lon="0.41732">
        <ele>69</ele>
        <time>2015-11-17T14:56:43Z</time>
      </trkpt>
      <trkpt lat="45.25324" lon="0.41733">
        <ele>70</ele>
        <time>2015-11-17T14:56:47Z</time>
      </trkpt>
      <trkpt lat="45.25322" lon="0.41742">
        <ele>67</ele>
        <time>2015-11-17T14:56:52Z</time>
      </trkpt>
      <trkpt lat="45.25319" lon="0.41749">
        <ele>67</ele>
        <time>2015-11-17T14:56:56Z</time>
      </trkpt>
      <trkpt lat="45.25317" lon="0.41751">
        <ele>68</ele>
        <time>2015-11-17T14:57:00Z</time>
      </trkpt>
      <trkpt lat="45.25318" lon="0.41764">
        <ele>68</ele>
        <time>2015-11-17T14:57:04Z</time>
      </trkpt>
      <trkpt lat="45.25321" lon="0.41774">
        <ele>70</ele>
        <time>2015-11-17T14:57:09Z</time>
      </trkpt>
      <trkpt lat="45.25327" lon="0.41782">
        <ele>69</ele>
        <time>2015-11-17T14:57:14Z</time>
      </trkpt>
      <trkpt lat="45.25331" lon="0.41787">
        <ele>68</ele>
        <time>2015-11-17T14:57:18Z</time>
      </trkpt>
      <trkpt lat="45.25335" lon="0.41793">
        <ele>68</ele>
        <time>2015-11-17T14:57:22Z</time>
      </trkpt>
      <trkpt lat="45.25338" lon="0.41801">
        <ele>69</ele>
        <time>2015-11-17T14:57:27Z</time>
      </trkpt>
      <trkpt lat="45.25342" lon="0.41804">
        <ele>68</ele>
        <time>2015-11-17T14:57:31Z</time>
      </trkpt>
      <trkpt lat="45.25347" lon="0.41808">
        <ele>69</ele>
        <time>2015-11-17T14:57:35Z</time>
      </trkpt>
      <trkpt lat="45.2535" lon="0.41815">
        <ele>70</ele>
        <time>2015-11-17T14:57:40Z</time>
      </trkpt>
      <trkpt lat="45.25353" lon="0.41818">
        <ele>69</ele>
        <time>2015-11-17T14:57:44Z</time>
      </trkpt>
      <trkpt lat="45.25358" lon="0.41824">
        <ele>68</ele>
        <time>2015-11-17T14:57:49Z</time>
      </trkpt>
      <trkpt lat="45.2536" lon="0.41829">
        <ele>70</ele>
        <time>2015-11-17T14:57:53Z</time>
      </trkpt>
      <trkpt lat="45.25363" lon="0.41835">
        <ele>71</ele>
        <time>2015-11-17T14:57:58Z</time>
      </trkpt>
      <trkpt lat="45.25366" lon="0.41839">
        <ele>71</ele>
        <time>2015-11-17T14:58:02Z</time>
      </trkpt>
      <trkpt lat="45.2537" lon="0.41842">
        <ele>71</ele>
        <time>2015-11-17T14:58:06Z</time>
      </trkpt>
      <trkpt lat="45.25373" lon="0.41847">
        <ele>73</ele>
        <time>2015-11-17T14:58:10Z</time>
      </trkpt>
      <trkpt lat="45.25375" lon="0.41851">
        <ele>75</ele>
        <time>2015-11-17T14:58:15Z</time>
      </trkpt>
      <trkpt lat="45.25378" lon="0.41856">
        <ele>78</ele>
        <time>2015-11-17T14:58:20Z</time>
      </trkpt>
      <trkpt lat="45.25382" lon="0.41862">
        <ele>77</ele>
        <time>2015-11-17T14:58:24Z</time>
      </trkpt>
      <trkpt lat="45.25385" lon="0.41866">
        <ele>77</ele>
        <time>2015-11-17T14:58:28Z</time>
      </trkpt>
      <trkpt lat="45.25387" lon="0.41872">
        <ele>78</ele>
        <time>2015-11-17T14:58:32Z</time>
      </trkpt>
      <trkpt lat="45.25386" lon="0.41877">
        <ele>77</ele>
        <time>2015-11-17T14:58:36Z</time>
      </trkpt>
      <trkpt lat="45.25385" lon="0.41885">
        <ele>79</ele>
        <time>2015-11-17T14:58:41Z</time>
      </trkpt>
      <trkpt lat="45.25386" lon="0.41891">
        <ele>80</ele>
        <time>2015-11-17T14:58:45Z</time>
      </trkpt>
      <trkpt lat="45.2539" lon="0.41897">
        <ele>81</ele>
        <time>2015-11-17T14:58:49Z</time>
      </trkpt>
      <trkpt lat="45.25396" lon="0.41904">
        <ele>77</ele>
        <time>2015-11-17T14:58:54Z</time>
      </trkpt>
      <trkpt lat="45.25399" lon="0.4191">
        <ele>75</ele>
        <time>2015-11-17T14:58:59Z</time>
      </trkpt>
      <trkpt lat="45.25404" lon="0.41915">
        <ele>74</ele>
        <time>2015-11-17T14:59:03Z</time>
      </trkpt>
      <trkpt lat="45.25408" lon="0.41918">
        <ele>74</ele>
        <time>2015-11-17T14:59:07Z</time>
      </trkpt>
      <trkpt lat="45.25412" lon="0.41922">
        <ele>72</ele>
        <time>2015-11-17T14:59:11Z</time>
      </trkpt>
      <trkpt lat="45.25417" lon="0.41925">
        <ele>71</ele>
        <time>2015-11-17T14:59:16Z</time>
      </trkpt>
      <trkpt lat="45.25421" lon="0.41926">
        <ele>71</ele>
        <time>2015-11-17T14:59:20Z</time>
      </trkpt>
      <trkpt lat="45.25427" lon="0.41927">
        <ele>70</ele>
        <time>2015-11-17T14:59:24Z</time>
      </trkpt>
      <trkpt lat="45.25432" lon="0.41928">
        <ele>71</ele>
        <time>2015-11-17T14:59:28Z</time>
      </trkpt>
      <trkpt lat="45.25439" lon="0.41931">
        <ele>69</ele>
        <time>2015-11-17T14:59:33Z</time>
      </trkpt>
      <trkpt lat="45.25441" lon="0.41934">
        <ele>68</ele>
        <time>2015-11-17T14:59:37Z</time>
      </trkpt>
      <trkpt lat="45.25444" lon="0.41939">
        <ele>69</ele>
        <time>2015-11-17T14:59:41Z</time>
      </trkpt>
      <trkpt lat="45.25445" lon="0.41946">
        <ele>71</ele>
        <time>2015-11-17T14:59:46Z</time>
      </trkpt>
      <trkpt lat="45.25447" lon="0.41954">
        <ele>71</ele>
        <time>2015-11-17T14:59:51Z</time>
      </trkpt>
      <trkpt lat="45.25449" lon="0.41961">
        <ele>70</ele>
        <time>2015-11-17T14:59:55Z</time>
      </trkpt>
      <trkpt lat="45.25451" lon="0.41968">
        <ele>72</ele>
        <time>2015-11-17T14:59:59Z</time>
      </trkpt>
      <trkpt lat="45.25452" lon="0.41973">
        <ele>71</ele>
        <time>2015-11-17T15:00:03Z</time>
      </trkpt>
      <trkpt lat="45.25453" lon="0.41979">
        <ele>71</ele>
        <time>2015-11-17T15:00:07Z</time>
      </trkpt>
      <trkpt lat="45.25455" lon="0.41987">
        <ele>71</ele>
        <time>2015-11-17T15:00:12Z</time>
      </trkpt>
      <trkpt lat="45.25456" lon="0.41993">
        <ele>73</ele>
        <time>2015-11-17T15:00:16Z</time>
      </trkpt>
      <trkpt lat="45.25458" lon="0.42">
        <ele>74</ele>
        <time>2015-11-17T15:00:21Z</time>
      </trkpt>
      <trkpt lat="45.25458" lon="0.42007">
        <ele>75</ele>
        <time>2015-11-17T15:00:26Z</time>
      </trkpt>
      <trkpt lat="45.25459" lon="0.42012">
        <ele>77</ele>
        <time>2015-11-17T15:00:30Z</time>
      </trkpt>
      <trkpt lat="45.2546" lon="0.42019">
        <ele>76</ele>
        <time>2015-11-17T15:00:34Z</time>
      </trkpt>
      <trkpt lat="45.25461" lon="0.42027">
        <ele>76</ele>
        <time>2015-11-17T15:00:39Z</time>
      </trkpt>
      <trkpt lat="45.25462" lon="0.42036">
        <ele>78</ele>
        <time>2015-11-17T15:00:44Z</time>
      </trkpt>
      <trkpt lat="45.25464" lon="0.42042">
        <ele>78</ele>
        <time>2015-11-17T15:00:48Z</time>
      </trkpt>
      <trkpt lat="45.25464" lon="0.4205">
        <ele>80</ele>
        <time>2015-11-17T15:00:53Z</time>
      </trkpt>
      <trkpt lat="45.25466" lon="0.42059">
        <ele>81</ele>
        <time>2015-11-17T15:00:58Z</time>
      </trkpt>
      <trkpt lat="45.25466" lon="0.42066">
        <ele>81</ele>
        <time>2015-11-17T15:01:02Z</time>
      </trkpt>
      <trkpt lat="45.25467" lon="0.42072">
        <ele>79</ele>
        <time>2015-11-17T15:01:06Z</time>
      </trkpt>
      <trkpt lat="45.2547" lon="0.42078">
        <ele>77</ele>
        <time>2015-11-17T15:01:11Z</time>
      </trkpt>
      <trkpt lat="45.25471" lon="0.42084">
        <ele>79</ele>
        <time>2015-11-17T15:01:15Z</time>
      </trkpt>
      <trkpt lat="45.25475" lon="0.42091">
        <ele>77</ele>
        <time>2015-11-17T15:01:19Z</time>
      </trkpt>
      <trkpt lat="45.25475" lon="0.42097">
        <ele>76</ele>
        <time>2015-11-17T15:01:23Z</time>
      </trkpt>
      <trkpt lat="45.25477" lon="0.42102">
        <ele>78</ele>
        <time>2015-11-17T15:01:28Z</time>
      </trkpt>
      <trkpt lat="45.25484" lon="0.42108">
        <ele>76</ele>
        <time>2015-11-17T15:01:33Z</time>
      </trkpt>
      <trkpt lat="45.25486" lon="0.42112">
        <ele>75</ele>
        <time>2015-11-17T15:01:37Z</time>
      </trkpt>
      <trkpt lat="45.25488" lon="0.42116">
        <ele>75</ele>
        <time>2015-11-17T15:01:41Z</time>
      </trkpt>
      <trkpt lat="45.25496" lon="0.42125">
        <ele>69</ele>
        <time>2015-11-17T15:01:46Z</time>
      </trkpt>
      <trkpt lat="45.25498" lon="0.42131">
        <ele>71</ele>
        <time>2015-11-17T15:01:50Z</time>
      </trkpt>
      <trkpt lat="45.25501" lon="0.42138">
        <ele>72</ele>
        <time>2015-11-17T15:01:55Z</time>
      </trkpt>
      <trkpt lat="45.25503" lon="0.42143">
        <ele>73</ele>
        <time>2015-11-17T15:01:59Z</time>
      </trkpt>
      <trkpt lat="45.25501" lon="0.42149">
        <ele>74</ele>
        <time>2015-11-17T15:02:04Z</time>
      </trkpt>
      <trkpt lat="45.25501" lon="0.42154">
        <ele>74</ele>
        <time>2015-11-17T15:02:08Z</time>
      </trkpt>
      <trkpt lat="45.25498" lon="0.42155">
        <ele>73</ele>
        <time>2015-11-17T15:02:14Z</time>
      </trkpt>
      <trkpt lat="45.25493" lon="0.42157">
        <ele>75</ele>
        <time>2015-11-17T15:02:19Z</time>
      </trkpt>
      <trkpt lat="45.2549" lon="0.42161">
        <ele>75</ele>
        <time>2015-11-17T15:02:23Z</time>
      </trkpt>
      <trkpt lat="45.25486" lon="0.42164">
        <ele>72</ele>
        <time>2015-11-17T15:02:29Z</time>
      </trkpt>
      <trkpt lat="45.25482" lon="0.42169">
        <ele>72</ele>
        <time>2015-11-17T15:02:33Z</time>
      </trkpt>
      <trkpt lat="45.25478" lon="0.42178">
        <ele>70</ele>
        <time>2015-11-17T15:02:38Z</time>
      </trkpt>
      <trkpt lat="45.25473" lon="0.42184">
        <ele>68</ele>
        <time>2015-11-17T15:02:43Z</time>
      </trkpt>
      <trkpt lat="45.25473" lon="0.42195">
        <ele>69</ele>
        <time>2015-11-17T15:02:47Z</time>
      </trkpt>
      <trkpt lat="45.25474" lon="0.42201">
        <ele>70</ele>
        <time>2015-11-17T15:02:58Z</time>
      </trkpt>
      <trkpt lat="45.25474" lon="0.42207">
        <ele>71</ele>
        <time>2015-11-17T15:03:18Z</time>
      </trkpt>
      <trkpt lat="45.25473" lon="0.42213">
        <ele>71</ele>
        <time>2015-11-17T15:03:26Z</time>
      </trkpt>
      <trkpt lat="45.25471" lon="0.42217">
        <ele>68</ele>
        <time>2015-11-17T15:03:32Z</time>
      </trkpt>
      <trkpt lat="45.25468" lon="0.42223">
        <ele>68</ele>
        <time>2015-11-17T15:03:36Z</time>
      </trkpt>
      <trkpt lat="45.25466" lon="0.42227">
        <ele>65</ele>
        <time>2015-11-17T15:03:42Z</time>
      </trkpt>
      <trkpt lat="45.25463" lon="0.42227">
        <ele>64</ele>
        <time>2015-11-17T15:03:49Z</time>
      </trkpt>
      <trkpt lat="45.25461" lon="0.42235">
        <ele>64</ele>
        <time>2015-11-17T15:03:53Z</time>
      </trkpt>
      <trkpt lat="45.25457" lon="0.42244">
        <ele>68</ele>
        <time>2015-11-17T15:03:58Z</time>
      </trkpt>
      <trkpt lat="45.25454" lon="0.42248">
        <ele>71</ele>
        <time>2015-11-17T15:04:05Z</time>
      </trkpt>
      <trkpt lat="45.25451" lon="0.42255">
        <ele>73</ele>
        <time>2015-11-17T15:04:10Z</time>
      </trkpt>
      <trkpt lat="45.25448" lon="0.42255">
        <ele>73</ele>
        <time>2015-11-17T15:04:16Z</time>
      </trkpt>
      <trkpt lat="45.25439" lon="0.42259">
        <ele>73</ele>
        <time>2015-11-17T15:04:21Z</time>
      </trkpt>
      <trkpt lat="45.25437" lon="0.42264">
        <ele>71</ele>
        <time>2015-11-17T15:04:25Z</time>
      </trkpt>
      <trkpt lat="45.25431" lon="0.42262">
        <ele>72</ele>
        <time>2015-11-17T15:04:30Z</time>
      </trkpt>
      <trkpt lat="45.25428" lon="0.42266">
        <ele>75</ele>
        <time>2015-11-17T15:04:34Z</time>
      </trkpt>
      <trkpt lat="45.25421" lon="0.42275">
        <ele>72</ele>
        <time>2015-11-17T15:04:39Z</time>
      </trkpt>
      <trkpt lat="45.25418" lon="0.4229">
        <ele>70</ele>
        <time>2015-11-17T15:04:43Z</time>
      </trkpt>
      <trkpt lat="45.25414" lon="0.42297">
        <ele>68</ele>
        <time>2015-11-17T15:04:47Z</time>
      </trkpt>
      <trkpt lat="45.25409" lon="0.423">
        <ele>68</ele>
        <time>2015-11-17T15:04:52Z</time>
      </trkpt>
      <trkpt lat="45.25407" lon="0.42311">
        <ele>67</ele>
        <time>2015-11-17T15:04:56Z</time>
      </trkpt>
      <trkpt lat="45.25403" lon="0.42311">
        <ele>67</ele>
        <time>2015-11-17T15:05:00Z</time>
      </trkpt>
      <trkpt lat="45.25399" lon="0.42317">
        <ele>68</ele>
        <time>2015-11-17T15:05:04Z</time>
      </trkpt>
      <trkpt lat="45.25393" lon="0.42321">
        <ele>68</ele>
        <time>2015-11-17T15:05:09Z</time>
      </trkpt>
      <trkpt lat="45.25393" lon="0.42329">
        <ele>68</ele>
        <time>2015-11-17T15:05:13Z</time>
      </trkpt>
      <trkpt lat="45.25391" lon="0.42335">
        <ele>69</ele>
        <time>2015-11-17T15:05:17Z</time>
      </trkpt>
      <trkpt lat="45.25388" lon="0.42339">
        <ele>71</ele>
        <time>2015-11-17T15:05:22Z</time>
      </trkpt>
      <trkpt lat="45.25385" lon="0.42347">
        <ele>70</ele>
        <time>2015-11-17T15:05:27Z</time>
      </trkpt>
      <trkpt lat="45.25382" lon="0.42352">
        <ele>73</ele>
        <time>2015-11-17T15:05:31Z</time>
      </trkpt>
      <trkpt lat="45.25381" lon="0.42359">
        <ele>72</ele>
        <time>2015-11-17T15:05:35Z</time>
      </trkpt>
      <trkpt lat="45.25377" lon="0.42363">
        <ele>71</ele>
        <time>2015-11-17T15:05:39Z</time>
      </trkpt>
      <trkpt lat="45.25377" lon="0.42372">
        <ele>71</ele>
        <time>2015-11-17T15:05:43Z</time>
      </trkpt>
      <trkpt lat="45.25373" lon="0.42376">
        <ele>71</ele>
        <time>2015-11-17T15:05:49Z</time>
      </trkpt>
      <trkpt lat="45.25372" lon="0.42381">
        <ele>71</ele>
        <time>2015-11-17T15:05:53Z</time>
      </trkpt>
      <trkpt lat="45.2537" lon="0.42386">
        <ele>69</ele>
        <time>2015-11-17T15:05:58Z</time>
      </trkpt>
      <trkpt lat="45.25368" lon="0.42393">
        <ele>69</ele>
        <time>2015-11-17T15:06:02Z</time>
      </trkpt>
      <trkpt lat="45.25369" lon="0.42403">
        <ele>70</ele>
        <time>2015-11-17T15:06:06Z</time>
      </trkpt>
      <trkpt lat="45.25367" lon="0.42408">
        <ele>70</ele>
        <time>2015-11-17T15:06:10Z</time>
      </trkpt>
      <trkpt lat="45.25365" lon="0.42416">
        <ele>70</ele>
        <time>2015-11-17T15:06:14Z</time>
      </trkpt>
      <trkpt lat="45.2536" lon="0.42415">
        <ele>72</ele>
        <time>2015-11-17T15:06:18Z</time>
      </trkpt>
      <trkpt lat="45.25357" lon="0.42415">
        <ele>74</ele>
        <time>2015-11-17T15:06:22Z</time>
      </trkpt>
      <trkpt lat="45.2535" lon="0.42416">
        <ele>73</ele>
        <time>2015-11-17T15:06:26Z</time>
      </trkpt>
      <trkpt lat="45.25347" lon="0.42423">
        <ele>71</ele>
        <time>2015-11-17T15:06:30Z</time>
      </trkpt>
      <trkpt lat="45.25342" lon="0.42428">
        <ele>73</ele>
        <time>2015-11-17T15:06:35Z</time>
      </trkpt>
      <trkpt lat="45.25338" lon="0.4243">
        <ele>71</ele>
        <time>2015-11-17T15:06:39Z</time>
      </trkpt>
      <trkpt lat="45.25334" lon="0.42436">
        <ele>69</ele>
        <time>2015-11-17T15:06:44Z</time>
      </trkpt>
      <trkpt lat="45.25331" lon="0.42441">
        <ele>69</ele>
        <time>2015-11-17T15:06:48Z</time>
      </trkpt>
      <trkpt lat="45.25328" lon="0.42444">
        <ele>69</ele>
        <time>2015-11-17T15:06:52Z</time>
      </trkpt>
      <trkpt lat="45.25328" lon="0.42453">
        <ele>68</ele>
        <time>2015-11-17T15:06:56Z</time>
      </trkpt>
      <trkpt lat="45.25326" lon="0.42458">
        <ele>69</ele>
        <time>2015-11-17T15:07:01Z</time>
      </trkpt>
      <trkpt lat="45.25325" lon="0.42466">
        <ele>70</ele>
        <time>2015-11-17T15:07:06Z</time>
      </trkpt>
      <trkpt lat="45.25328" lon="0.42472">
        <ele>70</ele>
        <time>2015-11-17T15:07:10Z</time>
      </trkpt>
      <trkpt lat="45.25331" lon="0.42476">
        <ele>71</ele>
        <time>2015-11-17T15:07:14Z</time>
      </trkpt>
      <trkpt lat="45.25334" lon="0.4248">
        <ele>73</ele>
        <time>2015-11-17T15:07:19Z</time>
      </trkpt>
      <trkpt lat="45.25336" lon="0.42485">
        <ele>74</ele>
        <time>2015-11-17T15:07:23Z</time>
      </trkpt>
      <trkpt lat="45.25336" lon="0.42491">
        <ele>70</ele>
        <time>2015-11-17T15:07:39Z</time>
      </trkpt>
      <trkpt lat="45.25333" lon="0.42495">
        <ele>68</ele>
        <time>2015-11-17T15:07:44Z</time>
      </trkpt>
      <trkpt lat="45.25329" lon="0.42502">
        <ele>67</ele>
        <time>2015-11-17T15:07:49Z</time>
      </trkpt>
      <trkpt lat="45.25328" lon="0.42509">
        <ele>68</ele>
        <time>2015-11-17T15:07:53Z</time>
      </trkpt>
      <trkpt lat="45.25327" lon="0.42516">
        <ele>69</ele>
        <time>2015-11-17T15:07:57Z</time>
      </trkpt>
      <trkpt lat="45.25323" lon="0.42524">
        <ele>70</ele>
        <time>2015-11-17T15:08:01Z</time>
      </trkpt>
      <trkpt lat="45.25321" lon="0.42531">
        <ele>69</ele>
        <time>2015-11-17T15:08:05Z</time>
      </trkpt>
      <trkpt lat="45.25318" lon="0.42541">
        <ele>69</ele>
        <time>2015-11-17T15:08:09Z</time>
      </trkpt>
      <trkpt lat="45.25317" lon="0.42551">
        <ele>70</ele>
        <time>2015-11-17T15:08:13Z</time>
      </trkpt>
      <trkpt lat="45.25315" lon="0.42559">
        <ele>69</ele>
        <time>2015-11-17T15:08:18Z</time>
      </trkpt>
      <trkpt lat="45.25313" lon="0.42565">
        <ele>67</ele>
        <time>2015-11-17T15:08:22Z</time>
      </trkpt>
      <trkpt lat="45.25312" lon="0.42571">
        <ele>67</ele>
        <time>2015-11-17T15:08:26Z</time>
      </trkpt>
      <trkpt lat="45.25314" lon="0.42577">
        <ele>68</ele>
        <time>2015-11-17T15:08:30Z</time>
      </trkpt>
      <trkpt lat="45.25318" lon="0.42583">
        <ele>68</ele>
        <time>2015-11-17T15:08:35Z</time>
      </trkpt>
      <trkpt lat="45.2532" lon="0.42587">
        <ele>70</ele>
        <time>2015-11-17T15:08:39Z</time>
      </trkpt>
      <trkpt lat="45.25325" lon="0.42588">
        <ele>71</ele>
        <time>2015-11-17T15:08:43Z</time>
      </trkpt>
      <trkpt lat="45.25328" lon="0.42591">
        <ele>73</ele>
        <time>2015-11-17T15:08:49Z</time>
      </trkpt>
      <trkpt lat="45.25333" lon="0.42595">
        <ele>72</ele>
        <time>2015-11-17T15:08:54Z</time>
      </trkpt>
      <trkpt lat="45.25337" lon="0.426">
        <ele>76</ele>
        <time>2015-11-17T15:08:59Z</time>
      </trkpt>
      <trkpt lat="45.2534" lon="0.42604">
        <ele>74</ele>
        <time>2015-11-17T15:09:03Z</time>
      </trkpt>
      <trkpt lat="45.25344" lon="0.42609">
        <ele>77</ele>
        <time>2015-11-17T15:09:08Z</time>
      </trkpt>
      <trkpt lat="45.25349" lon="0.42613">
        <ele>74</ele>
        <time>2015-11-17T15:09:12Z</time>
      </trkpt>
      <trkpt lat="45.25353" lon="0.42618">
        <ele>74</ele>
        <time>2015-11-17T15:09:17Z</time>
      </trkpt>
      <trkpt lat="45.25354" lon="0.42623">
        <ele>74</ele>
        <time>2015-11-17T15:09:24Z</time>
      </trkpt>
      <trkpt lat="45.25355" lon="0.4263">
        <ele>71</ele>
        <time>2015-11-17T15:09:28Z</time>
      </trkpt>
      <trkpt lat="45.25355" lon="0.42637">
        <ele>70</ele>
        <time>2015-11-17T15:09:32Z</time>
      </trkpt>
      <trkpt lat="45.25356" lon="0.42643">
        <ele>69</ele>
        <time>2015-11-17T15:09:36Z</time>
      </trkpt>
      <trkpt lat="45.25357" lon="0.42651">
        <ele>69</ele>
        <time>2015-11-17T15:09:40Z</time>
      </trkpt>
      <trkpt lat="45.25356" lon="0.42657">
        <ele>71</ele>
        <time>2015-11-17T15:09:48Z</time>
      </trkpt>
      <trkpt lat="45.25357" lon="0.42662">
        <ele>69</ele>
        <time>2015-11-17T15:09:58Z</time>
      </trkpt>
      <trkpt lat="45.25356" lon="0.42665">
        <ele>68</ele>
        <time>2015-11-17T15:10:03Z</time>
      </trkpt>
      <trkpt lat="45.25357" lon="0.4268">
        <ele>64</ele>
        <time>2015-11-17T15:10:07Z</time>
      </trkpt>
      <trkpt lat="45.25355" lon="0.42693">
        <ele>62</ele>
        <time>2015-11-17T15:10:12Z</time>
      </trkpt>
      <trkpt lat="45.25354" lon="0.42702">
        <ele>66</ele>
        <time>2015-11-17T15:10:16Z</time>
      </trkpt>
      <trkpt lat="45.25353" lon="0.42712">
        <ele>67</ele>
        <time>2015-11-17T15:10:21Z</time>
      </trkpt>
      <trkpt lat="45.25352" lon="0.42721">
        <ele>69</ele>
        <time>2015-11-17T15:10:25Z</time>
      </trkpt>
      <trkpt lat="45.25353" lon="0.42726">
        <ele>71</ele>
        <time>2015-11-17T15:10:29Z</time>
      </trkpt>
      <trkpt lat="45.25357" lon="0.42737">
        <ele>67</ele>
        <time>2015-11-17T15:10:33Z</time>
      </trkpt>
      <trkpt lat="45.25358" lon="0.42743">
        <ele>67</ele>
        <time>2015-11-17T15:10:37Z</time>
      </trkpt>
      <trkpt lat="45.25358" lon="0.42751">
        <ele>67</ele>
        <time>2015-11-17T15:10:41Z</time>
      </trkpt>
      <trkpt lat="45.25358" lon="0.42759">
        <ele>68</ele>
        <time>2015-11-17T15:10:46Z</time>
      </trkpt>
      <trkpt lat="45.25357" lon="0.42768">
        <ele>69</ele>
        <time>2015-11-17T15:10:50Z</time>
      </trkpt>
      <trkpt lat="45.25358" lon="0.42774">
        <ele>71</ele>
        <time>2015-11-17T15:10:54Z</time>
      </trkpt>
      <trkpt lat="45.25359" lon="0.42783">
        <ele>71</ele>
        <time>2015-11-17T15:10:59Z</time>
      </trkpt>
      <trkpt lat="45.25362" lon="0.4279">
        <ele>67</ele>
        <time>2015-11-17T15:11:03Z</time>
      </trkpt>
      <trkpt lat="45.25366" lon="0.42795">
        <ele>65</ele>
        <time>2015-11-17T15:11:07Z</time>
      </trkpt>
      <trkpt lat="45.25371" lon="0.42799">
        <ele>63</ele>
        <time>2015-11-17T15:11:11Z</time>
      </trkpt>
      <trkpt lat="45.25374" lon="0.42804">
        <ele>65</ele>
        <time>2015-11-17T15:11:16Z</time>
      </trkpt>
      <trkpt lat="45.25379" lon="0.42811">
        <ele>72</ele>
        <time>2015-11-17T15:11:21Z</time>
      </trkpt>
      <trkpt lat="45.2538" lon="0.42817">
        <ele>74</ele>
        <time>2015-11-17T15:11:26Z</time>
      </trkpt>
      <trkpt lat="45.25381" lon="0.42822">
        <ele>76</ele>
        <time>2015-11-17T15:11:30Z</time>
      </trkpt>
      <trkpt lat="45.25383" lon="0.42826">
        <ele>75</ele>
        <time>2015-11-17T15:11:34Z</time>
      </trkpt>
      <trkpt lat="45.25384" lon="0.42833">
        <ele>74</ele>
        <time>2015-11-17T15:11:38Z</time>
      </trkpt>
      <trkpt lat="45.25386" lon="0.42839">
        <ele>75</ele>
        <time>2015-11-17T15:11:42Z</time>
      </trkpt>
      <trkpt lat="45.25384" lon="0.42842">
        <ele>74</ele>
        <time>2015-11-17T15:11:51Z</time>
      </trkpt>
      <trkpt lat="45.25383" lon="0.4285">
        <ele>70</ele>
        <time>2015-11-17T15:11:55Z</time>
      </trkpt>
      <trkpt lat="45.25382" lon="0.42855">
        <ele>72</ele>
        <time>2015-11-17T15:12:01Z</time>
      </trkpt>
      <trkpt lat="45.2538" lon="0.42861">
        <ele>73</ele>
        <time>2015-11-17T15:12:05Z</time>
      </trkpt>
      <trkpt lat="45.25378" lon="0.42869">
        <ele>73</ele>
        <time>2015-11-17T15:12:09Z</time>
      </trkpt>
      <trkpt lat="45.25377" lon="0.42877">
        <ele>71</ele>
        <time>2015-11-17T15:12:14Z</time>
      </trkpt>
      <trkpt lat="45.25375" lon="0.42879">
        <ele>72</ele>
        <time>2015-11-17T15:12:20Z</time>
      </trkpt>
      <trkpt lat="45.25373" lon="0.42896">
        <ele>69</ele>
        <time>2015-11-17T15:12:25Z</time>
      </trkpt>
      <trkpt lat="45.25369" lon="0.42898">
        <ele>70</ele>
        <time>2015-11-17T15:12:30Z</time>
      </trkpt>
      <trkpt lat="45.25364" lon="0.42903">
        <ele>68</ele>
        <time>2015-11-17T15:12:34Z</time>
      </trkpt>
      <trkpt lat="45.2536" lon="0.42907">
        <ele>67</ele>
        <time>2015-11-17T15:12:38Z</time>
      </trkpt>
      <trkpt lat="45.25357" lon="0.4291">
        <ele>68</ele>
        <time>2015-11-17T15:12:43Z</time>
      </trkpt>
      <trkpt lat="45.25353" lon="0.42919">
        <ele>68</ele>
        <time>2015-11-17T15:12:47Z</time>
      </trkpt>
      <trkpt lat="45.25347" lon="0.42919">
        <ele>69</ele>
        <time>2015-11-17T15:12:52Z</time>
      </trkpt>
      <trkpt lat="45.25343" lon="0.4292">
        <ele>68</ele>
        <time>2015-11-17T15:12:56Z</time>
      </trkpt>
      <trkpt lat="45.25338" lon="0.42913">
        <ele>69</ele>
        <time>2015-11-17T15:13:00Z</time>
      </trkpt>
      <trkpt lat="45.25331" lon="0.42915">
        <ele>67</ele>
        <time>2015-11-17T15:13:04Z</time>
      </trkpt>
      <trkpt lat="45.25325" lon="0.42916">
        <ele>67</ele>
        <time>2015-11-17T15:13:09Z</time>
      </trkpt>
      <trkpt lat="45.25321" lon="0.42918">
        <ele>70</ele>
        <time>2015-11-17T15:13:13Z</time>
      </trkpt>
      <trkpt lat="45.25317" lon="0.42919">
        <ele>70</ele>
        <time>2015-11-17T15:13:17Z</time>
      </trkpt>
      <trkpt lat="45.25312" lon="0.4292">
        <ele>71</ele>
        <time>2015-11-17T15:13:21Z</time>
      </trkpt>
      <trkpt lat="45.25308" lon="0.42919">
        <ele>72</ele>
        <time>2015-11-17T15:13:25Z</time>
      </trkpt>
      <trkpt lat="45.25304" lon="0.42918">
        <ele>72</ele>
        <time>2015-11-17T15:13:29Z</time>
      </trkpt>
      <trkpt lat="45.253" lon="0.42931">
        <ele>68</ele>
        <time>2015-11-17T15:13:33Z</time>
      </trkpt>
      <trkpt lat="45.25296" lon="0.42938">
        <ele>67</ele>
        <time>2015-11-17T15:13:38Z</time>
      </trkpt>
      <trkpt lat="45.2529" lon="0.42934">
        <ele>67</ele>
        <time>2015-11-17T15:13:42Z</time>
      </trkpt>
      <trkpt lat="45.25287" lon="0.4293">
        <ele>68</ele>
        <time>2015-11-17T15:13:46Z</time>
      </trkpt>
      <trkpt lat="45.25285" lon="0.42924">
        <ele>67</ele>
        <time>2015-11-17T15:13:50Z</time>
      </trkpt>
      <trkpt lat="45.25286" lon="0.42918">
        <ele>68</ele>
        <time>2015-11-17T15:13:54Z</time>
      </trkpt>
      <trkpt lat="45.25283" lon="0.42915">
        <ele>68</ele>
        <time>2015-11-17T15:13:58Z</time>
      </trkpt>
      <trkpt lat="45.25279" lon="0.42911">
        <ele>70</ele>
        <time>2015-11-17T15:14:02Z</time>
      </trkpt>
      <trkpt lat="45.25274" lon="0.42907">
        <ele>69</ele>
        <time>2015-11-17T15:14:06Z</time>
      </trkpt>
      <trkpt lat="45.25269" lon="0.42903">
        <ele>69</ele>
        <time>2015-11-17T15:14:10Z</time>
      </trkpt>
      <trkpt lat="45.25264" lon="0.42895">
        <ele>68</ele>
        <time>2015-11-17T15:14:15Z</time>
      </trkpt>
      <trkpt lat="45.25258" lon="0.42894">
        <ele>68</ele>
        <time>2015-11-17T15:14:20Z</time>
      </trkpt>
      <trkpt lat="45.25254" lon="0.42892">
        <ele>67</ele>
        <time>2015-11-17T15:14:26Z</time>
      </trkpt>
      <trkpt lat="45.25249" lon="0.4289">
        <ele>66</ele>
        <time>2015-11-17T15:14:30Z</time>
      </trkpt>
      <trkpt lat="45.25244" lon="0.42886">
        <ele>67</ele>
        <time>2015-11-17T15:14:34Z</time>
      </trkpt>
      <trkpt lat="45.2524" lon="0.42882">
        <ele>67</ele>
        <time>2015-11-17T15:14:38Z</time>
      </trkpt>
      <trkpt lat="45.25235" lon="0.42883">
        <ele>66</ele>
        <time>2015-11-17T15:14:43Z</time>
      </trkpt>
      <trkpt lat="45.25231" lon="0.4288">
        <ele>64</ele>
        <time>2015-11-17T15:14:47Z</time>
      </trkpt>
      <trkpt lat="45.25228" lon="0.4288">
        <ele>63</ele>
        <time>2015-11-17T15:14:51Z</time>
      </trkpt>
      <trkpt lat="45.25224" lon="0.42878">
        <ele>65</ele>
        <time>2015-11-17T15:14:55Z</time>
      </trkpt>
      <trkpt lat="45.25218" lon="0.42875">
        <ele>63</ele>
        <time>2015-11-17T15:15:00Z</time>
      </trkpt>
      <trkpt lat="45.25214" lon="0.42876">
        <ele>62</ele>
        <time>2015-11-17T15:15:04Z</time>
      </trkpt>
      <trkpt lat="45.2521" lon="0.42871">
        <ele>63</ele>
        <time>2015-11-17T15:15:09Z</time>
      </trkpt>
      <trkpt lat="45.25205" lon="0.42866">
        <ele>64</ele>
        <time>2015-11-17T15:15:13Z</time>
      </trkpt>
      <trkpt lat="45.25198" lon="0.42864">
        <ele>64</ele>
        <time>2015-11-17T15:15:17Z</time>
      </trkpt>
      <trkpt lat="45.25193" lon="0.4286">
        <ele>64</ele>
        <time>2015-11-17T15:15:21Z</time>
      </trkpt>
      <trkpt lat="45.25186" lon="0.42857">
        <ele>63</ele>
        <time>2015-11-17T15:15:26Z</time>
      </trkpt>
      <trkpt lat="45.2518" lon="0.4285">
        <ele>62</ele>
        <time>2015-11-17T15:15:31Z</time>
      </trkpt>
      <trkpt lat="45.25176" lon="0.4285">
        <ele>64</ele>
        <time>2015-11-17T15:15:35Z</time>
      </trkpt>
      <trkpt lat="45.25171" lon="0.42848">
        <ele>67</ele>
        <time>2015-11-17T15:15:39Z</time>
      </trkpt>
      <trkpt lat="45.25166" lon="0.42845">
        <ele>67</ele>
        <time>2015-11-17T15:15:44Z</time>
      </trkpt>
      <trkpt lat="45.25162" lon="0.42842">
        <ele>66</ele>
        <time>2015-11-17T15:15:48Z</time>
      </trkpt>
      <trkpt lat="45.25157" lon="0.42839">
        <ele>68</ele>
        <time>2015-11-17T15:15:52Z</time>
      </trkpt>
      <trkpt lat="45.25153" lon="0.42837">
        <ele>70</ele>
        <time>2015-11-17T15:15:56Z</time>
      </trkpt>
      <trkpt lat="45.2515" lon="0.42833">
        <ele>70</ele>
        <time>2015-11-17T15:16:00Z</time>
      </trkpt>
      <trkpt lat="45.25144" lon="0.42828">
        <ele>69</ele>
        <time>2015-11-17T15:16:05Z</time>
      </trkpt>
      <trkpt lat="45.2514" lon="0.42825">
        <ele>70</ele>
        <time>2015-11-17T15:16:10Z</time>
      </trkpt>
      <trkpt lat="45.25134" lon="0.42822">
        <ele>68</ele>
        <time>2015-11-17T15:16:14Z</time>
      </trkpt>
      <trkpt lat="45.25129" lon="0.42819">
        <ele>68</ele>
        <time>2015-11-17T15:16:19Z</time>
      </trkpt>
      <trkpt lat="45.25125" lon="0.42821">
        <ele>68</ele>
        <time>2015-11-17T15:16:23Z</time>
      </trkpt>
      <trkpt lat="45.25123" lon="0.42814">
        <ele>68</ele>
        <time>2015-11-17T15:16:27Z</time>
      </trkpt>
      <trkpt lat="45.25117" lon="0.42815">
        <ele>69</ele>
        <time>2015-11-17T15:16:31Z</time>
      </trkpt>
      <trkpt lat="45.25112" lon="0.42809">
        <ele>70</ele>
        <time>2015-11-17T15:16:36Z</time>
      </trkpt>
      <trkpt lat="45.25107" lon="0.42808">
        <ele>70</ele>
        <time>2015-11-17T15:16:41Z</time>
      </trkpt>
      <trkpt lat="45.25102" lon="0.42803">
        <ele>70</ele>
        <time>2015-11-17T15:16:45Z</time>
      </trkpt>
      <trkpt lat="45.25099" lon="0.42797">
        <ele>70</ele>
        <time>2015-11-17T15:16:49Z</time>
      </trkpt>
      <trkpt lat="45.25094" lon="0.42796">
        <ele>71</ele>
        <time>2015-11-17T15:16:58Z</time>
      </trkpt>
      <trkpt lat="45.25086" lon="0.42794">
        <ele>67</ele>
        <time>2015-11-17T15:17:02Z</time>
      </trkpt>
      <trkpt lat="45.25079" lon="0.42788">
        <ele>67</ele>
        <time>2015-11-17T15:17:07Z</time>
      </trkpt>
      <trkpt lat="45.25075" lon="0.42787">
        <ele>68</ele>
        <time>2015-11-17T15:17:12Z</time>
      </trkpt>
      <trkpt lat="45.2507" lon="0.42783">
        <ele>68</ele>
        <time>2015-11-17T15:17:16Z</time>
      </trkpt>
      <trkpt lat="45.25064" lon="0.42781">
        <ele>68</ele>
        <time>2015-11-17T15:17:21Z</time>
      </trkpt>
      <trkpt lat="45.25059" lon="0.4278">
        <ele>69</ele>
        <time>2015-11-17T15:17:25Z</time>
      </trkpt>
      <trkpt lat="45.25055" lon="0.42779">
        <ele>71</ele>
        <time>2015-11-17T15:17:29Z</time>
      </trkpt>
      <trkpt lat="45.25052" lon="0.42776">
        <ele>72</ele>
        <time>2015-11-17T15:17:34Z</time>
      </trkpt>
      <trkpt lat="45.2505" lon="0.42771">
        <ele>70</ele>
        <time>2015-11-17T15:17:39Z</time>
      </trkpt>
      <trkpt lat="45.25051" lon="0.42766">
        <ele>69</ele>
        <time>2015-11-17T15:17:44Z</time>
      </trkpt>
      <trkpt lat="45.25049" lon="0.42761">
        <ele>70</ele>
        <time>2015-11-17T15:17:48Z</time>
      </trkpt>
      <trkpt lat="45.25048" lon="0.42755">
        <ele>70</ele>
        <time>2015-11-17T15:17:53Z</time>
      </trkpt>
      <trkpt lat="45.25049" lon="0.4275">
        <ele>72</ele>
        <time>2015-11-17T15:17:58Z</time>
      </trkpt>
      <trkpt lat="45.25049" lon="0.42742">
        <ele>72</ele>
        <time>2015-11-17T15:18:03Z</time>
      </trkpt>
      <trkpt lat="45.25048" lon="0.42737">
        <ele>72</ele>
        <time>2015-11-17T15:18:07Z</time>
      </trkpt>
      <trkpt lat="45.25048" lon="0.42729">
        <ele>70</ele>
        <time>2015-11-17T15:18:12Z</time>
      </trkpt>
      <trkpt lat="45.25048" lon="0.42722">
        <ele>72</ele>
        <time>2015-11-17T15:18:16Z</time>
      </trkpt>
      <trkpt lat="45.25046" lon="0.42716">
        <ele>75</ele>
        <time>2015-11-17T15:18:21Z</time>
      </trkpt>
      <trkpt lat="45.25045" lon="0.42708">
        <ele>75</ele>
        <time>2015-11-17T15:18:26Z</time>
      </trkpt>
      <trkpt lat="45.25045" lon="0.42703">
        <ele>76</ele>
        <time>2015-11-17T15:18:31Z</time>
      </trkpt>
      <trkpt lat="45.25047" lon="0.42687">
        <ele>72</ele>
        <time>2015-11-17T15:18:36Z</time>
      </trkpt>
      <trkpt lat="45.25048" lon="0.42677">
        <ele>70</ele>
        <time>2015-11-17T15:18:41Z</time>
      </trkpt>
      <trkpt lat="45.25048" lon="0.4267">
        <ele>70</ele>
        <time>2015-11-17T15:18:45Z</time>
      </trkpt>
      <trkpt lat="45.25048" lon="0.42663">
        <ele>70</ele>
        <time>2015-11-17T15:18:49Z</time>
      </trkpt>
      <trkpt lat="45.25048" lon="0.42656">
        <ele>70</ele>
        <time>2015-11-17T15:18:53Z</time>
      </trkpt>
      <trkpt lat="45.25047" lon="0.42649">
        <ele>70</ele>
        <time>2015-11-17T15:18:57Z</time>
      </trkpt>
      <trkpt lat="45.25047" lon="0.42642">
        <ele>71</ele>
        <time>2015-11-17T15:19:01Z</time>
      </trkpt>
      <trkpt lat="45.25047" lon="0.42635">
        <ele>71</ele>
        <time>2015-11-17T15:19:05Z</time>
      </trkpt>
      <trkpt lat="45.25047" lon="0.42628">
        <ele>71</ele>
        <time>2015-11-17T15:19:09Z</time>
      </trkpt>
      <trkpt lat="45.25047" lon="0.42621">
        <ele>71</ele>
        <time>2015-11-17T15:19:14Z</time>
      </trkpt>
      <trkpt lat="45.25046" lon="0.42614">
        <ele>71</ele>
        <time>2015-11-17T15:19:18Z</time>
      </trkpt>
      <trkpt lat="45.25047" lon="0.42607">
        <ele>71</ele>
        <time>2015-11-17T15:19:23Z</time>
      </trkpt>
      <trkpt lat="45.25047" lon="0.42601">
        <ele>70</ele>
        <time>2015-11-17T15:19:27Z</time>
      </trkpt>
      <trkpt lat="45.25046" lon="0.42589">
        <ele>68</ele>
        <time>2015-11-17T15:19:32Z</time>
      </trkpt>
      <trkpt lat="45.25045" lon="0.42584">
        <ele>69</ele>
        <time>2015-11-17T15:19:36Z</time>
      </trkpt>
      <trkpt lat="45.25048" lon="0.42579">
        <ele>72</ele>
        <time>2015-11-17T15:19:44Z</time>
      </trkpt>
      <trkpt lat="45.25045" lon="0.42569">
        <ele>70</ele>
        <time>2015-11-17T15:19:48Z</time>
      </trkpt>
      <trkpt lat="45.25044" lon="0.42561">
        <ele>70</ele>
        <time>2015-11-17T15:19:52Z</time>
      </trkpt>
      <trkpt lat="45.25044" lon="0.42554">
        <ele>70</ele>
        <time>2015-11-17T15:19:56Z</time>
      </trkpt>
      <trkpt lat="45.25044" lon="0.42547">
        <ele>71</ele>
        <time>2015-11-17T15:20:01Z</time>
      </trkpt>
      <trkpt lat="45.25044" lon="0.42539">
        <ele>71</ele>
        <time>2015-11-17T15:20:05Z</time>
      </trkpt>
      <trkpt lat="45.25047" lon="0.42533">
        <ele>71</ele>
        <time>2015-11-17T15:20:09Z</time>
      </trkpt>
      <trkpt lat="45.25045" lon="0.42523">
        <ele>71</ele>
        <time>2015-11-17T15:20:14Z</time>
      </trkpt>
      <trkpt lat="45.25045" lon="0.42516">
        <ele>70</ele>
        <time>2015-11-17T15:20:18Z</time>
      </trkpt>
      <trkpt lat="45.25045" lon="0.42509">
        <ele>73</ele>
        <time>2015-11-17T15:20:22Z</time>
      </trkpt>
      <trkpt lat="45.25043" lon="0.42502">
        <ele>74</ele>
        <time>2015-11-17T15:20:26Z</time>
      </trkpt>
      <trkpt lat="45.25036" lon="0.42494">
        <ele>70</ele>
        <time>2015-11-17T15:20:30Z</time>
      </trkpt>
      <trkpt lat="45.25041" lon="0.42488">
        <ele>70</ele>
        <time>2015-11-17T15:20:34Z</time>
      </trkpt>
      <trkpt lat="45.2504" lon="0.4248">
        <ele>70</ele>
        <time>2015-11-17T15:20:39Z</time>
      </trkpt>
      <trkpt lat="45.25039" lon="0.42472">
        <ele>69</ele>
        <time>2015-11-17T15:20:44Z</time>
      </trkpt>
      <trkpt lat="45.25039" lon="0.42465">
        <ele>69</ele>
        <time>2015-11-17T15:20:48Z</time>
      </trkpt>
      <trkpt lat="45.25037" lon="0.42457">
        <ele>69</ele>
        <time>2015-11-17T15:20:53Z</time>
      </trkpt>
      <trkpt lat="45.25036" lon="0.42451">
        <ele>67</ele>
        <time>2015-11-17T15:20:58Z</time>
      </trkpt>
      <trkpt lat="45.25034" lon="0.42441">
        <ele>66</ele>
        <time>2015-11-17T15:21:02Z</time>
      </trkpt>
      <trkpt lat="45.25033" lon="0.42433">
        <ele>65</ele>
        <time>2015-11-17T15:21:06Z</time>
      </trkpt>
      <trkpt lat="45.25034" lon="0.42425">
        <ele>69</ele>
        <time>2015-11-17T15:21:11Z</time>
      </trkpt>
      <trkpt lat="45.25035" lon="0.4242">
        <ele>68</ele>
        <time>2015-11-17T15:21:15Z</time>
      </trkpt>
      <trkpt lat="45.25035" lon="0.42413">
        <ele>70</ele>
        <time>2015-11-17T15:21:19Z</time>
      </trkpt>
      <trkpt lat="45.25034" lon="0.42406">
        <ele>71</ele>
        <time>2015-11-17T15:21:24Z</time>
      </trkpt>
      <trkpt lat="45.25034" lon="0.42399">
        <ele>72</ele>
        <time>2015-11-17T15:21:28Z</time>
      </trkpt>
      <trkpt lat="45.25034" lon="0.42395">
        <ele>71</ele>
        <time>2015-11-17T15:21:32Z</time>
      </trkpt>
      <trkpt lat="45.25032" lon="0.42388">
        <ele>70</ele>
        <time>2015-11-17T15:21:36Z</time>
      </trkpt>
      <trkpt lat="45.25031" lon="0.42383">
        <ele>70</ele>
        <time>2015-11-17T15:21:40Z</time>
      </trkpt>
      <trkpt lat="45.2503" lon="0.42375">
        <ele>71</ele>
        <time>2015-11-17T15:21:44Z</time>
      </trkpt>
      <trkpt lat="45.2503" lon="0.42368">
        <ele>71</ele>
        <time>2015-11-17T15:21:49Z</time>
      </trkpt>
      <trkpt lat="45.2503" lon="0.42363">
        <ele>70</ele>
        <time>2015-11-17T15:21:53Z</time>
      </trkpt>
      <trkpt lat="45.25027" lon="0.42352">
        <ele>68</ele>
        <time>2015-11-17T15:21:58Z</time>
      </trkpt>
      <trkpt lat="45.25026" lon="0.42346">
        <ele>70</ele>
        <time>2015-11-17T15:22:03Z</time>
      </trkpt>
      <trkpt lat="45.25024" lon="0.42338">
        <ele>71</ele>
        <time>2015-11-17T15:22:07Z</time>
      </trkpt>
      <trkpt lat="45.25019" lon="0.42331">
        <ele>71</ele>
        <time>2015-11-17T15:22:12Z</time>
      </trkpt>
      <trkpt lat="45.25014" lon="0.4233">
        <ele>71</ele>
        <time>2015-11-17T15:22:17Z</time>
      </trkpt>
      <trkpt lat="45.2501" lon="0.42332">
        <ele>73</ele>
        <time>2015-11-17T15:22:21Z</time>
      </trkpt>
      <trkpt lat="45.25003" lon="0.42331">
        <ele>74</ele>
        <time>2015-11-17T15:22:26Z</time>
      </trkpt>
      <trkpt lat="45.24999" lon="0.42326">
        <ele>73</ele>
        <time>2015-11-17T15:22:30Z</time>
      </trkpt>
      <trkpt lat="45.24999" lon="0.4232">
        <ele>75</ele>
        <time>2015-11-17T15:22:39Z</time>
      </trkpt>
      <trkpt lat="45.24997" lon="0.42311">
        <ele>74</ele>
        <time>2015-11-17T15:22:44Z</time>
      </trkpt>
      <trkpt lat="45.24997" lon="0.42305">
        <ele>75</ele>
        <time>2015-11-17T15:22:49Z</time>
      </trkpt>
      <trkpt lat="45.24996" lon="0.42299">
        <ele>75</ele>
        <time>2015-11-17T15:22:53Z</time>
      </trkpt>
      <trkpt lat="45.24996" lon="0.4229">
        <ele>74</ele>
        <time>2015-11-17T15:22:57Z</time>
      </trkpt>
      <trkpt lat="45.24995" lon="0.42285">
        <ele>75</ele>
        <time>2015-11-17T15:23:01Z</time>
      </trkpt>
      <trkpt lat="45.24994" lon="0.42279">
        <ele>77</ele>
        <time>2015-11-17T15:23:06Z</time>
      </trkpt>
      <trkpt lat="45.24993" lon="0.42274">
        <ele>76</ele>
        <time>2015-11-17T15:23:14Z</time>
      </trkpt>
      <trkpt lat="45.2499" lon="0.42262">
        <ele>75</ele>
        <time>2015-11-17T15:23:18Z</time>
      </trkpt>
      <trkpt lat="45.24987" lon="0.42251">
        <ele>74</ele>
        <time>2015-11-17T15:23:23Z</time>
      </trkpt>
      <trkpt lat="45.24986" lon="0.42245">
        <ele>75</ele>
        <time>2015-11-17T15:23:27Z</time>
      </trkpt>
      <trkpt lat="45.24983" lon="0.42239">
        <ele>75</ele>
        <time>2015-11-17T15:23:31Z</time>
      </trkpt>
      <trkpt lat="45.2498" lon="0.42232">
        <ele>75</ele>
        <time>2015-11-17T15:23:36Z</time>
      </trkpt>
      <trkpt lat="45.24976" lon="0.42229">
        <ele>75</ele>
        <time>2015-11-17T15:23:41Z</time>
      </trkpt>
      <trkpt lat="45.24973" lon="0.42225">
        <ele>74</ele>
        <time>2015-11-17T15:23:46Z</time>
      </trkpt>
      <trkpt lat="45.2497" lon="0.4222">
        <ele>74</ele>
        <time>2015-11-17T15:23:50Z</time>
      </trkpt>
      <trkpt lat="45.24966" lon="0.42213">
        <ele>73</ele>
        <time>2015-11-17T15:23:54Z</time>
      </trkpt>
      <trkpt lat="45.24963" lon="0.42209">
        <ele>74</ele>
        <time>2015-11-17T15:23:58Z</time>
      </trkpt>
      <trkpt lat="45.24959" lon="0.42204">
        <ele>74</ele>
        <time>2015-11-17T15:24:02Z</time>
      </trkpt>
      <trkpt lat="45.24958" lon="0.42197">
        <ele>75</ele>
        <time>2015-11-17T15:24:06Z</time>
      </trkpt>
      <trkpt lat="45.24957" lon="0.42189">
        <ele>73</ele>
        <time>2015-11-17T15:24:10Z</time>
      </trkpt>
      <trkpt lat="45.24954" lon="0.42188">
        <ele>72</ele>
        <time>2015-11-17T15:24:13Z</time>
      </trkpt>
      <trkpt lat="45.24954" lon="0.42188">
        <ele>72</ele>
        <time>2015-11-17T15:24:14Z</time>
      </trkpt>
    </trkseg>
  </trk>
</gpx>